<?xml version="1.0" encoding="UTF-8" standalone="no" ?>
<gpx xmlns="http://www.topografix.com/GPX/1/1" xmlns:xsi="http://www.w3.org/2001/XMLSchema-instance" xsi:schemaLocation="http://www.topografix.com/GPX/1/1 http://www.topografix.com/GPX/1/1/gpx.xsd" version="1.1" creator="VisuGPX - https://www.visugpx.com">
  <metadata>
    <name>VTT - Villars / Bairols</name>
    <desc><![CDATA[VTT - Villars / Sarzit / Bairols - Relevé terrain: 32 km /   1 600 m

CR ASCVTT ici: <>]]></desc>
  </metadata>
  <trk>
    <name><![CDATA[VTT - Villars / Bairols_1]]></name>
    <trkseg>
      <trkpt lat="43.93793" lon="7.09633">
        <ele>425.3</ele>
        <time>2012-10-13T07:06:11Z</time>
      </trkpt>
      <trkpt lat="43.93793" lon="7.09633">
        <ele>425</ele>
        <time>2012-10-13T07:06:15Z</time>
      </trkpt>
      <trkpt lat="43.93793" lon="7.09639">
        <ele>425.6</ele>
        <time>2012-10-13T07:06:19Z</time>
      </trkpt>
      <trkpt lat="43.93787" lon="7.09672">
        <ele>436.2</ele>
        <time>2012-10-13T07:06:32Z</time>
      </trkpt>
      <trkpt lat="43.93787" lon="7.09677">
        <ele>437.9</ele>
        <time>2012-10-13T07:06:34Z</time>
      </trkpt>
      <trkpt lat="43.9379" lon="7.09685">
        <ele>440.4</ele>
        <time>2012-10-13T07:06:39Z</time>
      </trkpt>
      <trkpt lat="43.93787" lon="7.0969">
        <ele>444.6</ele>
        <time>2012-10-13T07:06:42Z</time>
      </trkpt>
      <trkpt lat="43.93786" lon="7.09692">
        <ele>441.8</ele>
        <time>2012-10-13T07:06:49Z</time>
      </trkpt>
      <trkpt lat="43.93791" lon="7.09694">
        <ele>437.4</ele>
        <time>2012-10-13T07:07:03Z</time>
      </trkpt>
      <trkpt lat="43.93793" lon="7.09695">
        <ele>441</ele>
        <time>2012-10-13T07:07:10Z</time>
      </trkpt>
      <trkpt lat="43.93798" lon="7.09701">
        <ele>446.9</ele>
        <time>2012-10-13T07:07:22Z</time>
      </trkpt>
      <trkpt lat="43.93804" lon="7.09709">
        <ele>446.5</ele>
        <time>2012-10-13T07:07:34Z</time>
      </trkpt>
      <trkpt lat="43.93809" lon="7.09711">
        <ele>440.3</ele>
        <time>2012-10-13T07:07:39Z</time>
      </trkpt>
      <trkpt lat="43.93813" lon="7.09713">
        <ele>443.5</ele>
        <time>2012-10-13T07:07:44Z</time>
      </trkpt>
      <trkpt lat="43.93816" lon="7.09718">
        <ele>453.7</ele>
        <time>2012-10-13T07:07:51Z</time>
      </trkpt>
      <trkpt lat="43.93821" lon="7.09717">
        <ele>450</ele>
        <time>2012-10-13T07:07:58Z</time>
      </trkpt>
      <trkpt lat="43.93824" lon="7.09718">
        <ele>453</ele>
        <time>2012-10-13T07:08:02Z</time>
      </trkpt>
      <trkpt lat="43.93828" lon="7.09719">
        <ele>452.8</ele>
        <time>2012-10-13T07:08:07Z</time>
      </trkpt>
      <trkpt lat="43.93834" lon="7.09718">
        <ele>447.7</ele>
        <time>2012-10-13T07:08:14Z</time>
      </trkpt>
      <trkpt lat="43.93835" lon="7.09719">
        <ele>447.8</ele>
        <time>2012-10-13T07:08:16Z</time>
      </trkpt>
      <trkpt lat="43.93834" lon="7.09726">
        <ele>453.6</ele>
        <time>2012-10-13T07:08:23Z</time>
      </trkpt>
      <trkpt lat="43.93836" lon="7.09729">
        <ele>456.3</ele>
        <time>2012-10-13T07:08:27Z</time>
      </trkpt>
      <trkpt lat="43.93837" lon="7.09731">
        <ele>456.9</ele>
        <time>2012-10-13T07:08:29Z</time>
      </trkpt>
      <trkpt lat="43.93842" lon="7.09729">
        <ele>454.4</ele>
        <time>2012-10-13T07:08:36Z</time>
      </trkpt>
      <trkpt lat="43.93833" lon="7.09734">
        <ele>475.8</ele>
        <time>2012-10-13T07:09:20Z</time>
      </trkpt>
      <trkpt lat="43.93843" lon="7.09734">
        <ele>457.5</ele>
        <time>2012-10-13T07:09:43Z</time>
      </trkpt>
      <trkpt lat="43.93852" lon="7.09731">
        <ele>453.9</ele>
        <time>2012-10-13T07:09:49Z</time>
      </trkpt>
      <trkpt lat="43.9386" lon="7.09726">
        <ele>451.1</ele>
        <time>2012-10-13T07:09:53Z</time>
      </trkpt>
      <trkpt lat="43.93873" lon="7.0972">
        <ele>453.6</ele>
        <time>2012-10-13T07:10:02Z</time>
      </trkpt>
      <trkpt lat="43.93883" lon="7.09702">
        <ele>456.9</ele>
        <time>2012-10-13T07:10:14Z</time>
      </trkpt>
      <trkpt lat="43.93886" lon="7.09692">
        <ele>461.1</ele>
        <time>2012-10-13T07:10:20Z</time>
      </trkpt>
      <trkpt lat="43.93886" lon="7.0969">
        <ele>461.7</ele>
        <time>2012-10-13T07:10:21Z</time>
      </trkpt>
      <trkpt lat="43.9389" lon="7.09674">
        <ele>469.6</ele>
        <time>2012-10-13T07:10:33Z</time>
      </trkpt>
      <trkpt lat="43.93889" lon="7.09662">
        <ele>475.5</ele>
        <time>2012-10-13T07:10:41Z</time>
      </trkpt>
      <trkpt lat="43.93885" lon="7.0965">
        <ele>480.7</ele>
        <time>2012-10-13T07:10:48Z</time>
      </trkpt>
      <trkpt lat="43.93884" lon="7.09635">
        <ele>482.4</ele>
        <time>2012-10-13T07:10:57Z</time>
      </trkpt>
      <trkpt lat="43.93887" lon="7.09607">
        <ele>482.4</ele>
        <time>2012-10-13T07:11:14Z</time>
      </trkpt>
      <trkpt lat="43.93889" lon="7.09604">
        <ele>477.9</ele>
        <time>2012-10-13T07:11:21Z</time>
      </trkpt>
      <trkpt lat="43.93892" lon="7.096">
        <ele>473.7</ele>
        <time>2012-10-13T07:11:32Z</time>
      </trkpt>
      <trkpt lat="43.93894" lon="7.09595">
        <ele>475.7</ele>
        <time>2012-10-13T07:11:38Z</time>
      </trkpt>
      <trkpt lat="43.93892" lon="7.09591">
        <ele>483.1</ele>
        <time>2012-10-13T07:11:44Z</time>
      </trkpt>
      <trkpt lat="43.93892" lon="7.09587">
        <ele>488.9</ele>
        <time>2012-10-13T07:11:52Z</time>
      </trkpt>
      <trkpt lat="43.93893" lon="7.09578">
        <ele>501.8</ele>
        <time>2012-10-13T07:12:05Z</time>
      </trkpt>
      <trkpt lat="43.93901" lon="7.09561">
        <ele>489.1</ele>
        <time>2012-10-13T07:12:18Z</time>
      </trkpt>
      <trkpt lat="43.939" lon="7.09557">
        <ele>489.9</ele>
        <time>2012-10-13T07:12:23Z</time>
      </trkpt>
      <trkpt lat="43.93901" lon="7.09553">
        <ele>489.8</ele>
        <time>2012-10-13T07:12:27Z</time>
      </trkpt>
      <trkpt lat="43.93907" lon="7.09533">
        <ele>493.8</ele>
        <time>2012-10-13T07:12:54Z</time>
      </trkpt>
      <trkpt lat="43.93906" lon="7.09527">
        <ele>496</ele>
        <time>2012-10-13T07:13:01Z</time>
      </trkpt>
      <trkpt lat="43.93908" lon="7.09516">
        <ele>495.1</ele>
        <time>2012-10-13T07:13:09Z</time>
      </trkpt>
      <trkpt lat="43.93911" lon="7.09503">
        <ele>495.7</ele>
        <time>2012-10-13T07:13:19Z</time>
      </trkpt>
      <trkpt lat="43.93911" lon="7.09498">
        <ele>495.8</ele>
        <time>2012-10-13T07:13:26Z</time>
      </trkpt>
      <trkpt lat="43.93925" lon="7.09465">
        <ele>501</ele>
        <time>2012-10-13T07:13:45Z</time>
      </trkpt>
      <trkpt lat="43.93933" lon="7.09452">
        <ele>502.4</ele>
        <time>2012-10-13T07:13:52Z</time>
      </trkpt>
      <trkpt lat="43.93941" lon="7.09434">
        <ele>508.5</ele>
        <time>2012-10-13T07:14:05Z</time>
      </trkpt>
      <trkpt lat="43.93951" lon="7.0942">
        <ele>507.9</ele>
        <time>2012-10-13T07:14:15Z</time>
      </trkpt>
      <trkpt lat="43.93963" lon="7.09397">
        <ele>511.8</ele>
        <time>2012-10-13T07:14:32Z</time>
      </trkpt>
      <trkpt lat="43.93967" lon="7.09392">
        <ele>512.7</ele>
        <time>2012-10-13T07:14:35Z</time>
      </trkpt>
      <trkpt lat="43.93971" lon="7.09384">
        <ele>516.5</ele>
        <time>2012-10-13T07:14:41Z</time>
      </trkpt>
      <trkpt lat="43.93975" lon="7.0938">
        <ele>517.1</ele>
        <time>2012-10-13T07:14:45Z</time>
      </trkpt>
      <trkpt lat="43.93978" lon="7.09374">
        <ele>519.5</ele>
        <time>2012-10-13T07:14:48Z</time>
      </trkpt>
      <trkpt lat="43.93982" lon="7.09369">
        <ele>522.1</ele>
        <time>2012-10-13T07:14:53Z</time>
      </trkpt>
      <trkpt lat="43.93988" lon="7.0936">
        <ele>526.3</ele>
        <time>2012-10-13T07:14:59Z</time>
      </trkpt>
      <trkpt lat="43.94015" lon="7.09328">
        <ele>518.4</ele>
        <time>2012-10-13T07:15:42Z</time>
      </trkpt>
      <trkpt lat="43.94021" lon="7.09326">
        <ele>521.3</ele>
        <time>2012-10-13T07:15:50Z</time>
      </trkpt>
      <trkpt lat="43.94033" lon="7.09315">
        <ele>520.3</ele>
        <time>2012-10-13T07:16:11Z</time>
      </trkpt>
      <trkpt lat="43.94035" lon="7.0931">
        <ele>518</ele>
        <time>2012-10-13T07:16:16Z</time>
      </trkpt>
      <trkpt lat="43.94038" lon="7.09305">
        <ele>516.3</ele>
        <time>2012-10-13T07:16:21Z</time>
      </trkpt>
      <trkpt lat="43.94043" lon="7.09301">
        <ele>516</ele>
        <time>2012-10-13T07:16:28Z</time>
      </trkpt>
      <trkpt lat="43.94048" lon="7.09295">
        <ele>519.2</ele>
        <time>2012-10-13T07:16:37Z</time>
      </trkpt>
      <trkpt lat="43.94051" lon="7.09292">
        <ele>524.7</ele>
        <time>2012-10-13T07:16:44Z</time>
      </trkpt>
      <trkpt lat="43.94063" lon="7.09282">
        <ele>525.2</ele>
        <time>2012-10-13T07:16:58Z</time>
      </trkpt>
      <trkpt lat="43.9407" lon="7.09277">
        <ele>528.2</ele>
        <time>2012-10-13T07:17:07Z</time>
      </trkpt>
      <trkpt lat="43.94078" lon="7.09274">
        <ele>534.6</ele>
        <time>2012-10-13T07:17:16Z</time>
      </trkpt>
      <trkpt lat="43.94083" lon="7.09271">
        <ele>537.1</ele>
        <time>2012-10-13T07:17:24Z</time>
      </trkpt>
      <trkpt lat="43.94089" lon="7.09267">
        <ele>537.4</ele>
        <time>2012-10-13T07:17:31Z</time>
      </trkpt>
      <trkpt lat="43.94098" lon="7.09264">
        <ele>549.1</ele>
        <time>2012-10-13T07:17:48Z</time>
      </trkpt>
      <trkpt lat="43.94102" lon="7.0926">
        <ele>548.9</ele>
        <time>2012-10-13T07:17:53Z</time>
      </trkpt>
      <trkpt lat="43.94111" lon="7.09255">
        <ele>548.2</ele>
        <time>2012-10-13T07:18:01Z</time>
      </trkpt>
      <trkpt lat="43.94119" lon="7.09248">
        <ele>548.9</ele>
        <time>2012-10-13T07:18:11Z</time>
      </trkpt>
      <trkpt lat="43.94123" lon="7.09246">
        <ele>550.7</ele>
        <time>2012-10-13T07:18:16Z</time>
      </trkpt>
      <trkpt lat="43.94126" lon="7.09241">
        <ele>549.5</ele>
        <time>2012-10-13T07:18:22Z</time>
      </trkpt>
      <trkpt lat="43.9413" lon="7.09235">
        <ele>546.9</ele>
        <time>2012-10-13T07:18:29Z</time>
      </trkpt>
      <trkpt lat="43.94132" lon="7.09233">
        <ele>549.6</ele>
        <time>2012-10-13T07:18:35Z</time>
      </trkpt>
      <trkpt lat="43.94141" lon="7.09226">
        <ele>550</ele>
        <time>2012-10-13T07:18:43Z</time>
      </trkpt>
      <trkpt lat="43.94144" lon="7.09223">
        <ele>552.6</ele>
        <time>2012-10-13T07:18:48Z</time>
      </trkpt>
      <trkpt lat="43.94158" lon="7.09213">
        <ele>553.3</ele>
        <time>2012-10-13T07:19:07Z</time>
      </trkpt>
      <trkpt lat="43.94161" lon="7.09211">
        <ele>552.4</ele>
        <time>2012-10-13T07:19:10Z</time>
      </trkpt>
      <trkpt lat="43.94166" lon="7.09209">
        <ele>557.2</ele>
        <time>2012-10-13T07:19:18Z</time>
      </trkpt>
      <trkpt lat="43.9417" lon="7.09205">
        <ele>556.8</ele>
        <time>2012-10-13T07:19:24Z</time>
      </trkpt>
      <trkpt lat="43.94175" lon="7.09204">
        <ele>557</ele>
        <time>2012-10-13T07:19:30Z</time>
      </trkpt>
      <trkpt lat="43.94178" lon="7.09202">
        <ele>560.5</ele>
        <time>2012-10-13T07:19:36Z</time>
      </trkpt>
      <trkpt lat="43.94182" lon="7.09198">
        <ele>559.9</ele>
        <time>2012-10-13T07:19:43Z</time>
      </trkpt>
      <trkpt lat="43.9419" lon="7.09192">
        <ele>564.9</ele>
        <time>2012-10-13T07:19:50Z</time>
      </trkpt>
      <trkpt lat="43.94199" lon="7.09188">
        <ele>571.6</ele>
        <time>2012-10-13T07:19:58Z</time>
      </trkpt>
      <trkpt lat="43.94205" lon="7.0918">
        <ele>574.3</ele>
        <time>2012-10-13T07:20:03Z</time>
      </trkpt>
      <trkpt lat="43.94208" lon="7.0917">
        <ele>576.6</ele>
        <time>2012-10-13T07:20:09Z</time>
      </trkpt>
      <trkpt lat="43.94209" lon="7.09131">
        <ele>585</ele>
        <time>2012-10-13T07:20:30Z</time>
      </trkpt>
      <trkpt lat="43.94209" lon="7.09129">
        <ele>588.1</ele>
        <time>2012-10-13T07:20:35Z</time>
      </trkpt>
      <trkpt lat="43.9421" lon="7.09129">
        <ele>587.2</ele>
        <time>2012-10-13T07:20:42Z</time>
      </trkpt>
      <trkpt lat="43.9421" lon="7.09127">
        <ele>587.9</ele>
        <time>2012-10-13T07:20:49Z</time>
      </trkpt>
      <trkpt lat="43.94208" lon="7.09126">
        <ele>592.4</ele>
        <time>2012-10-13T07:21:18Z</time>
      </trkpt>
      <trkpt lat="43.94209" lon="7.09125">
        <ele>591.7</ele>
        <time>2012-10-13T07:21:26Z</time>
      </trkpt>
      <trkpt lat="43.94212" lon="7.09117">
        <ele>589.6</ele>
        <time>2012-10-13T07:21:34Z</time>
      </trkpt>
      <trkpt lat="43.94215" lon="7.09113">
        <ele>586.7</ele>
        <time>2012-10-13T07:21:39Z</time>
      </trkpt>
      <trkpt lat="43.94222" lon="7.09105">
        <ele>582.3</ele>
        <time>2012-10-13T07:21:47Z</time>
      </trkpt>
      <trkpt lat="43.94223" lon="7.09101">
        <ele>582.9</ele>
        <time>2012-10-13T07:21:51Z</time>
      </trkpt>
      <trkpt lat="43.94228" lon="7.09092">
        <ele>585.2</ele>
        <time>2012-10-13T07:22:00Z</time>
      </trkpt>
      <trkpt lat="43.94231" lon="7.09086">
        <ele>587.4</ele>
        <time>2012-10-13T07:22:06Z</time>
      </trkpt>
      <trkpt lat="43.94234" lon="7.09072">
        <ele>597.6</ele>
        <time>2012-10-13T07:22:22Z</time>
      </trkpt>
      <trkpt lat="43.94239" lon="7.09061">
        <ele>595.8</ele>
        <time>2012-10-13T07:22:31Z</time>
      </trkpt>
      <trkpt lat="43.94242" lon="7.09051">
        <ele>596.1</ele>
        <time>2012-10-13T07:22:39Z</time>
      </trkpt>
      <trkpt lat="43.94242" lon="7.09042">
        <ele>601</ele>
        <time>2012-10-13T07:22:49Z</time>
      </trkpt>
      <trkpt lat="43.94245" lon="7.09036">
        <ele>602</ele>
        <time>2012-10-13T07:22:55Z</time>
      </trkpt>
      <trkpt lat="43.94248" lon="7.09026">
        <ele>602.8</ele>
        <time>2012-10-13T07:23:03Z</time>
      </trkpt>
      <trkpt lat="43.94248" lon="7.09019">
        <ele>603.8</ele>
        <time>2012-10-13T07:23:10Z</time>
      </trkpt>
      <trkpt lat="43.94249" lon="7.09018">
        <ele>604</ele>
        <time>2012-10-13T07:23:11Z</time>
      </trkpt>
      <trkpt lat="43.9425" lon="7.09013">
        <ele>604.4</ele>
        <time>2012-10-13T07:23:16Z</time>
      </trkpt>
      <trkpt lat="43.94256" lon="7.09005">
        <ele>605.9</ele>
        <time>2012-10-13T07:23:25Z</time>
      </trkpt>
      <trkpt lat="43.94264" lon="7.08988">
        <ele>604.5</ele>
        <time>2012-10-13T07:23:39Z</time>
      </trkpt>
      <trkpt lat="43.94283" lon="7.08971">
        <ele>607.3</ele>
        <time>2012-10-13T07:24:04Z</time>
      </trkpt>
      <trkpt lat="43.94296" lon="7.08961">
        <ele>611.2</ele>
        <time>2012-10-13T07:24:17Z</time>
      </trkpt>
      <trkpt lat="43.94301" lon="7.08956">
        <ele>613.2</ele>
        <time>2012-10-13T07:24:24Z</time>
      </trkpt>
      <trkpt lat="43.94304" lon="7.08955">
        <ele>616.7</ele>
        <time>2012-10-13T07:24:30Z</time>
      </trkpt>
      <trkpt lat="43.94308" lon="7.08956">
        <ele>622.5</ele>
        <time>2012-10-13T07:24:37Z</time>
      </trkpt>
      <trkpt lat="43.94323" lon="7.08942">
        <ele>615.3</ele>
        <time>2012-10-13T07:24:56Z</time>
      </trkpt>
      <trkpt lat="43.94327" lon="7.08937">
        <ele>623.6</ele>
        <time>2012-10-13T07:25:08Z</time>
      </trkpt>
      <trkpt lat="43.94338" lon="7.08923">
        <ele>622.1</ele>
        <time>2012-10-13T07:25:27Z</time>
      </trkpt>
      <trkpt lat="43.94343" lon="7.08922">
        <ele>623.6</ele>
        <time>2012-10-13T07:25:34Z</time>
      </trkpt>
      <trkpt lat="43.94348" lon="7.08918">
        <ele>624.6</ele>
        <time>2012-10-13T07:25:41Z</time>
      </trkpt>
      <trkpt lat="43.9435" lon="7.08915">
        <ele>630.4</ele>
        <time>2012-10-13T07:25:49Z</time>
      </trkpt>
      <trkpt lat="43.94355" lon="7.08912">
        <ele>628.8</ele>
        <time>2012-10-13T07:25:54Z</time>
      </trkpt>
      <trkpt lat="43.94357" lon="7.08908">
        <ele>627.9</ele>
        <time>2012-10-13T07:25:58Z</time>
      </trkpt>
      <trkpt lat="43.94359" lon="7.08904">
        <ele>632.2</ele>
        <time>2012-10-13T07:26:03Z</time>
      </trkpt>
      <trkpt lat="43.94361" lon="7.08901">
        <ele>635.7</ele>
        <time>2012-10-13T07:26:07Z</time>
      </trkpt>
      <trkpt lat="43.94364" lon="7.08896">
        <ele>636</ele>
        <time>2012-10-13T07:26:12Z</time>
      </trkpt>
      <trkpt lat="43.94374" lon="7.08886">
        <ele>638.8</ele>
        <time>2012-10-13T07:26:27Z</time>
      </trkpt>
      <trkpt lat="43.94379" lon="7.08875">
        <ele>638.1</ele>
        <time>2012-10-13T07:26:40Z</time>
      </trkpt>
      <trkpt lat="43.94385" lon="7.08867">
        <ele>642.7</ele>
        <time>2012-10-13T07:26:51Z</time>
      </trkpt>
      <trkpt lat="43.94392" lon="7.08861">
        <ele>638.5</ele>
        <time>2012-10-13T07:26:56Z</time>
      </trkpt>
      <trkpt lat="43.94399" lon="7.08851">
        <ele>634.8</ele>
        <time>2012-10-13T07:27:06Z</time>
      </trkpt>
      <trkpt lat="43.94401" lon="7.08851">
        <ele>637.8</ele>
        <time>2012-10-13T07:27:11Z</time>
      </trkpt>
      <trkpt lat="43.94411" lon="7.08837">
        <ele>639.5</ele>
        <time>2012-10-13T07:27:28Z</time>
      </trkpt>
      <trkpt lat="43.94414" lon="7.08835">
        <ele>643.1</ele>
        <time>2012-10-13T07:27:33Z</time>
      </trkpt>
      <trkpt lat="43.94418" lon="7.08831">
        <ele>645</ele>
        <time>2012-10-13T07:27:39Z</time>
      </trkpt>
      <trkpt lat="43.94422" lon="7.08829">
        <ele>647.1</ele>
        <time>2012-10-13T07:27:46Z</time>
      </trkpt>
      <trkpt lat="43.9444" lon="7.08813">
        <ele>644</ele>
        <time>2012-10-13T07:28:07Z</time>
      </trkpt>
      <trkpt lat="43.94445" lon="7.0881">
        <ele>646.9</ele>
        <time>2012-10-13T07:28:14Z</time>
      </trkpt>
      <trkpt lat="43.94454" lon="7.08806">
        <ele>647.2</ele>
        <time>2012-10-13T07:28:23Z</time>
      </trkpt>
      <trkpt lat="43.94462" lon="7.08803">
        <ele>651.8</ele>
        <time>2012-10-13T07:28:35Z</time>
      </trkpt>
      <trkpt lat="43.94469" lon="7.08805">
        <ele>654</ele>
        <time>2012-10-13T07:28:41Z</time>
      </trkpt>
      <trkpt lat="43.9447" lon="7.08805">
        <ele>654.9</ele>
        <time>2012-10-13T07:28:42Z</time>
      </trkpt>
      <trkpt lat="43.94479" lon="7.08803">
        <ele>652.8</ele>
        <time>2012-10-13T07:28:55Z</time>
      </trkpt>
      <trkpt lat="43.94484" lon="7.08802">
        <ele>664.2</ele>
        <time>2012-10-13T07:31:55Z</time>
      </trkpt>
      <trkpt lat="43.94494" lon="7.08804">
        <ele>671.9</ele>
        <time>2012-10-13T07:32:02Z</time>
      </trkpt>
      <trkpt lat="43.94504" lon="7.08804">
        <ele>670</ele>
        <time>2012-10-13T07:32:07Z</time>
      </trkpt>
      <trkpt lat="43.94518" lon="7.08809">
        <ele>672.1</ele>
        <time>2012-10-13T07:32:14Z</time>
      </trkpt>
      <trkpt lat="43.94521" lon="7.08812">
        <ele>673.6</ele>
        <time>2012-10-13T07:32:16Z</time>
      </trkpt>
      <trkpt lat="43.9453" lon="7.08813">
        <ele>673.6</ele>
        <time>2012-10-13T07:32:21Z</time>
      </trkpt>
      <trkpt lat="43.94544" lon="7.0882">
        <ele>674.4</ele>
        <time>2012-10-13T07:32:30Z</time>
      </trkpt>
      <trkpt lat="43.94551" lon="7.08809">
        <ele>671.8</ele>
        <time>2012-10-13T07:32:36Z</time>
      </trkpt>
      <trkpt lat="43.94556" lon="7.08779">
        <ele>686.8</ele>
        <time>2012-10-13T07:32:54Z</time>
      </trkpt>
      <trkpt lat="43.9457" lon="7.08766">
        <ele>681.1</ele>
        <time>2012-10-13T07:33:02Z</time>
      </trkpt>
      <trkpt lat="43.94595" lon="7.08746">
        <ele>669.4</ele>
        <time>2012-10-13T07:33:15Z</time>
      </trkpt>
      <trkpt lat="43.94601" lon="7.08741">
        <ele>667.7</ele>
        <time>2012-10-13T07:33:21Z</time>
      </trkpt>
      <trkpt lat="43.94603" lon="7.08738">
        <ele>676.6</ele>
        <time>2012-10-13T07:33:28Z</time>
      </trkpt>
      <trkpt lat="43.9461" lon="7.08736">
        <ele>683</ele>
        <time>2012-10-13T07:33:36Z</time>
      </trkpt>
      <trkpt lat="43.94615" lon="7.08747">
        <ele>693.8</ele>
        <time>2012-10-13T07:33:44Z</time>
      </trkpt>
      <trkpt lat="43.94621" lon="7.08747">
        <ele>695.8</ele>
        <time>2012-10-13T07:33:49Z</time>
      </trkpt>
      <trkpt lat="43.9462" lon="7.08747">
        <ele>698.8</ele>
        <time>2012-10-13T07:33:59Z</time>
      </trkpt>
      <trkpt lat="43.94626" lon="7.08741">
        <ele>698.9</ele>
        <time>2012-10-13T07:34:06Z</time>
      </trkpt>
      <trkpt lat="43.94627" lon="7.08739">
        <ele>698.3</ele>
        <time>2012-10-13T07:34:14Z</time>
      </trkpt>
      <trkpt lat="43.94632" lon="7.08734">
        <ele>688.9</ele>
        <time>2012-10-13T07:35:00Z</time>
      </trkpt>
      <trkpt lat="43.94642" lon="7.08712">
        <ele>683.5</ele>
        <time>2012-10-13T07:35:10Z</time>
      </trkpt>
      <trkpt lat="43.94652" lon="7.08695">
        <ele>681.2</ele>
        <time>2012-10-13T07:35:17Z</time>
      </trkpt>
      <trkpt lat="43.94653" lon="7.08691">
        <ele>681.5</ele>
        <time>2012-10-13T07:35:19Z</time>
      </trkpt>
      <trkpt lat="43.94662" lon="7.08687">
        <ele>681.9</ele>
        <time>2012-10-13T07:35:25Z</time>
      </trkpt>
      <trkpt lat="43.94663" lon="7.08685">
        <ele>681.3</ele>
        <time>2012-10-13T07:35:28Z</time>
      </trkpt>
      <trkpt lat="43.94662" lon="7.08678">
        <ele>680.2</ele>
        <time>2012-10-13T07:35:34Z</time>
      </trkpt>
      <trkpt lat="43.94675" lon="7.08682">
        <ele>680.1</ele>
        <time>2012-10-13T07:35:40Z</time>
      </trkpt>
      <trkpt lat="43.94688" lon="7.08694">
        <ele>686.4</ele>
        <time>2012-10-13T07:35:46Z</time>
      </trkpt>
      <trkpt lat="43.94693" lon="7.08695">
        <ele>687.9</ele>
        <time>2012-10-13T07:35:48Z</time>
      </trkpt>
      <trkpt lat="43.94708" lon="7.0869">
        <ele>684.3</ele>
        <time>2012-10-13T07:35:54Z</time>
      </trkpt>
      <trkpt lat="43.9474" lon="7.08616">
        <ele>693.4</ele>
        <time>2012-10-13T07:36:27Z</time>
      </trkpt>
      <trkpt lat="43.94745" lon="7.08602">
        <ele>694.2</ele>
        <time>2012-10-13T07:36:34Z</time>
      </trkpt>
      <trkpt lat="43.94753" lon="7.08588">
        <ele>699.3</ele>
        <time>2012-10-13T07:36:41Z</time>
      </trkpt>
      <trkpt lat="43.94759" lon="7.0858">
        <ele>709.3</ele>
        <time>2012-10-13T07:36:47Z</time>
      </trkpt>
      <trkpt lat="43.9477" lon="7.08569">
        <ele>719.3</ele>
        <time>2012-10-13T07:36:54Z</time>
      </trkpt>
      <trkpt lat="43.9479" lon="7.08545">
        <ele>724.5</ele>
        <time>2012-10-13T07:37:09Z</time>
      </trkpt>
      <trkpt lat="43.94798" lon="7.08537">
        <ele>725.9</ele>
        <time>2012-10-13T07:37:15Z</time>
      </trkpt>
      <trkpt lat="43.94833" lon="7.08515">
        <ele>720.8</ele>
        <time>2012-10-13T07:37:37Z</time>
      </trkpt>
      <trkpt lat="43.94852" lon="7.085">
        <ele>716.4</ele>
        <time>2012-10-13T07:37:48Z</time>
      </trkpt>
      <trkpt lat="43.94859" lon="7.08488">
        <ele>715</ele>
        <time>2012-10-13T07:37:54Z</time>
      </trkpt>
      <trkpt lat="43.94882" lon="7.08474">
        <ele>712.9</ele>
        <time>2012-10-13T07:38:05Z</time>
      </trkpt>
      <trkpt lat="43.94899" lon="7.08468">
        <ele>715.2</ele>
        <time>2012-10-13T07:38:14Z</time>
      </trkpt>
      <trkpt lat="43.94917" lon="7.08468">
        <ele>720.1</ele>
        <time>2012-10-13T07:38:27Z</time>
      </trkpt>
      <trkpt lat="43.94918" lon="7.08468">
        <ele>719.6</ele>
        <time>2012-10-13T07:38:34Z</time>
      </trkpt>
      <trkpt lat="43.94928" lon="7.08467">
        <ele>711.8</ele>
        <time>2012-10-13T07:38:41Z</time>
      </trkpt>
      <trkpt lat="43.9495" lon="7.08476">
        <ele>706.8</ele>
        <time>2012-10-13T07:38:50Z</time>
      </trkpt>
      <trkpt lat="43.94959" lon="7.08485">
        <ele>711.5</ele>
        <time>2012-10-13T07:38:56Z</time>
      </trkpt>
      <trkpt lat="43.9496" lon="7.08488">
        <ele>715</ele>
        <time>2012-10-13T07:38:57Z</time>
      </trkpt>
      <trkpt lat="43.94966" lon="7.08496">
        <ele>718.4</ele>
        <time>2012-10-13T07:39:02Z</time>
      </trkpt>
      <trkpt lat="43.94974" lon="7.08496">
        <ele>717.9</ele>
        <time>2012-10-13T07:39:06Z</time>
      </trkpt>
      <trkpt lat="43.9499" lon="7.08501">
        <ele>716.8</ele>
        <time>2012-10-13T07:39:14Z</time>
      </trkpt>
      <trkpt lat="43.95007" lon="7.08492">
        <ele>715.2</ele>
        <time>2012-10-13T07:39:23Z</time>
      </trkpt>
      <trkpt lat="43.9503" lon="7.08467">
        <ele>716.2</ele>
        <time>2012-10-13T07:39:37Z</time>
      </trkpt>
      <trkpt lat="43.95038" lon="7.08472">
        <ele>714.5</ele>
        <time>2012-10-13T07:39:42Z</time>
      </trkpt>
      <trkpt lat="43.95044" lon="7.08482">
        <ele>711.9</ele>
        <time>2012-10-13T07:39:47Z</time>
      </trkpt>
      <trkpt lat="43.9505" lon="7.08485">
        <ele>710.6</ele>
        <time>2012-10-13T07:39:51Z</time>
      </trkpt>
      <trkpt lat="43.95064" lon="7.08486">
        <ele>705.5</ele>
        <time>2012-10-13T07:39:58Z</time>
      </trkpt>
      <trkpt lat="43.95066" lon="7.08484">
        <ele>702.6</ele>
        <time>2012-10-13T07:40:05Z</time>
      </trkpt>
      <trkpt lat="43.95084" lon="7.08517">
        <ele>715.3</ele>
        <time>2012-10-13T07:40:19Z</time>
      </trkpt>
      <trkpt lat="43.95103" lon="7.08538">
        <ele>715.2</ele>
        <time>2012-10-13T07:40:30Z</time>
      </trkpt>
      <trkpt lat="43.95113" lon="7.08547">
        <ele>714.4</ele>
        <time>2012-10-13T07:40:36Z</time>
      </trkpt>
      <trkpt lat="43.95133" lon="7.08559">
        <ele>715.2</ele>
        <time>2012-10-13T07:40:47Z</time>
      </trkpt>
      <trkpt lat="43.9514" lon="7.08562">
        <ele>717.2</ele>
        <time>2012-10-13T07:40:52Z</time>
      </trkpt>
      <trkpt lat="43.95149" lon="7.08563">
        <ele>719.3</ele>
        <time>2012-10-13T07:40:57Z</time>
      </trkpt>
      <trkpt lat="43.95157" lon="7.08567">
        <ele>720.4</ele>
        <time>2012-10-13T07:41:01Z</time>
      </trkpt>
      <trkpt lat="43.95164" lon="7.08574">
        <ele>730.1</ele>
        <time>2012-10-13T07:41:07Z</time>
      </trkpt>
      <trkpt lat="43.95176" lon="7.08576">
        <ele>732.1</ele>
        <time>2012-10-13T07:41:13Z</time>
      </trkpt>
      <trkpt lat="43.9519" lon="7.0857">
        <ele>722.8</ele>
        <time>2012-10-13T07:41:19Z</time>
      </trkpt>
      <trkpt lat="43.95205" lon="7.08572">
        <ele>721.7</ele>
        <time>2012-10-13T07:41:26Z</time>
      </trkpt>
      <trkpt lat="43.95218" lon="7.08572">
        <ele>720</ele>
        <time>2012-10-13T07:41:32Z</time>
      </trkpt>
      <trkpt lat="43.95229" lon="7.08574">
        <ele>721.1</ele>
        <time>2012-10-13T07:41:38Z</time>
      </trkpt>
      <trkpt lat="43.9524" lon="7.08574">
        <ele>720.8</ele>
        <time>2012-10-13T07:41:43Z</time>
      </trkpt>
      <trkpt lat="43.95245" lon="7.08576">
        <ele>722.1</ele>
        <time>2012-10-13T07:41:46Z</time>
      </trkpt>
      <trkpt lat="43.9525" lon="7.0859">
        <ele>725.1</ele>
        <time>2012-10-13T07:41:52Z</time>
      </trkpt>
      <trkpt lat="43.95251" lon="7.08591">
        <ele>723.9</ele>
        <time>2012-10-13T07:41:53Z</time>
      </trkpt>
      <trkpt lat="43.95253" lon="7.08601">
        <ele>723.7</ele>
        <time>2012-10-13T07:41:57Z</time>
      </trkpt>
      <trkpt lat="43.9526" lon="7.08619">
        <ele>722.4</ele>
        <time>2012-10-13T07:42:05Z</time>
      </trkpt>
      <trkpt lat="43.95268" lon="7.08634">
        <ele>723.4</ele>
        <time>2012-10-13T07:42:11Z</time>
      </trkpt>
      <trkpt lat="43.95274" lon="7.08649">
        <ele>724</ele>
        <time>2012-10-13T07:42:17Z</time>
      </trkpt>
      <trkpt lat="43.95281" lon="7.08661">
        <ele>720.3</ele>
        <time>2012-10-13T07:42:23Z</time>
      </trkpt>
      <trkpt lat="43.95283" lon="7.0867">
        <ele>720.6</ele>
        <time>2012-10-13T07:42:26Z</time>
      </trkpt>
      <trkpt lat="43.95293" lon="7.08675">
        <ele>718.8</ele>
        <time>2012-10-13T07:42:32Z</time>
      </trkpt>
      <trkpt lat="43.95303" lon="7.08668">
        <ele>718.3</ele>
        <time>2012-10-13T07:42:36Z</time>
      </trkpt>
      <trkpt lat="43.95315" lon="7.08654">
        <ele>723.1</ele>
        <time>2012-10-13T07:42:49Z</time>
      </trkpt>
      <trkpt lat="43.95325" lon="7.0865">
        <ele>722.1</ele>
        <time>2012-10-13T07:43:05Z</time>
      </trkpt>
      <trkpt lat="43.9533" lon="7.08648">
        <ele>722.4</ele>
        <time>2012-10-13T07:43:09Z</time>
      </trkpt>
      <trkpt lat="43.95337" lon="7.08649">
        <ele>722.3</ele>
        <time>2012-10-13T07:43:13Z</time>
      </trkpt>
      <trkpt lat="43.95348" lon="7.08637">
        <ele>725.5</ele>
        <time>2012-10-13T07:43:21Z</time>
      </trkpt>
      <trkpt lat="43.9536" lon="7.08617">
        <ele>727.1</ele>
        <time>2012-10-13T07:43:30Z</time>
      </trkpt>
      <trkpt lat="43.95378" lon="7.08601">
        <ele>731.4</ele>
        <time>2012-10-13T07:43:43Z</time>
      </trkpt>
      <trkpt lat="43.9539" lon="7.08597">
        <ele>732.2</ele>
        <time>2012-10-13T07:43:49Z</time>
      </trkpt>
      <trkpt lat="43.95399" lon="7.08598">
        <ele>735.1</ele>
        <time>2012-10-13T07:43:54Z</time>
      </trkpt>
      <trkpt lat="43.95413" lon="7.0859">
        <ele>733.2</ele>
        <time>2012-10-13T07:44:01Z</time>
      </trkpt>
      <trkpt lat="43.95429" lon="7.08571">
        <ele>734.7</ele>
        <time>2012-10-13T07:44:11Z</time>
      </trkpt>
      <trkpt lat="43.95435" lon="7.08577">
        <ele>744.5</ele>
        <time>2012-10-13T07:44:16Z</time>
      </trkpt>
      <trkpt lat="43.95449" lon="7.08572">
        <ele>743.5</ele>
        <time>2012-10-13T07:44:23Z</time>
      </trkpt>
      <trkpt lat="43.9548" lon="7.08553">
        <ele>729.9</ele>
        <time>2012-10-13T07:44:35Z</time>
      </trkpt>
      <trkpt lat="43.95496" lon="7.08532">
        <ele>730.5</ele>
        <time>2012-10-13T07:44:46Z</time>
      </trkpt>
      <trkpt lat="43.95498" lon="7.0853">
        <ele>730.3</ele>
        <time>2012-10-13T07:44:47Z</time>
      </trkpt>
      <trkpt lat="43.95503" lon="7.08523">
        <ele>733.4</ele>
        <time>2012-10-13T07:44:52Z</time>
      </trkpt>
      <trkpt lat="43.95508" lon="7.0852">
        <ele>735.1</ele>
        <time>2012-10-13T07:44:58Z</time>
      </trkpt>
      <trkpt lat="43.95512" lon="7.08515">
        <ele>733.7</ele>
        <time>2012-10-13T07:45:01Z</time>
      </trkpt>
      <trkpt lat="43.95515" lon="7.08518">
        <ele>740.1</ele>
        <time>2012-10-13T07:45:07Z</time>
      </trkpt>
      <trkpt lat="43.95519" lon="7.08521">
        <ele>746.2</ele>
        <time>2012-10-13T07:45:14Z</time>
      </trkpt>
      <trkpt lat="43.95524" lon="7.0852">
        <ele>743.2</ele>
        <time>2012-10-13T07:45:19Z</time>
      </trkpt>
      <trkpt lat="43.95528" lon="7.0852">
        <ele>755.7</ele>
        <time>2012-10-13T07:45:35Z</time>
      </trkpt>
      <trkpt lat="43.95529" lon="7.08521">
        <ele>758.1</ele>
        <time>2012-10-13T07:45:36Z</time>
      </trkpt>
      <trkpt lat="43.95542" lon="7.08515">
        <ele>761.8</ele>
        <time>2012-10-13T07:45:44Z</time>
      </trkpt>
      <trkpt lat="43.95554" lon="7.08518">
        <ele>762.3</ele>
        <time>2012-10-13T07:45:50Z</time>
      </trkpt>
      <trkpt lat="43.95565" lon="7.0851">
        <ele>760.3</ele>
        <time>2012-10-13T07:45:56Z</time>
      </trkpt>
      <trkpt lat="43.95574" lon="7.08513">
        <ele>757.6</ele>
        <time>2012-10-13T07:46:01Z</time>
      </trkpt>
      <trkpt lat="43.95583" lon="7.08528">
        <ele>751.3</ele>
        <time>2012-10-13T07:46:09Z</time>
      </trkpt>
      <trkpt lat="43.95581" lon="7.08526">
        <ele>742</ele>
        <time>2012-10-13T07:46:15Z</time>
      </trkpt>
      <trkpt lat="43.95581" lon="7.08514">
        <ele>716.4</ele>
        <time>2012-10-13T07:46:21Z</time>
      </trkpt>
      <trkpt lat="43.95583" lon="7.08527">
        <ele>727.3</ele>
        <time>2012-10-13T07:46:24Z</time>
      </trkpt>
      <trkpt lat="43.95591" lon="7.08547">
        <ele>742.6</ele>
        <time>2012-10-13T07:46:29Z</time>
      </trkpt>
      <trkpt lat="43.95601" lon="7.08547">
        <ele>748</ele>
        <time>2012-10-13T07:46:34Z</time>
      </trkpt>
      <trkpt lat="43.95615" lon="7.08531">
        <ele>738.3</ele>
        <time>2012-10-13T07:46:40Z</time>
      </trkpt>
      <trkpt lat="43.95628" lon="7.08526">
        <ele>738.8</ele>
        <time>2012-10-13T07:46:46Z</time>
      </trkpt>
      <trkpt lat="43.9564" lon="7.08526">
        <ele>741.6</ele>
        <time>2012-10-13T07:46:52Z</time>
      </trkpt>
      <trkpt lat="43.95656" lon="7.08522">
        <ele>738.9</ele>
        <time>2012-10-13T07:46:58Z</time>
      </trkpt>
      <trkpt lat="43.95666" lon="7.08512">
        <ele>736.6</ele>
        <time>2012-10-13T07:47:02Z</time>
      </trkpt>
      <trkpt lat="43.95674" lon="7.08514">
        <ele>740.7</ele>
        <time>2012-10-13T07:47:06Z</time>
      </trkpt>
      <trkpt lat="43.95704" lon="7.08512">
        <ele>736.7</ele>
        <time>2012-10-13T07:47:18Z</time>
      </trkpt>
      <trkpt lat="43.95718" lon="7.08513">
        <ele>735</ele>
        <time>2012-10-13T07:47:24Z</time>
      </trkpt>
      <trkpt lat="43.9573" lon="7.08507">
        <ele>736.5</ele>
        <time>2012-10-13T07:47:30Z</time>
      </trkpt>
      <trkpt lat="43.9575" lon="7.08477">
        <ele>733.5</ele>
        <time>2012-10-13T07:47:44Z</time>
      </trkpt>
      <trkpt lat="43.95752" lon="7.08476">
        <ele>736</ele>
        <time>2012-10-13T07:47:50Z</time>
      </trkpt>
      <trkpt lat="43.95749" lon="7.08481">
        <ele>741</ele>
        <time>2012-10-13T07:49:56Z</time>
      </trkpt>
      <trkpt lat="43.95756" lon="7.08467">
        <ele>729.9</ele>
        <time>2012-10-13T07:50:23Z</time>
      </trkpt>
      <trkpt lat="43.95766" lon="7.08427">
        <ele>728.3</ele>
        <time>2012-10-13T07:50:37Z</time>
      </trkpt>
      <trkpt lat="43.95773" lon="7.08412">
        <ele>728.1</ele>
        <time>2012-10-13T07:50:43Z</time>
      </trkpt>
      <trkpt lat="43.95774" lon="7.08397">
        <ele>727.6</ele>
        <time>2012-10-13T07:50:48Z</time>
      </trkpt>
      <trkpt lat="43.95778" lon="7.0838">
        <ele>728</ele>
        <time>2012-10-13T07:50:54Z</time>
      </trkpt>
      <trkpt lat="43.95785" lon="7.08368">
        <ele>731</ele>
        <time>2012-10-13T07:51:00Z</time>
      </trkpt>
      <trkpt lat="43.95795" lon="7.08372">
        <ele>736.2</ele>
        <time>2012-10-13T07:51:05Z</time>
      </trkpt>
      <trkpt lat="43.95812" lon="7.08373">
        <ele>736.6</ele>
        <time>2012-10-13T07:51:11Z</time>
      </trkpt>
      <trkpt lat="43.95828" lon="7.08361">
        <ele>738.4</ele>
        <time>2012-10-13T07:51:18Z</time>
      </trkpt>
      <trkpt lat="43.95845" lon="7.0834">
        <ele>740.5</ele>
        <time>2012-10-13T07:51:29Z</time>
      </trkpt>
      <trkpt lat="43.95847" lon="7.08331">
        <ele>741.8</ele>
        <time>2012-10-13T07:51:33Z</time>
      </trkpt>
      <trkpt lat="43.95855" lon="7.08326">
        <ele>744.7</ele>
        <time>2012-10-13T07:51:38Z</time>
      </trkpt>
      <trkpt lat="43.95861" lon="7.08331">
        <ele>747.8</ele>
        <time>2012-10-13T07:51:42Z</time>
      </trkpt>
      <trkpt lat="43.95863" lon="7.08334">
        <ele>748.2</ele>
        <time>2012-10-13T07:51:43Z</time>
      </trkpt>
      <trkpt lat="43.95871" lon="7.08348">
        <ele>750.6</ele>
        <time>2012-10-13T07:51:49Z</time>
      </trkpt>
      <trkpt lat="43.95883" lon="7.08347">
        <ele>745.8</ele>
        <time>2012-10-13T07:51:54Z</time>
      </trkpt>
      <trkpt lat="43.95906" lon="7.08317">
        <ele>747.1</ele>
        <time>2012-10-13T07:52:08Z</time>
      </trkpt>
      <trkpt lat="43.95916" lon="7.08311">
        <ele>751.9</ele>
        <time>2012-10-13T07:52:14Z</time>
      </trkpt>
      <trkpt lat="43.95925" lon="7.08315">
        <ele>752.7</ele>
        <time>2012-10-13T07:52:19Z</time>
      </trkpt>
      <trkpt lat="43.95929" lon="7.08314">
        <ele>752.9</ele>
        <time>2012-10-13T07:52:21Z</time>
      </trkpt>
      <trkpt lat="43.95937" lon="7.08311">
        <ele>752.2</ele>
        <time>2012-10-13T07:52:25Z</time>
      </trkpt>
      <trkpt lat="43.95946" lon="7.08313">
        <ele>751.5</ele>
        <time>2012-10-13T07:52:29Z</time>
      </trkpt>
      <trkpt lat="43.9596" lon="7.08311">
        <ele>749.6</ele>
        <time>2012-10-13T07:52:35Z</time>
      </trkpt>
      <trkpt lat="43.95973" lon="7.08305">
        <ele>750.7</ele>
        <time>2012-10-13T07:52:41Z</time>
      </trkpt>
      <trkpt lat="43.95986" lon="7.08297">
        <ele>748.7</ele>
        <time>2012-10-13T07:52:47Z</time>
      </trkpt>
      <trkpt lat="43.95996" lon="7.08301">
        <ele>749.6</ele>
        <time>2012-10-13T07:52:52Z</time>
      </trkpt>
      <trkpt lat="43.95999" lon="7.0831">
        <ele>763.1</ele>
        <time>2012-10-13T07:52:56Z</time>
      </trkpt>
      <trkpt lat="43.96005" lon="7.08313">
        <ele>765.4</ele>
        <time>2012-10-13T07:52:59Z</time>
      </trkpt>
      <trkpt lat="43.96005" lon="7.08326">
        <ele>766.1</ele>
        <time>2012-10-13T07:53:06Z</time>
      </trkpt>
      <trkpt lat="43.96011" lon="7.0832">
        <ele>753.7</ele>
        <time>2012-10-13T07:53:13Z</time>
      </trkpt>
      <trkpt lat="43.96008" lon="7.08348">
        <ele>754.8</ele>
        <time>2012-10-13T07:53:39Z</time>
      </trkpt>
      <trkpt lat="43.96005" lon="7.08354">
        <ele>750.2</ele>
        <time>2012-10-13T07:53:44Z</time>
      </trkpt>
      <trkpt lat="43.9601" lon="7.08356">
        <ele>748</ele>
        <time>2012-10-13T07:53:46Z</time>
      </trkpt>
      <trkpt lat="43.96027" lon="7.08362">
        <ele>745.9</ele>
        <time>2012-10-13T07:53:52Z</time>
      </trkpt>
      <trkpt lat="43.96028" lon="7.08362">
        <ele>745.6</ele>
        <time>2012-10-13T07:53:57Z</time>
      </trkpt>
      <trkpt lat="43.96062" lon="7.08387">
        <ele>739.1</ele>
        <time>2012-10-13T07:54:12Z</time>
      </trkpt>
      <trkpt lat="43.96074" lon="7.08399">
        <ele>739.7</ele>
        <time>2012-10-13T07:54:16Z</time>
      </trkpt>
      <trkpt lat="43.9609" lon="7.08412">
        <ele>737.8</ele>
        <time>2012-10-13T07:54:21Z</time>
      </trkpt>
      <trkpt lat="43.96105" lon="7.08425">
        <ele>730.8</ele>
        <time>2012-10-13T07:54:26Z</time>
      </trkpt>
      <trkpt lat="43.96113" lon="7.08463">
        <ele>721.8</ele>
        <time>2012-10-13T07:54:35Z</time>
      </trkpt>
      <trkpt lat="43.96123" lon="7.08472">
        <ele>718.7</ele>
        <time>2012-10-13T07:54:40Z</time>
      </trkpt>
      <trkpt lat="43.96128" lon="7.08469">
        <ele>710.5</ele>
        <time>2012-10-13T07:55:05Z</time>
      </trkpt>
      <trkpt lat="43.96133" lon="7.08468">
        <ele>709.1</ele>
        <time>2012-10-13T07:55:09Z</time>
      </trkpt>
      <trkpt lat="43.96144" lon="7.08468">
        <ele>709</ele>
        <time>2012-10-13T07:55:15Z</time>
      </trkpt>
      <trkpt lat="43.96154" lon="7.08478">
        <ele>712.4</ele>
        <time>2012-10-13T07:55:19Z</time>
      </trkpt>
      <trkpt lat="43.96164" lon="7.08491">
        <ele>713.1</ele>
        <time>2012-10-13T07:55:24Z</time>
      </trkpt>
      <trkpt lat="43.96171" lon="7.08502">
        <ele>712.3</ele>
        <time>2012-10-13T07:55:27Z</time>
      </trkpt>
      <trkpt lat="43.96189" lon="7.08517">
        <ele>720.1</ele>
        <time>2012-10-13T07:55:33Z</time>
      </trkpt>
      <trkpt lat="43.96198" lon="7.08528">
        <ele>723.6</ele>
        <time>2012-10-13T07:55:39Z</time>
      </trkpt>
      <trkpt lat="43.96211" lon="7.08537">
        <ele>720</ele>
        <time>2012-10-13T07:55:44Z</time>
      </trkpt>
      <trkpt lat="43.96214" lon="7.08536">
        <ele>718.1</ele>
        <time>2012-10-13T07:55:45Z</time>
      </trkpt>
      <trkpt lat="43.96229" lon="7.08524">
        <ele>708.1</ele>
        <time>2012-10-13T07:55:50Z</time>
      </trkpt>
      <trkpt lat="43.96233" lon="7.08521">
        <ele>702</ele>
        <time>2012-10-13T07:55:53Z</time>
      </trkpt>
      <trkpt lat="43.96229" lon="7.0852">
        <ele>685.2</ele>
        <time>2012-10-13T07:56:16Z</time>
      </trkpt>
      <trkpt lat="43.96225" lon="7.08526">
        <ele>686.8</ele>
        <time>2012-10-13T07:56:23Z</time>
      </trkpt>
      <trkpt lat="43.96222" lon="7.08528">
        <ele>681</ele>
        <time>2012-10-13T07:56:28Z</time>
      </trkpt>
      <trkpt lat="43.96215" lon="7.08534">
        <ele>677.3</ele>
        <time>2012-10-13T07:56:35Z</time>
      </trkpt>
      <trkpt lat="43.96219" lon="7.0854">
        <ele>692</ele>
        <time>2012-10-13T07:56:41Z</time>
      </trkpt>
      <trkpt lat="43.96219" lon="7.08541">
        <ele>693.4</ele>
        <time>2012-10-13T07:56:42Z</time>
      </trkpt>
      <trkpt lat="43.96228" lon="7.08546">
        <ele>707.8</ele>
        <time>2012-10-13T07:56:52Z</time>
      </trkpt>
      <trkpt lat="43.96233" lon="7.08544">
        <ele>710.8</ele>
        <time>2012-10-13T07:56:57Z</time>
      </trkpt>
      <trkpt lat="43.96237" lon="7.08544">
        <ele>711.5</ele>
        <time>2012-10-13T07:57:01Z</time>
      </trkpt>
      <trkpt lat="43.96245" lon="7.0854">
        <ele>712.4</ele>
        <time>2012-10-13T07:57:09Z</time>
      </trkpt>
      <trkpt lat="43.9625" lon="7.08536">
        <ele>712.3</ele>
        <time>2012-10-13T07:57:15Z</time>
      </trkpt>
      <trkpt lat="43.96252" lon="7.08536">
        <ele>713.7</ele>
        <time>2012-10-13T07:57:17Z</time>
      </trkpt>
      <trkpt lat="43.96254" lon="7.08534">
        <ele>711.5</ele>
        <time>2012-10-13T07:57:24Z</time>
      </trkpt>
      <trkpt lat="43.96257" lon="7.08532">
        <ele>713.8</ele>
        <time>2012-10-13T07:57:28Z</time>
      </trkpt>
      <trkpt lat="43.96262" lon="7.08533">
        <ele>718</ele>
        <time>2012-10-13T07:57:33Z</time>
      </trkpt>
      <trkpt lat="43.9627" lon="7.08535">
        <ele>714.2</ele>
        <time>2012-10-13T07:57:51Z</time>
      </trkpt>
      <trkpt lat="43.96278" lon="7.08533">
        <ele>715.2</ele>
        <time>2012-10-13T07:57:58Z</time>
      </trkpt>
      <trkpt lat="43.9628" lon="7.08531">
        <ele>711.8</ele>
        <time>2012-10-13T07:58:06Z</time>
      </trkpt>
      <trkpt lat="43.96284" lon="7.08528">
        <ele>712.7</ele>
        <time>2012-10-13T07:58:14Z</time>
      </trkpt>
      <trkpt lat="43.96289" lon="7.08524">
        <ele>720.8</ele>
        <time>2012-10-13T07:58:19Z</time>
      </trkpt>
      <trkpt lat="43.96289" lon="7.08523">
        <ele>722</ele>
        <time>2012-10-13T07:58:26Z</time>
      </trkpt>
      <trkpt lat="43.96297" lon="7.08521">
        <ele>724.3</ele>
        <time>2012-10-13T07:58:32Z</time>
      </trkpt>
      <trkpt lat="43.963" lon="7.08516">
        <ele>730.4</ele>
        <time>2012-10-13T07:58:38Z</time>
      </trkpt>
      <trkpt lat="43.96301" lon="7.08513">
        <ele>735.5</ele>
        <time>2012-10-13T07:58:41Z</time>
      </trkpt>
      <trkpt lat="43.96297" lon="7.08507">
        <ele>736.1</ele>
        <time>2012-10-13T07:58:48Z</time>
      </trkpt>
      <trkpt lat="43.96298" lon="7.08503">
        <ele>736.9</ele>
        <time>2012-10-13T07:58:53Z</time>
      </trkpt>
      <trkpt lat="43.96298" lon="7.08502">
        <ele>735.2</ele>
        <time>2012-10-13T07:58:55Z</time>
      </trkpt>
      <trkpt lat="43.96298" lon="7.08503">
        <ele>737.7</ele>
        <time>2012-10-13T07:59:00Z</time>
      </trkpt>
      <trkpt lat="43.96299" lon="7.08503">
        <ele>737.1</ele>
        <time>2012-10-13T07:59:02Z</time>
      </trkpt>
      <trkpt lat="43.96302" lon="7.08502">
        <ele>734.6</ele>
        <time>2012-10-13T07:59:09Z</time>
      </trkpt>
      <trkpt lat="43.96305" lon="7.08497">
        <ele>735.9</ele>
        <time>2012-10-13T07:59:16Z</time>
      </trkpt>
      <trkpt lat="43.96309" lon="7.08494">
        <ele>738.3</ele>
        <time>2012-10-13T07:59:23Z</time>
      </trkpt>
      <trkpt lat="43.96311" lon="7.08488">
        <ele>735.5</ele>
        <time>2012-10-13T07:59:32Z</time>
      </trkpt>
      <trkpt lat="43.96307" lon="7.08483">
        <ele>736.4</ele>
        <time>2012-10-13T07:59:41Z</time>
      </trkpt>
      <trkpt lat="43.96302" lon="7.08483">
        <ele>742.8</ele>
        <time>2012-10-13T07:59:47Z</time>
      </trkpt>
      <trkpt lat="43.963" lon="7.08481">
        <ele>747.7</ele>
        <time>2012-10-13T07:59:57Z</time>
      </trkpt>
      <trkpt lat="43.96298" lon="7.08475">
        <ele>747</ele>
        <time>2012-10-13T08:00:04Z</time>
      </trkpt>
      <trkpt lat="43.96297" lon="7.08461">
        <ele>744.5</ele>
        <time>2012-10-13T08:00:18Z</time>
      </trkpt>
      <trkpt lat="43.96299" lon="7.08454">
        <ele>745.6</ele>
        <time>2012-10-13T08:00:26Z</time>
      </trkpt>
      <trkpt lat="43.96303" lon="7.08446">
        <ele>747.3</ele>
        <time>2012-10-13T08:00:35Z</time>
      </trkpt>
      <trkpt lat="43.96309" lon="7.08437">
        <ele>749</ele>
        <time>2012-10-13T08:00:45Z</time>
      </trkpt>
      <trkpt lat="43.96313" lon="7.08427">
        <ele>746.4</ele>
        <time>2012-10-13T08:00:54Z</time>
      </trkpt>
      <trkpt lat="43.96325" lon="7.08405">
        <ele>743.9</ele>
        <time>2012-10-13T08:01:20Z</time>
      </trkpt>
      <trkpt lat="43.96326" lon="7.08402">
        <ele>747.6</ele>
        <time>2012-10-13T08:01:24Z</time>
      </trkpt>
      <trkpt lat="43.96327" lon="7.08402">
        <ele>753.2</ele>
        <time>2012-10-13T08:01:33Z</time>
      </trkpt>
      <trkpt lat="43.96343" lon="7.08379">
        <ele>764.5</ele>
        <time>2012-10-13T08:01:48Z</time>
      </trkpt>
      <trkpt lat="43.96349" lon="7.08373">
        <ele>766.7</ele>
        <time>2012-10-13T08:01:54Z</time>
      </trkpt>
      <trkpt lat="43.96351" lon="7.08374">
        <ele>773.7</ele>
        <time>2012-10-13T08:02:02Z</time>
      </trkpt>
      <trkpt lat="43.96358" lon="7.08373">
        <ele>776.4</ele>
        <time>2012-10-13T08:02:07Z</time>
      </trkpt>
      <trkpt lat="43.96371" lon="7.08376">
        <ele>777.4</ele>
        <time>2012-10-13T08:02:18Z</time>
      </trkpt>
      <trkpt lat="43.96376" lon="7.08376">
        <ele>774.7</ele>
        <time>2012-10-13T08:02:23Z</time>
      </trkpt>
      <trkpt lat="43.96384" lon="7.08371">
        <ele>773.4</ele>
        <time>2012-10-13T08:02:30Z</time>
      </trkpt>
      <trkpt lat="43.96409" lon="7.08361">
        <ele>771.7</ele>
        <time>2012-10-13T08:02:54Z</time>
      </trkpt>
      <trkpt lat="43.96422" lon="7.08352">
        <ele>782.3</ele>
        <time>2012-10-13T08:03:01Z</time>
      </trkpt>
      <trkpt lat="43.96446" lon="7.08347">
        <ele>809.5</ele>
        <time>2012-10-13T08:03:16Z</time>
      </trkpt>
      <trkpt lat="43.96454" lon="7.08344">
        <ele>813.5</ele>
        <time>2012-10-13T08:03:22Z</time>
      </trkpt>
      <trkpt lat="43.96459" lon="7.08344">
        <ele>814.3</ele>
        <time>2012-10-13T08:03:26Z</time>
      </trkpt>
      <trkpt lat="43.9649" lon="7.08335">
        <ele>821.7</ele>
        <time>2012-10-13T08:03:48Z</time>
      </trkpt>
      <trkpt lat="43.96497" lon="7.08336">
        <ele>821.1</ele>
        <time>2012-10-13T08:03:53Z</time>
      </trkpt>
      <trkpt lat="43.96514" lon="7.08333">
        <ele>820.8</ele>
        <time>2012-10-13T08:04:08Z</time>
      </trkpt>
      <trkpt lat="43.96521" lon="7.08328">
        <ele>822.6</ele>
        <time>2012-10-13T08:04:22Z</time>
      </trkpt>
      <trkpt lat="43.96528" lon="7.08331">
        <ele>822.4</ele>
        <time>2012-10-13T08:04:32Z</time>
      </trkpt>
      <trkpt lat="43.96542" lon="7.08327">
        <ele>828</ele>
        <time>2012-10-13T08:04:52Z</time>
      </trkpt>
      <trkpt lat="43.96544" lon="7.08335">
        <ele>814.2</ele>
        <time>2012-10-13T08:04:58Z</time>
      </trkpt>
      <trkpt lat="43.96557" lon="7.0834">
        <ele>806.1</ele>
        <time>2012-10-13T08:05:29Z</time>
      </trkpt>
      <trkpt lat="43.96563" lon="7.08342">
        <ele>810.8</ele>
        <time>2012-10-13T08:05:35Z</time>
      </trkpt>
      <trkpt lat="43.96568" lon="7.08341">
        <ele>813.6</ele>
        <time>2012-10-13T08:05:40Z</time>
      </trkpt>
      <trkpt lat="43.96574" lon="7.0834">
        <ele>816.7</ele>
        <time>2012-10-13T08:05:50Z</time>
      </trkpt>
      <trkpt lat="43.9658" lon="7.08339">
        <ele>814.2</ele>
        <time>2012-10-13T08:06:07Z</time>
      </trkpt>
      <trkpt lat="43.96585" lon="7.0834">
        <ele>810.8</ele>
        <time>2012-10-13T08:06:12Z</time>
      </trkpt>
      <trkpt lat="43.96591" lon="7.08337">
        <ele>811.7</ele>
        <time>2012-10-13T08:06:17Z</time>
      </trkpt>
      <trkpt lat="43.96593" lon="7.08338">
        <ele>811.6</ele>
        <time>2012-10-13T08:06:20Z</time>
      </trkpt>
      <trkpt lat="43.96597" lon="7.08341">
        <ele>809.8</ele>
        <time>2012-10-13T08:06:27Z</time>
      </trkpt>
      <trkpt lat="43.96603" lon="7.08342">
        <ele>811.4</ele>
        <time>2012-10-13T08:06:35Z</time>
      </trkpt>
      <trkpt lat="43.96615" lon="7.08343">
        <ele>818.1</ele>
        <time>2012-10-13T08:06:42Z</time>
      </trkpt>
      <trkpt lat="43.96621" lon="7.08347">
        <ele>814.3</ele>
        <time>2012-10-13T08:06:48Z</time>
      </trkpt>
      <trkpt lat="43.96635" lon="7.08349">
        <ele>821.8</ele>
        <time>2012-10-13T08:06:55Z</time>
      </trkpt>
      <trkpt lat="43.96652" lon="7.0835">
        <ele>831</ele>
        <time>2012-10-13T08:07:02Z</time>
      </trkpt>
      <trkpt lat="43.96663" lon="7.08354">
        <ele>832.8</ele>
        <time>2012-10-13T08:07:07Z</time>
      </trkpt>
      <trkpt lat="43.9676" lon="7.08345">
        <ele>827</ele>
        <time>2012-10-13T08:07:52Z</time>
      </trkpt>
      <trkpt lat="43.96771" lon="7.08346">
        <ele>821.3</ele>
        <time>2012-10-13T08:07:59Z</time>
      </trkpt>
      <trkpt lat="43.96773" lon="7.08346">
        <ele>822.2</ele>
        <time>2012-10-13T08:08:00Z</time>
      </trkpt>
      <trkpt lat="43.96784" lon="7.08347">
        <ele>820.8</ele>
        <time>2012-10-13T08:08:08Z</time>
      </trkpt>
      <trkpt lat="43.96797" lon="7.08357">
        <ele>823.7</ele>
        <time>2012-10-13T08:08:15Z</time>
      </trkpt>
      <trkpt lat="43.96808" lon="7.08374">
        <ele>823.4</ele>
        <time>2012-10-13T08:08:22Z</time>
      </trkpt>
      <trkpt lat="43.96811" lon="7.08394">
        <ele>823.3</ele>
        <time>2012-10-13T08:08:30Z</time>
      </trkpt>
      <trkpt lat="43.96814" lon="7.08392">
        <ele>822.6</ele>
        <time>2012-10-13T08:08:34Z</time>
      </trkpt>
      <trkpt lat="43.96815" lon="7.08381">
        <ele>819.3</ele>
        <time>2012-10-13T08:08:40Z</time>
      </trkpt>
      <trkpt lat="43.9682" lon="7.08378">
        <ele>819</ele>
        <time>2012-10-13T08:08:44Z</time>
      </trkpt>
      <trkpt lat="43.96835" lon="7.08383">
        <ele>823.5</ele>
        <time>2012-10-13T08:08:51Z</time>
      </trkpt>
      <trkpt lat="43.96843" lon="7.08388">
        <ele>826</ele>
        <time>2012-10-13T08:08:55Z</time>
      </trkpt>
      <trkpt lat="43.96849" lon="7.08397">
        <ele>834.7</ele>
        <time>2012-10-13T08:09:01Z</time>
      </trkpt>
      <trkpt lat="43.96853" lon="7.08399">
        <ele>837</ele>
        <time>2012-10-13T08:09:03Z</time>
      </trkpt>
      <trkpt lat="43.96873" lon="7.08403">
        <ele>845.6</ele>
        <time>2012-10-13T08:09:09Z</time>
      </trkpt>
      <trkpt lat="43.96884" lon="7.08412">
        <ele>839.5</ele>
        <time>2012-10-13T08:09:14Z</time>
      </trkpt>
      <trkpt lat="43.96899" lon="7.08412">
        <ele>836.7</ele>
        <time>2012-10-13T08:09:19Z</time>
      </trkpt>
      <trkpt lat="43.96934" lon="7.08424">
        <ele>829.3</ele>
        <time>2012-10-13T08:09:35Z</time>
      </trkpt>
      <trkpt lat="43.96942" lon="7.0842">
        <ele>824.4</ele>
        <time>2012-10-13T08:09:42Z</time>
      </trkpt>
      <trkpt lat="43.96945" lon="7.08419">
        <ele>821.1</ele>
        <time>2012-10-13T08:09:45Z</time>
      </trkpt>
      <trkpt lat="43.96954" lon="7.08412">
        <ele>819.8</ele>
        <time>2012-10-13T08:09:51Z</time>
      </trkpt>
      <trkpt lat="43.96956" lon="7.08408">
        <ele>823</ele>
        <time>2012-10-13T08:09:54Z</time>
      </trkpt>
      <trkpt lat="43.96961" lon="7.08399">
        <ele>826.9</ele>
        <time>2012-10-13T08:10:00Z</time>
      </trkpt>
      <trkpt lat="43.96962" lon="7.08398">
        <ele>827.3</ele>
        <time>2012-10-13T08:10:02Z</time>
      </trkpt>
      <trkpt lat="43.96975" lon="7.08393">
        <ele>835.2</ele>
        <time>2012-10-13T08:10:09Z</time>
      </trkpt>
      <trkpt lat="43.96988" lon="7.08392">
        <ele>839</ele>
        <time>2012-10-13T08:10:15Z</time>
      </trkpt>
      <trkpt lat="43.96999" lon="7.08394">
        <ele>839.2</ele>
        <time>2012-10-13T08:10:20Z</time>
      </trkpt>
      <trkpt lat="43.97008" lon="7.08404">
        <ele>845.9</ele>
        <time>2012-10-13T08:10:27Z</time>
      </trkpt>
      <trkpt lat="43.97012" lon="7.08415">
        <ele>842.2</ele>
        <time>2012-10-13T08:10:33Z</time>
      </trkpt>
      <trkpt lat="43.97012" lon="7.08416">
        <ele>840.4</ele>
        <time>2012-10-13T08:10:34Z</time>
      </trkpt>
      <trkpt lat="43.97019" lon="7.0843">
        <ele>837.4</ele>
        <time>2012-10-13T08:10:40Z</time>
      </trkpt>
      <trkpt lat="43.97025" lon="7.08439">
        <ele>838.4</ele>
        <time>2012-10-13T08:10:45Z</time>
      </trkpt>
      <trkpt lat="43.97028" lon="7.08446">
        <ele>842.1</ele>
        <time>2012-10-13T08:10:50Z</time>
      </trkpt>
      <trkpt lat="43.97034" lon="7.08454">
        <ele>844.1</ele>
        <time>2012-10-13T08:10:56Z</time>
      </trkpt>
      <trkpt lat="43.97036" lon="7.08455">
        <ele>844.9</ele>
        <time>2012-10-13T08:10:57Z</time>
      </trkpt>
      <trkpt lat="43.97044" lon="7.08455">
        <ele>848.5</ele>
        <time>2012-10-13T08:11:02Z</time>
      </trkpt>
      <trkpt lat="43.97053" lon="7.08462">
        <ele>853.3</ele>
        <time>2012-10-13T08:11:08Z</time>
      </trkpt>
      <trkpt lat="43.97066" lon="7.08465">
        <ele>853.9</ele>
        <time>2012-10-13T08:11:14Z</time>
      </trkpt>
      <trkpt lat="43.97074" lon="7.08464">
        <ele>858.9</ele>
        <time>2012-10-13T08:11:19Z</time>
      </trkpt>
      <trkpt lat="43.9709" lon="7.0847">
        <ele>863.8</ele>
        <time>2012-10-13T08:11:29Z</time>
      </trkpt>
      <trkpt lat="43.97099" lon="7.08476">
        <ele>862.4</ele>
        <time>2012-10-13T08:11:36Z</time>
      </trkpt>
      <trkpt lat="43.97107" lon="7.08479">
        <ele>856.9</ele>
        <time>2012-10-13T08:11:43Z</time>
      </trkpt>
      <trkpt lat="43.9712" lon="7.0848">
        <ele>854</ele>
        <time>2012-10-13T08:11:52Z</time>
      </trkpt>
      <trkpt lat="43.97118" lon="7.08477">
        <ele>857.9</ele>
        <time>2012-10-13T08:12:10Z</time>
      </trkpt>
      <trkpt lat="43.97123" lon="7.08474">
        <ele>859.2</ele>
        <time>2012-10-13T08:12:15Z</time>
      </trkpt>
      <trkpt lat="43.97124" lon="7.08472">
        <ele>858.9</ele>
        <time>2012-10-13T08:12:17Z</time>
      </trkpt>
      <trkpt lat="43.97132" lon="7.0846">
        <ele>856.8</ele>
        <time>2012-10-13T08:12:43Z</time>
      </trkpt>
      <trkpt lat="43.97136" lon="7.08455">
        <ele>856.3</ele>
        <time>2012-10-13T08:12:46Z</time>
      </trkpt>
      <trkpt lat="43.97143" lon="7.08451">
        <ele>860.2</ele>
        <time>2012-10-13T08:12:51Z</time>
      </trkpt>
      <trkpt lat="43.97144" lon="7.08448">
        <ele>855.7</ele>
        <time>2012-10-13T08:12:56Z</time>
      </trkpt>
      <trkpt lat="43.97142" lon="7.08445">
        <ele>849.8</ele>
        <time>2012-10-13T08:13:02Z</time>
      </trkpt>
      <trkpt lat="43.97144" lon="7.08443">
        <ele>844</ele>
        <time>2012-10-13T08:13:09Z</time>
      </trkpt>
      <trkpt lat="43.97153" lon="7.0844">
        <ele>842.1</ele>
        <time>2012-10-13T08:13:17Z</time>
      </trkpt>
      <trkpt lat="43.97154" lon="7.08433">
        <ele>845.3</ele>
        <time>2012-10-13T08:13:21Z</time>
      </trkpt>
      <trkpt lat="43.97157" lon="7.08431">
        <ele>847.3</ele>
        <time>2012-10-13T08:13:24Z</time>
      </trkpt>
      <trkpt lat="43.97171" lon="7.08434">
        <ele>848.8</ele>
        <time>2012-10-13T08:13:31Z</time>
      </trkpt>
      <trkpt lat="43.97199" lon="7.08449">
        <ele>886.3</ele>
        <time>2012-10-13T08:13:51Z</time>
      </trkpt>
      <trkpt lat="43.9721" lon="7.08454">
        <ele>908.4</ele>
        <time>2012-10-13T08:13:56Z</time>
      </trkpt>
      <trkpt lat="43.97213" lon="7.08455">
        <ele>913.1</ele>
        <time>2012-10-13T08:13:57Z</time>
      </trkpt>
      <trkpt lat="43.9722" lon="7.08456">
        <ele>918.4</ele>
        <time>2012-10-13T08:14:02Z</time>
      </trkpt>
      <trkpt lat="43.97228" lon="7.08455">
        <ele>916.7</ele>
        <time>2012-10-13T08:14:07Z</time>
      </trkpt>
      <trkpt lat="43.97237" lon="7.08449">
        <ele>901.7</ele>
        <time>2012-10-13T08:14:14Z</time>
      </trkpt>
      <trkpt lat="43.9724" lon="7.08437">
        <ele>892.7</ele>
        <time>2012-10-13T08:14:21Z</time>
      </trkpt>
      <trkpt lat="43.97245" lon="7.08428">
        <ele>884.7</ele>
        <time>2012-10-13T08:14:27Z</time>
      </trkpt>
      <trkpt lat="43.97244" lon="7.08426">
        <ele>881.8</ele>
        <time>2012-10-13T08:14:31Z</time>
      </trkpt>
      <trkpt lat="43.97246" lon="7.08424">
        <ele>879.1</ele>
        <time>2012-10-13T08:14:36Z</time>
      </trkpt>
      <trkpt lat="43.97253" lon="7.08423">
        <ele>880.5</ele>
        <time>2012-10-13T08:14:40Z</time>
      </trkpt>
      <trkpt lat="43.97264" lon="7.08417">
        <ele>878.7</ele>
        <time>2012-10-13T08:14:48Z</time>
      </trkpt>
      <trkpt lat="43.9727" lon="7.08416">
        <ele>880.1</ele>
        <time>2012-10-13T08:14:54Z</time>
      </trkpt>
      <trkpt lat="43.97273" lon="7.08413">
        <ele>877.2</ele>
        <time>2012-10-13T08:14:57Z</time>
      </trkpt>
      <trkpt lat="43.9728" lon="7.08401">
        <ele>872.6</ele>
        <time>2012-10-13T08:15:04Z</time>
      </trkpt>
      <trkpt lat="43.9728" lon="7.08391">
        <ele>869.9</ele>
        <time>2012-10-13T08:15:10Z</time>
      </trkpt>
      <trkpt lat="43.97293" lon="7.08372">
        <ele>864.5</ele>
        <time>2012-10-13T08:15:21Z</time>
      </trkpt>
      <trkpt lat="43.97301" lon="7.08344">
        <ele>863.7</ele>
        <time>2012-10-13T08:15:37Z</time>
      </trkpt>
      <trkpt lat="43.97302" lon="7.08341">
        <ele>864.4</ele>
        <time>2012-10-13T08:15:39Z</time>
      </trkpt>
      <trkpt lat="43.97311" lon="7.08317">
        <ele>867.1</ele>
        <time>2012-10-13T08:15:54Z</time>
      </trkpt>
      <trkpt lat="43.97318" lon="7.08307">
        <ele>870.4</ele>
        <time>2012-10-13T08:16:02Z</time>
      </trkpt>
      <trkpt lat="43.97319" lon="7.083">
        <ele>871.9</ele>
        <time>2012-10-13T08:16:06Z</time>
      </trkpt>
      <trkpt lat="43.9732" lon="7.08296">
        <ele>875.7</ele>
        <time>2012-10-13T08:16:11Z</time>
      </trkpt>
      <trkpt lat="43.9734" lon="7.08277">
        <ele>883.7</ele>
        <time>2012-10-13T08:16:57Z</time>
      </trkpt>
      <trkpt lat="43.97349" lon="7.08277">
        <ele>884.4</ele>
        <time>2012-10-13T08:17:02Z</time>
      </trkpt>
      <trkpt lat="43.97361" lon="7.08254">
        <ele>883.5</ele>
        <time>2012-10-13T08:17:33Z</time>
      </trkpt>
      <trkpt lat="43.97367" lon="7.08238">
        <ele>890.4</ele>
        <time>2012-10-13T08:17:58Z</time>
      </trkpt>
      <trkpt lat="43.97368" lon="7.08235">
        <ele>892</ele>
        <time>2012-10-13T08:18:04Z</time>
      </trkpt>
      <trkpt lat="43.97366" lon="7.08233">
        <ele>894.9</ele>
        <time>2012-10-13T08:18:13Z</time>
      </trkpt>
      <trkpt lat="43.97358" lon="7.08234">
        <ele>890</ele>
        <time>2012-10-13T08:18:21Z</time>
      </trkpt>
      <trkpt lat="43.97361" lon="7.08238">
        <ele>902.7</ele>
        <time>2012-10-13T08:18:28Z</time>
      </trkpt>
      <trkpt lat="43.97362" lon="7.08242">
        <ele>905.3</ele>
        <time>2012-10-13T08:18:33Z</time>
      </trkpt>
      <trkpt lat="43.97362" lon="7.0825">
        <ele>911.6</ele>
        <time>2012-10-13T08:18:39Z</time>
      </trkpt>
      <trkpt lat="43.97356" lon="7.08256">
        <ele>913</ele>
        <time>2012-10-13T08:18:43Z</time>
      </trkpt>
      <trkpt lat="43.97327" lon="7.08263">
        <ele>908.7</ele>
        <time>2012-10-13T08:19:02Z</time>
      </trkpt>
      <trkpt lat="43.97321" lon="7.08262">
        <ele>910.8</ele>
        <time>2012-10-13T08:19:08Z</time>
      </trkpt>
      <trkpt lat="43.97301" lon="7.08269">
        <ele>918.1</ele>
        <time>2012-10-13T08:19:28Z</time>
      </trkpt>
      <trkpt lat="43.97299" lon="7.08275">
        <ele>923.3</ele>
        <time>2012-10-13T08:19:34Z</time>
      </trkpt>
      <trkpt lat="43.97292" lon="7.08284">
        <ele>929</ele>
        <time>2012-10-13T08:19:43Z</time>
      </trkpt>
      <trkpt lat="43.97289" lon="7.08291">
        <ele>931.1</ele>
        <time>2012-10-13T08:19:49Z</time>
      </trkpt>
      <trkpt lat="43.97282" lon="7.08304">
        <ele>931.7</ele>
        <time>2012-10-13T08:19:57Z</time>
      </trkpt>
      <trkpt lat="43.9728" lon="7.08306">
        <ele>930.8</ele>
        <time>2012-10-13T08:20:00Z</time>
      </trkpt>
      <trkpt lat="43.97273" lon="7.08303">
        <ele>929.8</ele>
        <time>2012-10-13T08:20:05Z</time>
      </trkpt>
      <trkpt lat="43.97272" lon="7.08295">
        <ele>928.7</ele>
        <time>2012-10-13T08:20:11Z</time>
      </trkpt>
      <trkpt lat="43.97273" lon="7.08287">
        <ele>933.4</ele>
        <time>2012-10-13T08:20:18Z</time>
      </trkpt>
      <trkpt lat="43.97274" lon="7.08285">
        <ele>933.5</ele>
        <time>2012-10-13T08:20:19Z</time>
      </trkpt>
      <trkpt lat="43.97276" lon="7.08274">
        <ele>935.7</ele>
        <time>2012-10-13T08:20:26Z</time>
      </trkpt>
      <trkpt lat="43.97278" lon="7.08269">
        <ele>937.2</ele>
        <time>2012-10-13T08:20:30Z</time>
      </trkpt>
      <trkpt lat="43.97278" lon="7.08261">
        <ele>938.2</ele>
        <time>2012-10-13T08:20:35Z</time>
      </trkpt>
      <trkpt lat="43.97277" lon="7.08253">
        <ele>938.2</ele>
        <time>2012-10-13T08:20:41Z</time>
      </trkpt>
      <trkpt lat="43.97281" lon="7.08246">
        <ele>941.2</ele>
        <time>2012-10-13T08:20:47Z</time>
      </trkpt>
      <trkpt lat="43.97282" lon="7.0824">
        <ele>943.5</ele>
        <time>2012-10-13T08:20:57Z</time>
      </trkpt>
      <trkpt lat="43.97285" lon="7.08235">
        <ele>946.8</ele>
        <time>2012-10-13T08:21:01Z</time>
      </trkpt>
      <trkpt lat="43.9729" lon="7.08223">
        <ele>951.4</ele>
        <time>2012-10-13T08:21:10Z</time>
      </trkpt>
      <trkpt lat="43.97291" lon="7.08209">
        <ele>960.1</ele>
        <time>2012-10-13T08:21:21Z</time>
      </trkpt>
      <trkpt lat="43.97294" lon="7.08205">
        <ele>962.1</ele>
        <time>2012-10-13T08:21:23Z</time>
      </trkpt>
      <trkpt lat="43.97294" lon="7.082">
        <ele>962.7</ele>
        <time>2012-10-13T08:21:26Z</time>
      </trkpt>
      <trkpt lat="43.97294" lon="7.08196">
        <ele>962.4</ele>
        <time>2012-10-13T08:21:28Z</time>
      </trkpt>
      <trkpt lat="43.97292" lon="7.08192">
        <ele>963.9</ele>
        <time>2012-10-13T08:21:31Z</time>
      </trkpt>
      <trkpt lat="43.97292" lon="7.08176">
        <ele>962.5</ele>
        <time>2012-10-13T08:21:40Z</time>
      </trkpt>
      <trkpt lat="43.97289" lon="7.0817">
        <ele>957.8</ele>
        <time>2012-10-13T08:21:43Z</time>
      </trkpt>
      <trkpt lat="43.97288" lon="7.08165">
        <ele>954.5</ele>
        <time>2012-10-13T08:21:45Z</time>
      </trkpt>
      <trkpt lat="43.97276" lon="7.08153">
        <ele>947.9</ele>
        <time>2012-10-13T08:21:50Z</time>
      </trkpt>
      <trkpt lat="43.97266" lon="7.08154">
        <ele>944.4</ele>
        <time>2012-10-13T08:21:56Z</time>
      </trkpt>
      <trkpt lat="43.97266" lon="7.08155">
        <ele>945.4</ele>
        <time>2012-10-13T08:21:57Z</time>
      </trkpt>
      <trkpt lat="43.97263" lon="7.08149">
        <ele>947.1</ele>
        <time>2012-10-13T08:22:03Z</time>
      </trkpt>
      <trkpt lat="43.97264" lon="7.08146">
        <ele>946.6</ele>
        <time>2012-10-13T08:22:04Z</time>
      </trkpt>
      <trkpt lat="43.97267" lon="7.08138">
        <ele>947.6</ele>
        <time>2012-10-13T08:22:09Z</time>
      </trkpt>
      <trkpt lat="43.97272" lon="7.08132">
        <ele>949.5</ele>
        <time>2012-10-13T08:22:13Z</time>
      </trkpt>
      <trkpt lat="43.97279" lon="7.0812">
        <ele>950.6</ele>
        <time>2012-10-13T08:22:21Z</time>
      </trkpt>
      <trkpt lat="43.97281" lon="7.08117">
        <ele>951</ele>
        <time>2012-10-13T08:22:23Z</time>
      </trkpt>
      <trkpt lat="43.97285" lon="7.08117">
        <ele>953.2</ele>
        <time>2012-10-13T08:22:27Z</time>
      </trkpt>
      <trkpt lat="43.97287" lon="7.08118">
        <ele>952.9</ele>
        <time>2012-10-13T08:22:32Z</time>
      </trkpt>
      <trkpt lat="43.97293" lon="7.08125">
        <ele>952.5</ele>
        <time>2012-10-13T08:22:41Z</time>
      </trkpt>
      <trkpt lat="43.97298" lon="7.08134">
        <ele>956.7</ele>
        <time>2012-10-13T08:22:48Z</time>
      </trkpt>
      <trkpt lat="43.97313" lon="7.08143">
        <ele>962.1</ele>
        <time>2012-10-13T08:23:01Z</time>
      </trkpt>
      <trkpt lat="43.97318" lon="7.08144">
        <ele>962.2</ele>
        <time>2012-10-13T08:23:04Z</time>
      </trkpt>
      <trkpt lat="43.97321" lon="7.08147">
        <ele>961.6</ele>
        <time>2012-10-13T08:23:08Z</time>
      </trkpt>
      <trkpt lat="43.97327" lon="7.08154">
        <ele>960.7</ele>
        <time>2012-10-13T08:23:14Z</time>
      </trkpt>
      <trkpt lat="43.9733" lon="7.08157">
        <ele>961.9</ele>
        <time>2012-10-13T08:23:18Z</time>
      </trkpt>
      <trkpt lat="43.97337" lon="7.08158">
        <ele>961.2</ele>
        <time>2012-10-13T08:23:24Z</time>
      </trkpt>
      <trkpt lat="43.97337" lon="7.08151">
        <ele>961.6</ele>
        <time>2012-10-13T08:23:31Z</time>
      </trkpt>
      <trkpt lat="43.97335" lon="7.08143">
        <ele>963.7</ele>
        <time>2012-10-13T08:23:37Z</time>
      </trkpt>
      <trkpt lat="43.97337" lon="7.08126">
        <ele>965</ele>
        <time>2012-10-13T08:23:49Z</time>
      </trkpt>
      <trkpt lat="43.97338" lon="7.08116">
        <ele>966</ele>
        <time>2012-10-13T08:23:56Z</time>
      </trkpt>
      <trkpt lat="43.97337" lon="7.08109">
        <ele>969.4</ele>
        <time>2012-10-13T08:24:01Z</time>
      </trkpt>
      <trkpt lat="43.97336" lon="7.08072">
        <ele>974.9</ele>
        <time>2012-10-13T08:24:24Z</time>
      </trkpt>
      <trkpt lat="43.9733" lon="7.08044">
        <ele>973.7</ele>
        <time>2012-10-13T08:24:41Z</time>
      </trkpt>
      <trkpt lat="43.97335" lon="7.08039">
        <ele>974.2</ele>
        <time>2012-10-13T08:24:47Z</time>
      </trkpt>
      <trkpt lat="43.97335" lon="7.08038">
        <ele>974.3</ele>
        <time>2012-10-13T08:24:48Z</time>
      </trkpt>
      <trkpt lat="43.97341" lon="7.08043">
        <ele>975.1</ele>
        <time>2012-10-13T08:24:55Z</time>
      </trkpt>
      <trkpt lat="43.97348" lon="7.08054">
        <ele>974</ele>
        <time>2012-10-13T08:25:05Z</time>
      </trkpt>
      <trkpt lat="43.97356" lon="7.0806">
        <ele>975.5</ele>
        <time>2012-10-13T08:25:14Z</time>
      </trkpt>
      <trkpt lat="43.97361" lon="7.08067">
        <ele>976.9</ele>
        <time>2012-10-13T08:25:20Z</time>
      </trkpt>
      <trkpt lat="43.9737" lon="7.08074">
        <ele>980.9</ele>
        <time>2012-10-13T08:25:29Z</time>
      </trkpt>
      <trkpt lat="43.97375" lon="7.0808">
        <ele>984.9</ele>
        <time>2012-10-13T08:25:35Z</time>
      </trkpt>
      <trkpt lat="43.9738" lon="7.08079">
        <ele>985.9</ele>
        <time>2012-10-13T08:25:40Z</time>
      </trkpt>
      <trkpt lat="43.97381" lon="7.08075">
        <ele>988.4</ele>
        <time>2012-10-13T08:25:44Z</time>
      </trkpt>
      <trkpt lat="43.9738" lon="7.08071">
        <ele>988.3</ele>
        <time>2012-10-13T08:25:48Z</time>
      </trkpt>
      <trkpt lat="43.97374" lon="7.08058">
        <ele>986.5</ele>
        <time>2012-10-13T08:25:57Z</time>
      </trkpt>
      <trkpt lat="43.97372" lon="7.08015">
        <ele>987.9</ele>
        <time>2012-10-13T08:26:24Z</time>
      </trkpt>
      <trkpt lat="43.97372" lon="7.08005">
        <ele>988.9</ele>
        <time>2012-10-13T08:26:31Z</time>
      </trkpt>
      <trkpt lat="43.97372" lon="7.08003">
        <ele>989.2</ele>
        <time>2012-10-13T08:26:32Z</time>
      </trkpt>
      <trkpt lat="43.97369" lon="7.07995">
        <ele>989.6</ele>
        <time>2012-10-13T08:26:37Z</time>
      </trkpt>
      <trkpt lat="43.97367" lon="7.07989">
        <ele>991.3</ele>
        <time>2012-10-13T08:26:41Z</time>
      </trkpt>
      <trkpt lat="43.97367" lon="7.07952">
        <ele>994.8</ele>
        <time>2012-10-13T08:27:01Z</time>
      </trkpt>
      <trkpt lat="43.97353" lon="7.07928">
        <ele>994.6</ele>
        <time>2012-10-13T08:27:17Z</time>
      </trkpt>
      <trkpt lat="43.97344" lon="7.07923">
        <ele>993.3</ele>
        <time>2012-10-13T08:27:23Z</time>
      </trkpt>
      <trkpt lat="43.97343" lon="7.07923">
        <ele>993.2</ele>
        <time>2012-10-13T08:27:24Z</time>
      </trkpt>
      <trkpt lat="43.97342" lon="7.07925">
        <ele>998.2</ele>
        <time>2012-10-13T08:27:30Z</time>
      </trkpt>
      <trkpt lat="43.97339" lon="7.07927">
        <ele>999.3</ele>
        <time>2012-10-13T08:27:33Z</time>
      </trkpt>
      <trkpt lat="43.97331" lon="7.0793">
        <ele>999.8</ele>
        <time>2012-10-13T08:27:39Z</time>
      </trkpt>
      <trkpt lat="43.97331" lon="7.07938">
        <ele>1016.4</ele>
        <time>2012-10-13T08:27:48Z</time>
      </trkpt>
      <trkpt lat="43.97329" lon="7.07944">
        <ele>1022.7</ele>
        <time>2012-10-13T08:27:53Z</time>
      </trkpt>
      <trkpt lat="43.97324" lon="7.07948">
        <ele>1024</ele>
        <time>2012-10-13T08:27:56Z</time>
      </trkpt>
      <trkpt lat="43.97316" lon="7.07951">
        <ele>1020.6</ele>
        <time>2012-10-13T08:27:59Z</time>
      </trkpt>
      <trkpt lat="43.97309" lon="7.07946">
        <ele>1015.2</ele>
        <time>2012-10-13T08:28:05Z</time>
      </trkpt>
      <trkpt lat="43.97312" lon="7.07937">
        <ele>1011.5</ele>
        <time>2012-10-13T08:28:15Z</time>
      </trkpt>
      <trkpt lat="43.97313" lon="7.07934">
        <ele>1009.9</ele>
        <time>2012-10-13T08:28:17Z</time>
      </trkpt>
      <trkpt lat="43.97313" lon="7.07917">
        <ele>1003.3</ele>
        <time>2012-10-13T08:28:26Z</time>
      </trkpt>
      <trkpt lat="43.97313" lon="7.07915">
        <ele>1003.1</ele>
        <time>2012-10-13T08:28:28Z</time>
      </trkpt>
      <trkpt lat="43.97316" lon="7.07903">
        <ele>1004.7</ele>
        <time>2012-10-13T08:28:36Z</time>
      </trkpt>
      <trkpt lat="43.9732" lon="7.07897">
        <ele>1005</ele>
        <time>2012-10-13T08:28:41Z</time>
      </trkpt>
      <trkpt lat="43.97328" lon="7.07878">
        <ele>1004.9</ele>
        <time>2012-10-13T08:28:53Z</time>
      </trkpt>
      <trkpt lat="43.97329" lon="7.07877">
        <ele>1006.3</ele>
        <time>2012-10-13T08:28:54Z</time>
      </trkpt>
      <trkpt lat="43.97336" lon="7.07871">
        <ele>1006.9</ele>
        <time>2012-10-13T08:29:02Z</time>
      </trkpt>
      <trkpt lat="43.97346" lon="7.07856">
        <ele>1012.3</ele>
        <time>2012-10-13T08:29:15Z</time>
      </trkpt>
      <trkpt lat="43.97356" lon="7.07856">
        <ele>1014.8</ele>
        <time>2012-10-13T08:29:23Z</time>
      </trkpt>
      <trkpt lat="43.97357" lon="7.07857">
        <ele>1014.6</ele>
        <time>2012-10-13T08:29:25Z</time>
      </trkpt>
      <trkpt lat="43.97361" lon="7.0786">
        <ele>1017.6</ele>
        <time>2012-10-13T08:29:30Z</time>
      </trkpt>
      <trkpt lat="43.97361" lon="7.07863">
        <ele>1019.7</ele>
        <time>2012-10-13T08:29:33Z</time>
      </trkpt>
      <trkpt lat="43.97371" lon="7.07868">
        <ele>1027.1</ele>
        <time>2012-10-13T08:29:38Z</time>
      </trkpt>
      <trkpt lat="43.97389" lon="7.07885">
        <ele>1029.7</ele>
        <time>2012-10-13T08:29:58Z</time>
      </trkpt>
      <trkpt lat="43.97396" lon="7.07894">
        <ele>1029.6</ele>
        <time>2012-10-13T08:30:06Z</time>
      </trkpt>
      <trkpt lat="43.97422" lon="7.07919">
        <ele>1032.5</ele>
        <time>2012-10-13T08:30:32Z</time>
      </trkpt>
      <trkpt lat="43.97429" lon="7.07929">
        <ele>1033.3</ele>
        <time>2012-10-13T08:30:41Z</time>
      </trkpt>
      <trkpt lat="43.97437" lon="7.07938">
        <ele>1034.5</ele>
        <time>2012-10-13T08:30:50Z</time>
      </trkpt>
      <trkpt lat="43.97446" lon="7.0794">
        <ele>1036.8</ele>
        <time>2012-10-13T08:30:58Z</time>
      </trkpt>
      <trkpt lat="43.97454" lon="7.07936">
        <ele>1037.8</ele>
        <time>2012-10-13T08:31:05Z</time>
      </trkpt>
      <trkpt lat="43.97457" lon="7.07934">
        <ele>1038.9</ele>
        <time>2012-10-13T08:31:08Z</time>
      </trkpt>
      <trkpt lat="43.97461" lon="7.07932">
        <ele>1039.2</ele>
        <time>2012-10-13T08:31:12Z</time>
      </trkpt>
      <trkpt lat="43.97489" lon="7.07911">
        <ele>1046.1</ele>
        <time>2012-10-13T08:31:40Z</time>
      </trkpt>
      <trkpt lat="43.97495" lon="7.07908">
        <ele>1046.7</ele>
        <time>2012-10-13T08:31:45Z</time>
      </trkpt>
      <trkpt lat="43.9751" lon="7.07889">
        <ele>1048.3</ele>
        <time>2012-10-13T08:32:01Z</time>
      </trkpt>
      <trkpt lat="43.97514" lon="7.07886">
        <ele>1048.1</ele>
        <time>2012-10-13T08:32:04Z</time>
      </trkpt>
      <trkpt lat="43.97525" lon="7.0788">
        <ele>1048.6</ele>
        <time>2012-10-13T08:32:11Z</time>
      </trkpt>
      <trkpt lat="43.97538" lon="7.07871">
        <ele>1049.2</ele>
        <time>2012-10-13T08:32:19Z</time>
      </trkpt>
      <trkpt lat="43.9755" lon="7.07868">
        <ele>1051.7</ele>
        <time>2012-10-13T08:32:27Z</time>
      </trkpt>
      <trkpt lat="43.97556" lon="7.07865">
        <ele>1054.4</ele>
        <time>2012-10-13T08:32:34Z</time>
      </trkpt>
      <trkpt lat="43.97571" lon="7.07874">
        <ele>1060.1</ele>
        <time>2012-10-13T08:32:50Z</time>
      </trkpt>
      <trkpt lat="43.97579" lon="7.0787">
        <ele>1063</ele>
        <time>2012-10-13T08:32:58Z</time>
      </trkpt>
      <trkpt lat="43.97582" lon="7.07868">
        <ele>1064.7</ele>
        <time>2012-10-13T08:33:03Z</time>
      </trkpt>
      <trkpt lat="43.97584" lon="7.07867">
        <ele>1065.5</ele>
        <time>2012-10-13T08:33:05Z</time>
      </trkpt>
      <trkpt lat="43.97592" lon="7.07859">
        <ele>1068.1</ele>
        <time>2012-10-13T08:33:14Z</time>
      </trkpt>
      <trkpt lat="43.97594" lon="7.07857">
        <ele>1068.1</ele>
        <time>2012-10-13T08:33:16Z</time>
      </trkpt>
      <trkpt lat="43.976" lon="7.07851">
        <ele>1068.9</ele>
        <time>2012-10-13T08:33:22Z</time>
      </trkpt>
      <trkpt lat="43.97608" lon="7.07848">
        <ele>1070.5</ele>
        <time>2012-10-13T08:33:29Z</time>
      </trkpt>
      <trkpt lat="43.97614" lon="7.07839">
        <ele>1071.5</ele>
        <time>2012-10-13T08:33:36Z</time>
      </trkpt>
      <trkpt lat="43.97624" lon="7.07835">
        <ele>1077.9</ele>
        <time>2012-10-13T08:33:45Z</time>
      </trkpt>
      <trkpt lat="43.9763" lon="7.07827">
        <ele>1076.5</ele>
        <time>2012-10-13T08:33:52Z</time>
      </trkpt>
      <trkpt lat="43.97637" lon="7.0782">
        <ele>1078</ele>
        <time>2012-10-13T08:33:59Z</time>
      </trkpt>
      <trkpt lat="43.97637" lon="7.07819">
        <ele>1077.8</ele>
        <time>2012-10-13T08:34:00Z</time>
      </trkpt>
      <trkpt lat="43.97649" lon="7.07806">
        <ele>1080.6</ele>
        <time>2012-10-13T08:34:12Z</time>
      </trkpt>
      <trkpt lat="43.97656" lon="7.07797">
        <ele>1080.1</ele>
        <time>2012-10-13T08:34:20Z</time>
      </trkpt>
      <trkpt lat="43.97661" lon="7.07788">
        <ele>1076.1</ele>
        <time>2012-10-13T08:34:29Z</time>
      </trkpt>
      <trkpt lat="43.97675" lon="7.07776">
        <ele>1080.2</ele>
        <time>2012-10-13T08:34:45Z</time>
      </trkpt>
      <trkpt lat="43.97688" lon="7.0777">
        <ele>1086.4</ele>
        <time>2012-10-13T08:34:56Z</time>
      </trkpt>
      <trkpt lat="43.977" lon="7.07759">
        <ele>1086.2</ele>
        <time>2012-10-13T08:35:10Z</time>
      </trkpt>
      <trkpt lat="43.97707" lon="7.0775">
        <ele>1085.9</ele>
        <time>2012-10-13T08:35:16Z</time>
      </trkpt>
      <trkpt lat="43.9771" lon="7.07741">
        <ele>1085.9</ele>
        <time>2012-10-13T08:35:22Z</time>
      </trkpt>
      <trkpt lat="43.97746" lon="7.07711">
        <ele>1086.9</ele>
        <time>2012-10-13T08:35:50Z</time>
      </trkpt>
      <trkpt lat="43.97759" lon="7.07696">
        <ele>1084.2</ele>
        <time>2012-10-13T08:36:00Z</time>
      </trkpt>
      <trkpt lat="43.9778" lon="7.07684">
        <ele>1089</ele>
        <time>2012-10-13T08:36:16Z</time>
      </trkpt>
      <trkpt lat="43.97789" lon="7.07683">
        <ele>1092.4</ele>
        <time>2012-10-13T08:36:22Z</time>
      </trkpt>
      <trkpt lat="43.97794" lon="7.07681">
        <ele>1093.9</ele>
        <time>2012-10-13T08:36:27Z</time>
      </trkpt>
      <trkpt lat="43.97805" lon="7.07679">
        <ele>1098.5</ele>
        <time>2012-10-13T08:36:35Z</time>
      </trkpt>
      <trkpt lat="43.97828" lon="7.07654">
        <ele>1101.5</ele>
        <time>2012-10-13T08:36:57Z</time>
      </trkpt>
      <trkpt lat="43.97837" lon="7.07648">
        <ele>1101.8</ele>
        <time>2012-10-13T08:37:06Z</time>
      </trkpt>
      <trkpt lat="43.97843" lon="7.07645">
        <ele>1101.9</ele>
        <time>2012-10-13T08:37:10Z</time>
      </trkpt>
      <trkpt lat="43.97855" lon="7.07641">
        <ele>1103.2</ele>
        <time>2012-10-13T08:37:18Z</time>
      </trkpt>
      <trkpt lat="43.97867" lon="7.07634">
        <ele>1101.6</ele>
        <time>2012-10-13T08:37:24Z</time>
      </trkpt>
      <trkpt lat="43.97871" lon="7.07633">
        <ele>1101</ele>
        <time>2012-10-13T08:37:30Z</time>
      </trkpt>
      <trkpt lat="43.97879" lon="7.07631">
        <ele>1100.3</ele>
        <time>2012-10-13T08:37:36Z</time>
      </trkpt>
      <trkpt lat="43.97898" lon="7.07628">
        <ele>1100.6</ele>
        <time>2012-10-13T08:37:43Z</time>
      </trkpt>
      <trkpt lat="43.97938" lon="7.07633">
        <ele>1099.7</ele>
        <time>2012-10-13T08:38:01Z</time>
      </trkpt>
      <trkpt lat="43.97961" lon="7.07645">
        <ele>1106.1</ele>
        <time>2012-10-13T08:38:17Z</time>
      </trkpt>
      <trkpt lat="43.97972" lon="7.07648">
        <ele>1106.4</ele>
        <time>2012-10-13T08:38:25Z</time>
      </trkpt>
      <trkpt lat="43.97973" lon="7.07648">
        <ele>1106.6</ele>
        <time>2012-10-13T08:38:26Z</time>
      </trkpt>
      <trkpt lat="43.97977" lon="7.07638">
        <ele>1107.2</ele>
        <time>2012-10-13T08:38:32Z</time>
      </trkpt>
      <trkpt lat="43.97972" lon="7.07624">
        <ele>1111.1</ele>
        <time>2012-10-13T08:38:41Z</time>
      </trkpt>
      <trkpt lat="43.97963" lon="7.07608">
        <ele>1112.6</ele>
        <time>2012-10-13T08:38:51Z</time>
      </trkpt>
      <trkpt lat="43.97957" lon="7.07599">
        <ele>1115.3</ele>
        <time>2012-10-13T08:38:59Z</time>
      </trkpt>
      <trkpt lat="43.97949" lon="7.07594">
        <ele>1116.1</ele>
        <time>2012-10-13T08:39:06Z</time>
      </trkpt>
      <trkpt lat="43.97939" lon="7.0759">
        <ele>1116.5</ele>
        <time>2012-10-13T08:39:16Z</time>
      </trkpt>
      <trkpt lat="43.97938" lon="7.07588">
        <ele>1117.2</ele>
        <time>2012-10-13T08:39:19Z</time>
      </trkpt>
      <trkpt lat="43.97939" lon="7.07584">
        <ele>1116.3</ele>
        <time>2012-10-13T08:39:28Z</time>
      </trkpt>
      <trkpt lat="43.97936" lon="7.07581">
        <ele>1116.1</ele>
        <time>2012-10-13T08:39:33Z</time>
      </trkpt>
      <trkpt lat="43.97915" lon="7.07573">
        <ele>1123.8</ele>
        <time>2012-10-13T08:52:56Z</time>
      </trkpt>
      <trkpt lat="43.97926" lon="7.07576">
        <ele>1118.5</ele>
        <time>2012-10-13T08:57:09Z</time>
      </trkpt>
      <trkpt lat="43.9792" lon="7.07575">
        <ele>1117.9</ele>
        <time>2012-10-13T08:57:15Z</time>
      </trkpt>
      <trkpt lat="43.97917" lon="7.07572">
        <ele>1118.5</ele>
        <time>2012-10-13T08:57:17Z</time>
      </trkpt>
      <trkpt lat="43.97921" lon="7.07576">
        <ele>1116.1</ele>
        <time>2012-10-13T08:57:25Z</time>
      </trkpt>
      <trkpt lat="43.97927" lon="7.0758">
        <ele>1116.4</ele>
        <time>2012-10-13T08:57:32Z</time>
      </trkpt>
      <trkpt lat="43.97931" lon="7.07581">
        <ele>1115.9</ele>
        <time>2012-10-13T08:57:34Z</time>
      </trkpt>
      <trkpt lat="43.97937" lon="7.07584">
        <ele>1115</ele>
        <time>2012-10-13T08:57:37Z</time>
      </trkpt>
      <trkpt lat="43.97964" lon="7.07592">
        <ele>1116.1</ele>
        <time>2012-10-13T08:57:53Z</time>
      </trkpt>
      <trkpt lat="43.97965" lon="7.07593">
        <ele>1116.3</ele>
        <time>2012-10-13T08:57:54Z</time>
      </trkpt>
      <trkpt lat="43.97963" lon="7.0759">
        <ele>1118.6</ele>
        <time>2012-10-13T08:57:59Z</time>
      </trkpt>
      <trkpt lat="43.97948" lon="7.07587">
        <ele>1118.4</ele>
        <time>2012-10-13T08:58:03Z</time>
      </trkpt>
      <trkpt lat="43.97936" lon="7.07582">
        <ele>1117.9</ele>
        <time>2012-10-13T08:58:07Z</time>
      </trkpt>
      <trkpt lat="43.97934" lon="7.07582">
        <ele>1117.6</ele>
        <time>2012-10-13T08:58:11Z</time>
      </trkpt>
      <trkpt lat="43.97935" lon="7.07578">
        <ele>1115.7</ele>
        <time>2012-10-13T08:58:43Z</time>
      </trkpt>
      <trkpt lat="43.97917" lon="7.07574">
        <ele>1120.9</ele>
        <time>2012-10-13T08:59:32Z</time>
      </trkpt>
      <trkpt lat="43.97942" lon="7.07577">
        <ele>1106.9</ele>
        <time>2012-10-13T09:06:54Z</time>
      </trkpt>
      <trkpt lat="43.97941" lon="7.07579">
        <ele>1107.4</ele>
        <time>2012-10-13T09:07:02Z</time>
      </trkpt>
      <trkpt lat="43.97942" lon="7.0758">
        <ele>1108.7</ele>
        <time>2012-10-13T09:07:29Z</time>
      </trkpt>
      <trkpt lat="43.97942" lon="7.0758">
        <ele>1111.5</ele>
        <time>2012-10-13T09:08:14Z</time>
      </trkpt>
      <trkpt lat="43.97948" lon="7.07582">
        <ele>1110.8</ele>
        <time>2012-10-13T09:08:21Z</time>
      </trkpt>
      <trkpt lat="43.97954" lon="7.07583">
        <ele>1110.8</ele>
        <time>2012-10-13T09:08:28Z</time>
      </trkpt>
      <trkpt lat="43.9796" lon="7.07585">
        <ele>1111.9</ele>
        <time>2012-10-13T09:08:33Z</time>
      </trkpt>
      <trkpt lat="43.97966" lon="7.0759">
        <ele>1115.9</ele>
        <time>2012-10-13T09:08:40Z</time>
      </trkpt>
      <trkpt lat="43.97994" lon="7.07614">
        <ele>1122.7</ele>
        <time>2012-10-13T09:09:05Z</time>
      </trkpt>
      <trkpt lat="43.98014" lon="7.07625">
        <ele>1124.7</ele>
        <time>2012-10-13T09:09:21Z</time>
      </trkpt>
      <trkpt lat="43.98022" lon="7.07634">
        <ele>1124</ele>
        <time>2012-10-13T09:09:28Z</time>
      </trkpt>
      <trkpt lat="43.9803" lon="7.07654">
        <ele>1124.1</ele>
        <time>2012-10-13T09:09:38Z</time>
      </trkpt>
      <trkpt lat="43.98035" lon="7.07677">
        <ele>1128.2</ele>
        <time>2012-10-13T09:09:45Z</time>
      </trkpt>
      <trkpt lat="43.98053" lon="7.07729">
        <ele>1128.5</ele>
        <time>2012-10-13T09:10:05Z</time>
      </trkpt>
      <trkpt lat="43.98061" lon="7.07778">
        <ele>1136.2</ele>
        <time>2012-10-13T09:10:21Z</time>
      </trkpt>
      <trkpt lat="43.98073" lon="7.07824">
        <ele>1132.7</ele>
        <time>2012-10-13T09:10:35Z</time>
      </trkpt>
      <trkpt lat="43.98084" lon="7.07911">
        <ele>1145.2</ele>
        <time>2012-10-13T09:10:57Z</time>
      </trkpt>
      <trkpt lat="43.98069" lon="7.0806">
        <ele>1144.3</ele>
        <time>2012-10-13T09:11:37Z</time>
      </trkpt>
      <trkpt lat="43.98084" lon="7.08109">
        <ele>1147.3</ele>
        <time>2012-10-13T09:11:55Z</time>
      </trkpt>
      <trkpt lat="43.98095" lon="7.0813">
        <ele>1143.6</ele>
        <time>2012-10-13T09:12:04Z</time>
      </trkpt>
      <trkpt lat="43.98105" lon="7.08162">
        <ele>1144.5</ele>
        <time>2012-10-13T09:12:17Z</time>
      </trkpt>
      <trkpt lat="43.98107" lon="7.08179">
        <ele>1145.5</ele>
        <time>2012-10-13T09:12:24Z</time>
      </trkpt>
      <trkpt lat="43.98105" lon="7.08194">
        <ele>1148.6</ele>
        <time>2012-10-13T09:12:31Z</time>
      </trkpt>
      <trkpt lat="43.98106" lon="7.08213">
        <ele>1153.1</ele>
        <time>2012-10-13T09:12:38Z</time>
      </trkpt>
      <trkpt lat="43.98103" lon="7.08248">
        <ele>1168.8</ele>
        <time>2012-10-13T09:12:51Z</time>
      </trkpt>
      <trkpt lat="43.98099" lon="7.08265">
        <ele>1171.2</ele>
        <time>2012-10-13T09:12:58Z</time>
      </trkpt>
      <trkpt lat="43.98101" lon="7.08281">
        <ele>1170</ele>
        <time>2012-10-13T09:13:03Z</time>
      </trkpt>
      <trkpt lat="43.9811" lon="7.08297">
        <ele>1169</ele>
        <time>2012-10-13T09:13:10Z</time>
      </trkpt>
      <trkpt lat="43.98132" lon="7.08321">
        <ele>1166.4</ele>
        <time>2012-10-13T09:13:24Z</time>
      </trkpt>
      <trkpt lat="43.98163" lon="7.08349">
        <ele>1163.5</ele>
        <time>2012-10-13T09:13:41Z</time>
      </trkpt>
      <trkpt lat="43.98177" lon="7.08355">
        <ele>1163</ele>
        <time>2012-10-13T09:13:48Z</time>
      </trkpt>
      <trkpt lat="43.98189" lon="7.08363">
        <ele>1163.9</ele>
        <time>2012-10-13T09:13:55Z</time>
      </trkpt>
      <trkpt lat="43.98203" lon="7.0837">
        <ele>1166.5</ele>
        <time>2012-10-13T09:14:02Z</time>
      </trkpt>
      <trkpt lat="43.98215" lon="7.08381">
        <ele>1182</ele>
        <time>2012-10-13T09:14:10Z</time>
      </trkpt>
      <trkpt lat="43.98218" lon="7.08388">
        <ele>1188.6</ele>
        <time>2012-10-13T09:14:14Z</time>
      </trkpt>
      <trkpt lat="43.9822" lon="7.08397">
        <ele>1189.8</ele>
        <time>2012-10-13T09:14:18Z</time>
      </trkpt>
      <trkpt lat="43.98219" lon="7.08403">
        <ele>1191.2</ele>
        <time>2012-10-13T09:14:21Z</time>
      </trkpt>
      <trkpt lat="43.98202" lon="7.0842">
        <ele>1190.2</ele>
        <time>2012-10-13T09:14:34Z</time>
      </trkpt>
      <trkpt lat="43.98163" lon="7.08442">
        <ele>1182.6</ele>
        <time>2012-10-13T09:14:50Z</time>
      </trkpt>
      <trkpt lat="43.9816" lon="7.08452">
        <ele>1179.4</ele>
        <time>2012-10-13T09:14:54Z</time>
      </trkpt>
      <trkpt lat="43.9816" lon="7.08455">
        <ele>1177.9</ele>
        <time>2012-10-13T09:14:57Z</time>
      </trkpt>
      <trkpt lat="43.98163" lon="7.08475">
        <ele>1177.5</ele>
        <time>2012-10-13T09:15:02Z</time>
      </trkpt>
      <trkpt lat="43.9818" lon="7.08513">
        <ele>1203</ele>
        <time>2012-10-13T09:15:17Z</time>
      </trkpt>
      <trkpt lat="43.9818" lon="7.08524">
        <ele>1206.9</ele>
        <time>2012-10-13T09:15:23Z</time>
      </trkpt>
      <trkpt lat="43.98171" lon="7.08536">
        <ele>1212.7</ele>
        <time>2012-10-13T09:15:31Z</time>
      </trkpt>
      <trkpt lat="43.98167" lon="7.08546">
        <ele>1198.9</ele>
        <time>2012-10-13T09:15:40Z</time>
      </trkpt>
      <trkpt lat="43.98165" lon="7.0855">
        <ele>1197.8</ele>
        <time>2012-10-13T09:15:44Z</time>
      </trkpt>
      <trkpt lat="43.98161" lon="7.08552">
        <ele>1192.6</ele>
        <time>2012-10-13T09:15:52Z</time>
      </trkpt>
      <trkpt lat="43.98157" lon="7.08562">
        <ele>1183.1</ele>
        <time>2012-10-13T09:15:59Z</time>
      </trkpt>
      <trkpt lat="43.98154" lon="7.08566">
        <ele>1184.9</ele>
        <time>2012-10-13T09:16:05Z</time>
      </trkpt>
      <trkpt lat="43.98153" lon="7.08571">
        <ele>1192.5</ele>
        <time>2012-10-13T09:16:14Z</time>
      </trkpt>
      <trkpt lat="43.98156" lon="7.08582">
        <ele>1196.3</ele>
        <time>2012-10-13T09:16:26Z</time>
      </trkpt>
      <trkpt lat="43.98156" lon="7.08585">
        <ele>1203</ele>
        <time>2012-10-13T09:16:33Z</time>
      </trkpt>
      <trkpt lat="43.9816" lon="7.08597">
        <ele>1205.6</ele>
        <time>2012-10-13T09:16:49Z</time>
      </trkpt>
      <trkpt lat="43.98163" lon="7.08628">
        <ele>1221.4</ele>
        <time>2012-10-13T09:17:25Z</time>
      </trkpt>
      <trkpt lat="43.98162" lon="7.08631">
        <ele>1221.8</ele>
        <time>2012-10-13T09:17:28Z</time>
      </trkpt>
      <trkpt lat="43.98161" lon="7.08641">
        <ele>1221</ele>
        <time>2012-10-13T09:17:37Z</time>
      </trkpt>
      <trkpt lat="43.9816" lon="7.08642">
        <ele>1223.6</ele>
        <time>2012-10-13T09:17:45Z</time>
      </trkpt>
      <trkpt lat="43.98157" lon="7.08648">
        <ele>1222</ele>
        <time>2012-10-13T09:17:50Z</time>
      </trkpt>
      <trkpt lat="43.98141" lon="7.08668">
        <ele>1218.6</ele>
        <time>2012-10-13T09:18:02Z</time>
      </trkpt>
      <trkpt lat="43.98131" lon="7.08675">
        <ele>1216.4</ele>
        <time>2012-10-13T09:18:09Z</time>
      </trkpt>
      <trkpt lat="43.98123" lon="7.08686">
        <ele>1219.2</ele>
        <time>2012-10-13T09:18:16Z</time>
      </trkpt>
      <trkpt lat="43.98106" lon="7.08701">
        <ele>1220.8</ele>
        <time>2012-10-13T09:18:29Z</time>
      </trkpt>
      <trkpt lat="43.98097" lon="7.08715">
        <ele>1220.9</ele>
        <time>2012-10-13T09:18:35Z</time>
      </trkpt>
      <trkpt lat="43.98088" lon="7.08735">
        <ele>1220.3</ele>
        <time>2012-10-13T09:18:39Z</time>
      </trkpt>
      <trkpt lat="43.98074" lon="7.08758">
        <ele>1219.9</ele>
        <time>2012-10-13T09:18:43Z</time>
      </trkpt>
      <trkpt lat="43.98059" lon="7.08776">
        <ele>1221</ele>
        <time>2012-10-13T09:18:48Z</time>
      </trkpt>
      <trkpt lat="43.98053" lon="7.08788">
        <ele>1218.4</ele>
        <time>2012-10-13T09:18:52Z</time>
      </trkpt>
      <trkpt lat="43.98058" lon="7.08794">
        <ele>1220.6</ele>
        <time>2012-10-13T09:21:07Z</time>
      </trkpt>
      <trkpt lat="43.98064" lon="7.08828">
        <ele>1214.8</ele>
        <time>2012-10-13T09:21:19Z</time>
      </trkpt>
      <trkpt lat="43.98065" lon="7.08855">
        <ele>1219.9</ele>
        <time>2012-10-13T09:21:28Z</time>
      </trkpt>
      <trkpt lat="43.98068" lon="7.08865">
        <ele>1224.3</ele>
        <time>2012-10-13T09:21:41Z</time>
      </trkpt>
      <trkpt lat="43.98068" lon="7.08869">
        <ele>1223.9</ele>
        <time>2012-10-13T09:21:46Z</time>
      </trkpt>
      <trkpt lat="43.98076" lon="7.08897">
        <ele>1228.7</ele>
        <time>2012-10-13T09:22:17Z</time>
      </trkpt>
      <trkpt lat="43.98077" lon="7.08905">
        <ele>1231</ele>
        <time>2012-10-13T09:22:24Z</time>
      </trkpt>
      <trkpt lat="43.98077" lon="7.08906">
        <ele>1233.3</ele>
        <time>2012-10-13T09:22:32Z</time>
      </trkpt>
      <trkpt lat="43.98077" lon="7.08941">
        <ele>1234.6</ele>
        <time>2012-10-13T09:22:49Z</time>
      </trkpt>
      <trkpt lat="43.98072" lon="7.0896">
        <ele>1236.6</ele>
        <time>2012-10-13T09:22:55Z</time>
      </trkpt>
      <trkpt lat="43.98071" lon="7.08969">
        <ele>1234.4</ele>
        <time>2012-10-13T09:22:59Z</time>
      </trkpt>
      <trkpt lat="43.98068" lon="7.08981">
        <ele>1235.2</ele>
        <time>2012-10-13T09:23:04Z</time>
      </trkpt>
      <trkpt lat="43.98053" lon="7.09004">
        <ele>1242.6</ele>
        <time>2012-10-13T09:23:22Z</time>
      </trkpt>
      <trkpt lat="43.98047" lon="7.09008">
        <ele>1244.7</ele>
        <time>2012-10-13T09:23:29Z</time>
      </trkpt>
      <trkpt lat="43.98043" lon="7.09013">
        <ele>1245.7</ele>
        <time>2012-10-13T09:23:41Z</time>
      </trkpt>
      <trkpt lat="43.98037" lon="7.09015">
        <ele>1238.7</ele>
        <time>2012-10-13T09:23:49Z</time>
      </trkpt>
      <trkpt lat="43.98031" lon="7.09016">
        <ele>1237.2</ele>
        <time>2012-10-13T09:23:56Z</time>
      </trkpt>
      <trkpt lat="43.9803" lon="7.09021">
        <ele>1239.3</ele>
        <time>2012-10-13T09:24:01Z</time>
      </trkpt>
      <trkpt lat="43.98028" lon="7.09022">
        <ele>1241</ele>
        <time>2012-10-13T09:24:05Z</time>
      </trkpt>
      <trkpt lat="43.98026" lon="7.09025">
        <ele>1242.9</ele>
        <time>2012-10-13T09:24:09Z</time>
      </trkpt>
      <trkpt lat="43.98021" lon="7.09034">
        <ele>1249.7</ele>
        <time>2012-10-13T09:24:18Z</time>
      </trkpt>
      <trkpt lat="43.98019" lon="7.09043">
        <ele>1253.2</ele>
        <time>2012-10-13T09:24:25Z</time>
      </trkpt>
      <trkpt lat="43.98019" lon="7.09049">
        <ele>1247.9</ele>
        <time>2012-10-13T09:24:38Z</time>
      </trkpt>
      <trkpt lat="43.98016" lon="7.09056">
        <ele>1247.2</ele>
        <time>2012-10-13T09:24:42Z</time>
      </trkpt>
      <trkpt lat="43.98008" lon="7.09065">
        <ele>1248.2</ele>
        <time>2012-10-13T09:24:48Z</time>
      </trkpt>
      <trkpt lat="43.98008" lon="7.09067">
        <ele>1249.4</ele>
        <time>2012-10-13T09:24:49Z</time>
      </trkpt>
      <trkpt lat="43.97999" lon="7.09075">
        <ele>1252.2</ele>
        <time>2012-10-13T09:24:56Z</time>
      </trkpt>
      <trkpt lat="43.97997" lon="7.09077">
        <ele>1254.2</ele>
        <time>2012-10-13T09:25:01Z</time>
      </trkpt>
      <trkpt lat="43.97995" lon="7.09082">
        <ele>1255.2</ele>
        <time>2012-10-13T09:25:06Z</time>
      </trkpt>
      <trkpt lat="43.9799" lon="7.09089">
        <ele>1257</ele>
        <time>2012-10-13T09:25:14Z</time>
      </trkpt>
      <trkpt lat="43.97994" lon="7.09092">
        <ele>1258.2</ele>
        <time>2012-10-13T09:25:20Z</time>
      </trkpt>
      <trkpt lat="43.97998" lon="7.09093">
        <ele>1258.7</ele>
        <time>2012-10-13T09:25:27Z</time>
      </trkpt>
      <trkpt lat="43.98005" lon="7.09091">
        <ele>1260</ele>
        <time>2012-10-13T09:25:36Z</time>
      </trkpt>
      <trkpt lat="43.98013" lon="7.09091">
        <ele>1259.9</ele>
        <time>2012-10-13T09:25:46Z</time>
      </trkpt>
      <trkpt lat="43.98019" lon="7.09091">
        <ele>1257.5</ele>
        <time>2012-10-13T09:25:54Z</time>
      </trkpt>
      <trkpt lat="43.98021" lon="7.09095">
        <ele>1258.9</ele>
        <time>2012-10-13T09:26:02Z</time>
      </trkpt>
      <trkpt lat="43.98018" lon="7.09107">
        <ele>1269.1</ele>
        <time>2012-10-13T09:26:17Z</time>
      </trkpt>
      <trkpt lat="43.98015" lon="7.0911">
        <ele>1271.1</ele>
        <time>2012-10-13T09:26:24Z</time>
      </trkpt>
      <trkpt lat="43.98003" lon="7.09133">
        <ele>1280.5</ele>
        <time>2012-10-13T09:26:59Z</time>
      </trkpt>
      <trkpt lat="43.98002" lon="7.0914">
        <ele>1282.1</ele>
        <time>2012-10-13T09:27:08Z</time>
      </trkpt>
      <trkpt lat="43.97999" lon="7.09171">
        <ele>1282.9</ele>
        <time>2012-10-13T09:27:43Z</time>
      </trkpt>
      <trkpt lat="43.97999" lon="7.09186">
        <ele>1290.8</ele>
        <time>2012-10-13T09:28:00Z</time>
      </trkpt>
      <trkpt lat="43.98" lon="7.09193">
        <ele>1293.3</ele>
        <time>2012-10-13T09:28:08Z</time>
      </trkpt>
      <trkpt lat="43.98" lon="7.09214">
        <ele>1293.4</ele>
        <time>2012-10-13T09:28:33Z</time>
      </trkpt>
      <trkpt lat="43.97999" lon="7.09216">
        <ele>1296.1</ele>
        <time>2012-10-13T09:28:35Z</time>
      </trkpt>
      <trkpt lat="43.98" lon="7.09223">
        <ele>1294.7</ele>
        <time>2012-10-13T09:28:43Z</time>
      </trkpt>
      <trkpt lat="43.97997" lon="7.09242">
        <ele>1308.2</ele>
        <time>2012-10-13T09:29:08Z</time>
      </trkpt>
      <trkpt lat="43.97998" lon="7.09258">
        <ele>1307</ele>
        <time>2012-10-13T09:29:23Z</time>
      </trkpt>
      <trkpt lat="43.97996" lon="7.09285">
        <ele>1328.6</ele>
        <time>2012-10-13T09:29:43Z</time>
      </trkpt>
      <trkpt lat="43.97995" lon="7.0929">
        <ele>1330.1</ele>
        <time>2012-10-13T09:29:47Z</time>
      </trkpt>
      <trkpt lat="43.97994" lon="7.09299">
        <ele>1334.3</ele>
        <time>2012-10-13T09:29:53Z</time>
      </trkpt>
      <trkpt lat="43.97993" lon="7.09307">
        <ele>1338.8</ele>
        <time>2012-10-13T09:30:00Z</time>
      </trkpt>
      <trkpt lat="43.97993" lon="7.09315">
        <ele>1351</ele>
        <time>2012-10-13T09:30:08Z</time>
      </trkpt>
      <trkpt lat="43.97993" lon="7.09317">
        <ele>1358.2</ele>
        <time>2012-10-13T09:30:13Z</time>
      </trkpt>
      <trkpt lat="43.97994" lon="7.09318">
        <ele>1352.2</ele>
        <time>2012-10-13T09:30:19Z</time>
      </trkpt>
      <trkpt lat="43.97995" lon="7.09318">
        <ele>1342.1</ele>
        <time>2012-10-13T09:30:25Z</time>
      </trkpt>
      <trkpt lat="43.97993" lon="7.0932">
        <ele>1337.5</ele>
        <time>2012-10-13T09:30:31Z</time>
      </trkpt>
      <trkpt lat="43.97992" lon="7.09325">
        <ele>1330.8</ele>
        <time>2012-10-13T09:30:36Z</time>
      </trkpt>
      <trkpt lat="43.97986" lon="7.09327">
        <ele>1316</ele>
        <time>2012-10-13T09:30:45Z</time>
      </trkpt>
      <trkpt lat="43.97987" lon="7.09331">
        <ele>1314.1</ele>
        <time>2012-10-13T09:30:50Z</time>
      </trkpt>
      <trkpt lat="43.97985" lon="7.09337">
        <ele>1313.6</ele>
        <time>2012-10-13T09:30:57Z</time>
      </trkpt>
      <trkpt lat="43.97988" lon="7.09338">
        <ele>1310.6</ele>
        <time>2012-10-13T09:31:04Z</time>
      </trkpt>
      <trkpt lat="43.97992" lon="7.09337">
        <ele>1310.5</ele>
        <time>2012-10-13T09:31:10Z</time>
      </trkpt>
      <trkpt lat="43.97997" lon="7.09338">
        <ele>1312.9</ele>
        <time>2012-10-13T09:31:18Z</time>
      </trkpt>
      <trkpt lat="43.98" lon="7.0934">
        <ele>1312.2</ele>
        <time>2012-10-13T09:31:24Z</time>
      </trkpt>
      <trkpt lat="43.98002" lon="7.09341">
        <ele>1312.2</ele>
        <time>2012-10-13T09:31:29Z</time>
      </trkpt>
      <trkpt lat="43.98003" lon="7.09344">
        <ele>1317</ele>
        <time>2012-10-13T09:31:38Z</time>
      </trkpt>
      <trkpt lat="43.98" lon="7.09345">
        <ele>1319.6</ele>
        <time>2012-10-13T09:31:44Z</time>
      </trkpt>
      <trkpt lat="43.97997" lon="7.09348">
        <ele>1320.9</ele>
        <time>2012-10-13T09:31:50Z</time>
      </trkpt>
      <trkpt lat="43.97993" lon="7.0935">
        <ele>1322.8</ele>
        <time>2012-10-13T09:31:57Z</time>
      </trkpt>
      <trkpt lat="43.9799" lon="7.09354">
        <ele>1325.5</ele>
        <time>2012-10-13T09:32:04Z</time>
      </trkpt>
      <trkpt lat="43.97967" lon="7.09377">
        <ele>1337.1</ele>
        <time>2012-10-13T09:32:53Z</time>
      </trkpt>
      <trkpt lat="43.97964" lon="7.09381">
        <ele>1339.7</ele>
        <time>2012-10-13T09:33:00Z</time>
      </trkpt>
      <trkpt lat="43.9796" lon="7.09386">
        <ele>1341.3</ele>
        <time>2012-10-13T09:33:07Z</time>
      </trkpt>
      <trkpt lat="43.9796" lon="7.09387">
        <ele>1340.1</ele>
        <time>2012-10-13T09:33:13Z</time>
      </trkpt>
      <trkpt lat="43.97958" lon="7.09385">
        <ele>1336.7</ele>
        <time>2012-10-13T09:33:30Z</time>
      </trkpt>
      <trkpt lat="43.9796" lon="7.0939">
        <ele>1333.1</ele>
        <time>2012-10-13T09:34:56Z</time>
      </trkpt>
      <trkpt lat="43.97957" lon="7.09389">
        <ele>1325.5</ele>
        <time>2012-10-13T09:35:32Z</time>
      </trkpt>
      <trkpt lat="43.97953" lon="7.09391">
        <ele>1331</ele>
        <time>2012-10-13T09:40:03Z</time>
      </trkpt>
      <trkpt lat="43.97952" lon="7.09393">
        <ele>1332.7</ele>
        <time>2012-10-13T09:40:14Z</time>
      </trkpt>
      <trkpt lat="43.97944" lon="7.09403">
        <ele>1331.1</ele>
        <time>2012-10-13T09:40:21Z</time>
      </trkpt>
      <trkpt lat="43.97935" lon="7.09409">
        <ele>1331.1</ele>
        <time>2012-10-13T09:40:28Z</time>
      </trkpt>
      <trkpt lat="43.97928" lon="7.09417">
        <ele>1331.7</ele>
        <time>2012-10-13T09:40:33Z</time>
      </trkpt>
      <trkpt lat="43.97917" lon="7.09426">
        <ele>1332.1</ele>
        <time>2012-10-13T09:40:40Z</time>
      </trkpt>
      <trkpt lat="43.97887" lon="7.0944">
        <ele>1332.7</ele>
        <time>2012-10-13T09:40:52Z</time>
      </trkpt>
      <trkpt lat="43.97811" lon="7.09455">
        <ele>1329.5</ele>
        <time>2012-10-13T09:41:21Z</time>
      </trkpt>
      <trkpt lat="43.97711" lon="7.09463">
        <ele>1326.6</ele>
        <time>2012-10-13T09:41:54Z</time>
      </trkpt>
      <trkpt lat="43.97695" lon="7.09461">
        <ele>1329.4</ele>
        <time>2012-10-13T09:42:01Z</time>
      </trkpt>
      <trkpt lat="43.9767" lon="7.09464">
        <ele>1328.6</ele>
        <time>2012-10-13T09:42:13Z</time>
      </trkpt>
      <trkpt lat="43.9765" lon="7.09455">
        <ele>1325.8</ele>
        <time>2012-10-13T09:42:21Z</time>
      </trkpt>
      <trkpt lat="43.97624" lon="7.09452">
        <ele>1321.5</ele>
        <time>2012-10-13T09:42:29Z</time>
      </trkpt>
      <trkpt lat="43.97619" lon="7.09451">
        <ele>1321</ele>
        <time>2012-10-13T09:42:30Z</time>
      </trkpt>
      <trkpt lat="43.97582" lon="7.09451">
        <ele>1317.6</ele>
        <time>2012-10-13T09:42:41Z</time>
      </trkpt>
      <trkpt lat="43.97562" lon="7.09445">
        <ele>1318.2</ele>
        <time>2012-10-13T09:42:46Z</time>
      </trkpt>
      <trkpt lat="43.97552" lon="7.09447">
        <ele>1318.7</ele>
        <time>2012-10-13T09:42:51Z</time>
      </trkpt>
      <trkpt lat="43.97545" lon="7.09464">
        <ele>1318.8</ele>
        <time>2012-10-13T09:42:56Z</time>
      </trkpt>
      <trkpt lat="43.97542" lon="7.09485">
        <ele>1317.1</ele>
        <time>2012-10-13T09:43:00Z</time>
      </trkpt>
      <trkpt lat="43.97539" lon="7.09498">
        <ele>1317.1</ele>
        <time>2012-10-13T09:43:03Z</time>
      </trkpt>
      <trkpt lat="43.97534" lon="7.09504">
        <ele>1317.4</ele>
        <time>2012-10-13T09:43:07Z</time>
      </trkpt>
      <trkpt lat="43.97533" lon="7.09501">
        <ele>1324.3</ele>
        <time>2012-10-13T09:45:17Z</time>
      </trkpt>
      <trkpt lat="43.97529" lon="7.09507">
        <ele>1324.5</ele>
        <time>2012-10-13T09:45:23Z</time>
      </trkpt>
      <trkpt lat="43.97525" lon="7.09514">
        <ele>1322.8</ele>
        <time>2012-10-13T09:45:25Z</time>
      </trkpt>
      <trkpt lat="43.97511" lon="7.09526">
        <ele>1318.9</ele>
        <time>2012-10-13T09:45:30Z</time>
      </trkpt>
      <trkpt lat="43.97507" lon="7.09525">
        <ele>1317.3</ele>
        <time>2012-10-13T09:45:34Z</time>
      </trkpt>
      <trkpt lat="43.975" lon="7.09521">
        <ele>1314.6</ele>
        <time>2012-10-13T09:45:42Z</time>
      </trkpt>
      <trkpt lat="43.97497" lon="7.09521">
        <ele>1312.6</ele>
        <time>2012-10-13T09:45:49Z</time>
      </trkpt>
      <trkpt lat="43.97494" lon="7.09522">
        <ele>1310.6</ele>
        <time>2012-10-13T09:45:55Z</time>
      </trkpt>
      <trkpt lat="43.97488" lon="7.09518">
        <ele>1308.4</ele>
        <time>2012-10-13T09:46:11Z</time>
      </trkpt>
      <trkpt lat="43.97486" lon="7.09522">
        <ele>1303.4</ele>
        <time>2012-10-13T09:46:25Z</time>
      </trkpt>
      <trkpt lat="43.97467" lon="7.09535">
        <ele>1301.3</ele>
        <time>2012-10-13T09:46:47Z</time>
      </trkpt>
      <trkpt lat="43.97463" lon="7.0954">
        <ele>1299.7</ele>
        <time>2012-10-13T09:46:49Z</time>
      </trkpt>
      <trkpt lat="43.97458" lon="7.09544">
        <ele>1299.8</ele>
        <time>2012-10-13T09:46:51Z</time>
      </trkpt>
      <trkpt lat="43.97449" lon="7.09566">
        <ele>1298.9</ele>
        <time>2012-10-13T09:46:55Z</time>
      </trkpt>
      <trkpt lat="43.97442" lon="7.09606">
        <ele>1298</ele>
        <time>2012-10-13T09:47:01Z</time>
      </trkpt>
      <trkpt lat="43.97425" lon="7.09635">
        <ele>1298.3</ele>
        <time>2012-10-13T09:47:07Z</time>
      </trkpt>
      <trkpt lat="43.97419" lon="7.09638">
        <ele>1298.4</ele>
        <time>2012-10-13T09:47:09Z</time>
      </trkpt>
      <trkpt lat="43.97395" lon="7.09665">
        <ele>1300.9</ele>
        <time>2012-10-13T09:47:18Z</time>
      </trkpt>
      <trkpt lat="43.97388" lon="7.09679">
        <ele>1301.9</ele>
        <time>2012-10-13T09:47:23Z</time>
      </trkpt>
      <trkpt lat="43.97381" lon="7.09679">
        <ele>1302</ele>
        <time>2012-10-13T09:47:27Z</time>
      </trkpt>
      <trkpt lat="43.97371" lon="7.09671">
        <ele>1302.2</ele>
        <time>2012-10-13T09:47:33Z</time>
      </trkpt>
      <trkpt lat="43.97349" lon="7.09661">
        <ele>1301.5</ele>
        <time>2012-10-13T09:47:42Z</time>
      </trkpt>
      <trkpt lat="43.97339" lon="7.09661">
        <ele>1302.5</ele>
        <time>2012-10-13T09:47:47Z</time>
      </trkpt>
      <trkpt lat="43.97328" lon="7.09664">
        <ele>1304.7</ele>
        <time>2012-10-13T09:47:54Z</time>
      </trkpt>
      <trkpt lat="43.97317" lon="7.09669">
        <ele>1306.3</ele>
        <time>2012-10-13T09:48:01Z</time>
      </trkpt>
      <trkpt lat="43.97304" lon="7.09671">
        <ele>1308</ele>
        <time>2012-10-13T09:48:10Z</time>
      </trkpt>
      <trkpt lat="43.97294" lon="7.09674">
        <ele>1310.3</ele>
        <time>2012-10-13T09:48:16Z</time>
      </trkpt>
      <trkpt lat="43.97281" lon="7.09679">
        <ele>1311.6</ele>
        <time>2012-10-13T09:48:24Z</time>
      </trkpt>
      <trkpt lat="43.97272" lon="7.0968">
        <ele>1311.6</ele>
        <time>2012-10-13T09:48:30Z</time>
      </trkpt>
      <trkpt lat="43.9726" lon="7.09685">
        <ele>1311.5</ele>
        <time>2012-10-13T09:48:38Z</time>
      </trkpt>
      <trkpt lat="43.9723" lon="7.09689">
        <ele>1315.1</ele>
        <time>2012-10-13T09:48:55Z</time>
      </trkpt>
      <trkpt lat="43.97196" lon="7.09703">
        <ele>1321.1</ele>
        <time>2012-10-13T09:49:16Z</time>
      </trkpt>
      <trkpt lat="43.97193" lon="7.09706">
        <ele>1322.1</ele>
        <time>2012-10-13T09:49:19Z</time>
      </trkpt>
      <trkpt lat="43.97191" lon="7.09712">
        <ele>1323.8</ele>
        <time>2012-10-13T09:49:23Z</time>
      </trkpt>
      <trkpt lat="43.97195" lon="7.0972">
        <ele>1326</ele>
        <time>2012-10-13T09:49:29Z</time>
      </trkpt>
      <trkpt lat="43.972" lon="7.09737">
        <ele>1326</ele>
        <time>2012-10-13T09:49:38Z</time>
      </trkpt>
      <trkpt lat="43.972" lon="7.09767">
        <ele>1326.1</ele>
        <time>2012-10-13T09:49:52Z</time>
      </trkpt>
      <trkpt lat="43.97213" lon="7.09786">
        <ele>1334.9</ele>
        <time>2012-10-13T09:50:06Z</time>
      </trkpt>
      <trkpt lat="43.97234" lon="7.0981">
        <ele>1336.9</ele>
        <time>2012-10-13T09:50:23Z</time>
      </trkpt>
      <trkpt lat="43.97234" lon="7.09809">
        <ele>1338.8</ele>
        <time>2012-10-13T09:51:08Z</time>
      </trkpt>
      <trkpt lat="43.97234" lon="7.09811">
        <ele>1338.6</ele>
        <time>2012-10-13T09:51:19Z</time>
      </trkpt>
      <trkpt lat="43.97241" lon="7.09816">
        <ele>1339.3</ele>
        <time>2012-10-13T09:51:34Z</time>
      </trkpt>
      <trkpt lat="43.97319" lon="7.09866">
        <ele>1333.4</ele>
        <time>2012-10-13T09:51:52Z</time>
      </trkpt>
      <trkpt lat="43.97342" lon="7.09875">
        <ele>1332.8</ele>
        <time>2012-10-13T09:51:57Z</time>
      </trkpt>
      <trkpt lat="43.97366" lon="7.09891">
        <ele>1331.1</ele>
        <time>2012-10-13T09:52:06Z</time>
      </trkpt>
      <trkpt lat="43.9738" lon="7.09897">
        <ele>1329.7</ele>
        <time>2012-10-13T09:52:12Z</time>
      </trkpt>
      <trkpt lat="43.97393" lon="7.09907">
        <ele>1330.5</ele>
        <time>2012-10-13T09:52:18Z</time>
      </trkpt>
      <trkpt lat="43.97414" lon="7.09916">
        <ele>1336.6</ele>
        <time>2012-10-13T09:52:24Z</time>
      </trkpt>
      <trkpt lat="43.97428" lon="7.09917">
        <ele>1335.4</ele>
        <time>2012-10-13T09:52:28Z</time>
      </trkpt>
      <trkpt lat="43.97439" lon="7.09915">
        <ele>1335.1</ele>
        <time>2012-10-13T09:52:33Z</time>
      </trkpt>
      <trkpt lat="43.97441" lon="7.09914">
        <ele>1335.2</ele>
        <time>2012-10-13T09:52:34Z</time>
      </trkpt>
      <trkpt lat="43.97454" lon="7.09923">
        <ele>1338.5</ele>
        <time>2012-10-13T09:52:40Z</time>
      </trkpt>
      <trkpt lat="43.97462" lon="7.09934">
        <ele>1342.8</ele>
        <time>2012-10-13T09:52:45Z</time>
      </trkpt>
      <trkpt lat="43.97471" lon="7.09942">
        <ele>1334</ele>
        <time>2012-10-13T09:52:51Z</time>
      </trkpt>
      <trkpt lat="43.97473" lon="7.09944">
        <ele>1333</ele>
        <time>2012-10-13T09:52:53Z</time>
      </trkpt>
      <trkpt lat="43.97484" lon="7.09945">
        <ele>1338.3</ele>
        <time>2012-10-13T09:53:00Z</time>
      </trkpt>
      <trkpt lat="43.97493" lon="7.0995">
        <ele>1345.3</ele>
        <time>2012-10-13T09:53:05Z</time>
      </trkpt>
      <trkpt lat="43.97494" lon="7.09951">
        <ele>1347.2</ele>
        <time>2012-10-13T09:53:06Z</time>
      </trkpt>
      <trkpt lat="43.97502" lon="7.09955">
        <ele>1348.2</ele>
        <time>2012-10-13T09:53:12Z</time>
      </trkpt>
      <trkpt lat="43.97503" lon="7.09967">
        <ele>1356.1</ele>
        <time>2012-10-13T09:53:35Z</time>
      </trkpt>
      <trkpt lat="43.97509" lon="7.09965">
        <ele>1346.2</ele>
        <time>2012-10-13T09:53:43Z</time>
      </trkpt>
      <trkpt lat="43.9751" lon="7.09966">
        <ele>1345.6</ele>
        <time>2012-10-13T09:53:44Z</time>
      </trkpt>
      <trkpt lat="43.97537" lon="7.09987">
        <ele>1353</ele>
        <time>2012-10-13T09:53:55Z</time>
      </trkpt>
      <trkpt lat="43.97556" lon="7.1001">
        <ele>1360.8</ele>
        <time>2012-10-13T09:54:04Z</time>
      </trkpt>
      <trkpt lat="43.97593" lon="7.10037">
        <ele>1359.5</ele>
        <time>2012-10-13T09:54:16Z</time>
      </trkpt>
      <trkpt lat="43.97608" lon="7.10055">
        <ele>1356.8</ele>
        <time>2012-10-13T09:54:21Z</time>
      </trkpt>
      <trkpt lat="43.97616" lon="7.10061">
        <ele>1356.3</ele>
        <time>2012-10-13T09:54:23Z</time>
      </trkpt>
      <trkpt lat="43.97627" lon="7.10073">
        <ele>1353.6</ele>
        <time>2012-10-13T09:54:26Z</time>
      </trkpt>
      <trkpt lat="43.97679" lon="7.10152">
        <ele>1338.3</ele>
        <time>2012-10-13T09:54:43Z</time>
      </trkpt>
      <trkpt lat="43.97691" lon="7.10163">
        <ele>1331.3</ele>
        <time>2012-10-13T09:54:46Z</time>
      </trkpt>
      <trkpt lat="43.97717" lon="7.10179">
        <ele>1318.8</ele>
        <time>2012-10-13T09:54:52Z</time>
      </trkpt>
      <trkpt lat="43.97764" lon="7.10228">
        <ele>1311</ele>
        <time>2012-10-13T09:55:04Z</time>
      </trkpt>
      <trkpt lat="43.97772" lon="7.10227">
        <ele>1310.5</ele>
        <time>2012-10-13T09:55:06Z</time>
      </trkpt>
      <trkpt lat="43.97796" lon="7.10239">
        <ele>1304.6</ele>
        <time>2012-10-13T09:55:13Z</time>
      </trkpt>
      <trkpt lat="43.97809" lon="7.10247">
        <ele>1299.8</ele>
        <time>2012-10-13T09:55:19Z</time>
      </trkpt>
      <trkpt lat="43.9781" lon="7.10246">
        <ele>1299.1</ele>
        <time>2012-10-13T09:55:24Z</time>
      </trkpt>
      <trkpt lat="43.9781" lon="7.10247">
        <ele>1298.5</ele>
        <time>2012-10-13T09:55:25Z</time>
      </trkpt>
      <trkpt lat="43.97816" lon="7.10246">
        <ele>1298.1</ele>
        <time>2012-10-13T09:55:29Z</time>
      </trkpt>
      <trkpt lat="43.97815" lon="7.1025">
        <ele>1295.8</ele>
        <time>2012-10-13T09:55:32Z</time>
      </trkpt>
      <trkpt lat="43.97815" lon="7.10261">
        <ele>1294.3</ele>
        <time>2012-10-13T09:55:37Z</time>
      </trkpt>
      <trkpt lat="43.97825" lon="7.10266">
        <ele>1290.6</ele>
        <time>2012-10-13T09:55:40Z</time>
      </trkpt>
      <trkpt lat="43.97838" lon="7.10267">
        <ele>1287.5</ele>
        <time>2012-10-13T09:55:44Z</time>
      </trkpt>
      <trkpt lat="43.97849" lon="7.10281">
        <ele>1288.6</ele>
        <time>2012-10-13T09:55:48Z</time>
      </trkpt>
      <trkpt lat="43.97868" lon="7.10291">
        <ele>1286.2</ele>
        <time>2012-10-13T09:55:53Z</time>
      </trkpt>
      <trkpt lat="43.97877" lon="7.10292">
        <ele>1285</ele>
        <time>2012-10-13T09:55:55Z</time>
      </trkpt>
      <trkpt lat="43.9789" lon="7.10298">
        <ele>1285.7</ele>
        <time>2012-10-13T09:55:58Z</time>
      </trkpt>
      <trkpt lat="43.97903" lon="7.10307">
        <ele>1283.4</ele>
        <time>2012-10-13T09:56:01Z</time>
      </trkpt>
      <trkpt lat="43.97922" lon="7.10311">
        <ele>1280.1</ele>
        <time>2012-10-13T09:56:05Z</time>
      </trkpt>
      <trkpt lat="43.97944" lon="7.10313">
        <ele>1278.6</ele>
        <time>2012-10-13T09:56:11Z</time>
      </trkpt>
      <trkpt lat="43.97954" lon="7.10317">
        <ele>1279.4</ele>
        <time>2012-10-13T09:56:15Z</time>
      </trkpt>
      <trkpt lat="43.97956" lon="7.1032">
        <ele>1281.6</ele>
        <time>2012-10-13T09:56:17Z</time>
      </trkpt>
      <trkpt lat="43.97955" lon="7.10332">
        <ele>1283.7</ele>
        <time>2012-10-13T09:56:24Z</time>
      </trkpt>
      <trkpt lat="43.97948" lon="7.10341">
        <ele>1294.2</ele>
        <time>2012-10-13T09:56:30Z</time>
      </trkpt>
      <trkpt lat="43.97936" lon="7.10352">
        <ele>1289.1</ele>
        <time>2012-10-13T09:56:36Z</time>
      </trkpt>
      <trkpt lat="43.97928" lon="7.10362">
        <ele>1293.6</ele>
        <time>2012-10-13T09:56:42Z</time>
      </trkpt>
      <trkpt lat="43.97919" lon="7.10369">
        <ele>1296.6</ele>
        <time>2012-10-13T09:56:48Z</time>
      </trkpt>
      <trkpt lat="43.97913" lon="7.10375">
        <ele>1293.5</ele>
        <time>2012-10-13T09:56:51Z</time>
      </trkpt>
      <trkpt lat="43.97886" lon="7.10425">
        <ele>1276.4</ele>
        <time>2012-10-13T09:57:06Z</time>
      </trkpt>
      <trkpt lat="43.97882" lon="7.10444">
        <ele>1274.2</ele>
        <time>2012-10-13T09:57:10Z</time>
      </trkpt>
      <trkpt lat="43.97864" lon="7.10489">
        <ele>1272.1</ele>
        <time>2012-10-13T09:57:22Z</time>
      </trkpt>
      <trkpt lat="43.97861" lon="7.10505">
        <ele>1270.1</ele>
        <time>2012-10-13T09:57:25Z</time>
      </trkpt>
      <trkpt lat="43.97849" lon="7.10531">
        <ele>1270.4</ele>
        <time>2012-10-13T09:57:30Z</time>
      </trkpt>
      <trkpt lat="43.9783" lon="7.10558">
        <ele>1271.6</ele>
        <time>2012-10-13T09:57:37Z</time>
      </trkpt>
      <trkpt lat="43.97815" lon="7.10572">
        <ele>1266.6</ele>
        <time>2012-10-13T09:57:42Z</time>
      </trkpt>
      <trkpt lat="43.97796" lon="7.10578">
        <ele>1263.6</ele>
        <time>2012-10-13T09:57:46Z</time>
      </trkpt>
      <trkpt lat="43.97778" lon="7.10587">
        <ele>1262</ele>
        <time>2012-10-13T09:57:50Z</time>
      </trkpt>
      <trkpt lat="43.97759" lon="7.10601">
        <ele>1258.9</ele>
        <time>2012-10-13T09:57:56Z</time>
      </trkpt>
      <trkpt lat="43.97751" lon="7.10614">
        <ele>1255.9</ele>
        <time>2012-10-13T09:57:59Z</time>
      </trkpt>
      <trkpt lat="43.97738" lon="7.10613">
        <ele>1255.7</ele>
        <time>2012-10-13T09:58:02Z</time>
      </trkpt>
      <trkpt lat="43.9772" lon="7.10616">
        <ele>1254.4</ele>
        <time>2012-10-13T09:58:07Z</time>
      </trkpt>
      <trkpt lat="43.97714" lon="7.1063">
        <ele>1252.2</ele>
        <time>2012-10-13T09:58:11Z</time>
      </trkpt>
      <trkpt lat="43.97712" lon="7.10634">
        <ele>1252.2</ele>
        <time>2012-10-13T09:58:12Z</time>
      </trkpt>
      <trkpt lat="43.97677" lon="7.10644">
        <ele>1251.6</ele>
        <time>2012-10-13T09:58:25Z</time>
      </trkpt>
      <trkpt lat="43.97659" lon="7.10647">
        <ele>1253</ele>
        <time>2012-10-13T09:58:33Z</time>
      </trkpt>
      <trkpt lat="43.97615" lon="7.10677">
        <ele>1257</ele>
        <time>2012-10-13T09:58:54Z</time>
      </trkpt>
      <trkpt lat="43.97598" lon="7.10697">
        <ele>1254</ele>
        <time>2012-10-13T09:59:01Z</time>
      </trkpt>
      <trkpt lat="43.97577" lon="7.10731">
        <ele>1255.5</ele>
        <time>2012-10-13T09:59:14Z</time>
      </trkpt>
      <trkpt lat="43.97563" lon="7.10737">
        <ele>1254.3</ele>
        <time>2012-10-13T09:59:20Z</time>
      </trkpt>
      <trkpt lat="43.97531" lon="7.10742">
        <ele>1248.4</ele>
        <time>2012-10-13T09:59:33Z</time>
      </trkpt>
      <trkpt lat="43.97513" lon="7.10745">
        <ele>1243.9</ele>
        <time>2012-10-13T09:59:41Z</time>
      </trkpt>
      <trkpt lat="43.97501" lon="7.10751">
        <ele>1240</ele>
        <time>2012-10-13T09:59:48Z</time>
      </trkpt>
      <trkpt lat="43.97489" lon="7.10755">
        <ele>1245.4</ele>
        <time>2012-10-13T09:59:56Z</time>
      </trkpt>
      <trkpt lat="43.97465" lon="7.10768">
        <ele>1247.5</ele>
        <time>2012-10-13T10:00:12Z</time>
      </trkpt>
      <trkpt lat="43.97452" lon="7.10777">
        <ele>1245</ele>
        <time>2012-10-13T10:00:20Z</time>
      </trkpt>
      <trkpt lat="43.9744" lon="7.10781">
        <ele>1247.4</ele>
        <time>2012-10-13T10:00:25Z</time>
      </trkpt>
      <trkpt lat="43.97432" lon="7.10784">
        <ele>1248.2</ele>
        <time>2012-10-13T10:00:27Z</time>
      </trkpt>
      <trkpt lat="43.9741" lon="7.10799">
        <ele>1253.1</ele>
        <time>2012-10-13T10:00:38Z</time>
      </trkpt>
      <trkpt lat="43.97405" lon="7.108">
        <ele>1252.2</ele>
        <time>2012-10-13T10:00:49Z</time>
      </trkpt>
      <trkpt lat="43.97399" lon="7.10804">
        <ele>1250.4</ele>
        <time>2012-10-13T10:00:55Z</time>
      </trkpt>
      <trkpt lat="43.97393" lon="7.10812">
        <ele>1249.5</ele>
        <time>2012-10-13T10:00:58Z</time>
      </trkpt>
      <trkpt lat="43.97392" lon="7.10835">
        <ele>1247.7</ele>
        <time>2012-10-13T10:01:02Z</time>
      </trkpt>
      <trkpt lat="43.97397" lon="7.10855">
        <ele>1246.6</ele>
        <time>2012-10-13T10:01:05Z</time>
      </trkpt>
      <trkpt lat="43.97397" lon="7.1088">
        <ele>1244.9</ele>
        <time>2012-10-13T10:01:08Z</time>
      </trkpt>
      <trkpt lat="43.974" lon="7.10914">
        <ele>1242.5</ele>
        <time>2012-10-13T10:01:12Z</time>
      </trkpt>
      <trkpt lat="43.97397" lon="7.10935">
        <ele>1239.5</ele>
        <time>2012-10-13T10:01:15Z</time>
      </trkpt>
      <trkpt lat="43.97386" lon="7.10946">
        <ele>1239.1</ele>
        <time>2012-10-13T10:01:18Z</time>
      </trkpt>
      <trkpt lat="43.97377" lon="7.10957">
        <ele>1239</ele>
        <time>2012-10-13T10:01:20Z</time>
      </trkpt>
      <trkpt lat="43.97375" lon="7.10976">
        <ele>1236.9</ele>
        <time>2012-10-13T10:01:23Z</time>
      </trkpt>
      <trkpt lat="43.97383" lon="7.11025">
        <ele>1233.4</ele>
        <time>2012-10-13T10:01:30Z</time>
      </trkpt>
      <trkpt lat="43.97382" lon="7.11038">
        <ele>1233.6</ele>
        <time>2012-10-13T10:01:33Z</time>
      </trkpt>
      <trkpt lat="43.97382" lon="7.1104">
        <ele>1232.9</ele>
        <time>2012-10-13T10:01:37Z</time>
      </trkpt>
      <trkpt lat="43.97381" lon="7.1104">
        <ele>1231.5</ele>
        <time>2012-10-13T10:02:15Z</time>
      </trkpt>
      <trkpt lat="43.97383" lon="7.11047">
        <ele>1232.3</ele>
        <time>2012-10-13T10:02:20Z</time>
      </trkpt>
      <trkpt lat="43.97387" lon="7.11052">
        <ele>1232.7</ele>
        <time>2012-10-13T10:02:25Z</time>
      </trkpt>
      <trkpt lat="43.97387" lon="7.11052">
        <ele>1233</ele>
        <time>2012-10-13T10:02:32Z</time>
      </trkpt>
      <trkpt lat="43.97384" lon="7.11052">
        <ele>1237.6</ele>
        <time>2012-10-13T10:27:40Z</time>
      </trkpt>
      <trkpt lat="43.9738" lon="7.11056">
        <ele>1223.9</ele>
        <time>2012-10-13T10:29:14Z</time>
      </trkpt>
      <trkpt lat="43.97385" lon="7.11064">
        <ele>1223.2</ele>
        <time>2012-10-13T10:29:19Z</time>
      </trkpt>
      <trkpt lat="43.97399" lon="7.11072">
        <ele>1222.7</ele>
        <time>2012-10-13T10:29:22Z</time>
      </trkpt>
      <trkpt lat="43.974" lon="7.11087">
        <ele>1221.7</ele>
        <time>2012-10-13T10:29:25Z</time>
      </trkpt>
      <trkpt lat="43.97394" lon="7.11084">
        <ele>1219.9</ele>
        <time>2012-10-13T10:29:27Z</time>
      </trkpt>
      <trkpt lat="43.97382" lon="7.11091">
        <ele>1218</ele>
        <time>2012-10-13T10:29:30Z</time>
      </trkpt>
      <trkpt lat="43.97313" lon="7.11158">
        <ele>1209.3</ele>
        <time>2012-10-13T10:29:43Z</time>
      </trkpt>
      <trkpt lat="43.97288" lon="7.11172">
        <ele>1207.8</ele>
        <time>2012-10-13T10:29:48Z</time>
      </trkpt>
      <trkpt lat="43.97269" lon="7.1118">
        <ele>1206.3</ele>
        <time>2012-10-13T10:29:52Z</time>
      </trkpt>
      <trkpt lat="43.97253" lon="7.11185">
        <ele>1206.6</ele>
        <time>2012-10-13T10:29:56Z</time>
      </trkpt>
      <trkpt lat="43.97256" lon="7.11193">
        <ele>1206.8</ele>
        <time>2012-10-13T10:30:00Z</time>
      </trkpt>
      <trkpt lat="43.97269" lon="7.11192">
        <ele>1211.2</ele>
        <time>2012-10-13T10:30:07Z</time>
      </trkpt>
      <trkpt lat="43.97278" lon="7.11189">
        <ele>1212.3</ele>
        <time>2012-10-13T10:30:14Z</time>
      </trkpt>
      <trkpt lat="43.97281" lon="7.11188">
        <ele>1212.2</ele>
        <time>2012-10-13T10:30:19Z</time>
      </trkpt>
      <trkpt lat="43.97309" lon="7.11179">
        <ele>1212.2</ele>
        <time>2012-10-13T10:30:29Z</time>
      </trkpt>
      <trkpt lat="43.97313" lon="7.11177">
        <ele>1211.8</ele>
        <time>2012-10-13T10:30:30Z</time>
      </trkpt>
      <trkpt lat="43.97338" lon="7.11164">
        <ele>1209.9</ele>
        <time>2012-10-13T10:30:35Z</time>
      </trkpt>
      <trkpt lat="43.97359" lon="7.11156">
        <ele>1207.6</ele>
        <time>2012-10-13T10:30:39Z</time>
      </trkpt>
      <trkpt lat="43.97388" lon="7.11155">
        <ele>1205.9</ele>
        <time>2012-10-13T10:30:44Z</time>
      </trkpt>
      <trkpt lat="43.97393" lon="7.11153">
        <ele>1205.1</ele>
        <time>2012-10-13T10:30:45Z</time>
      </trkpt>
      <trkpt lat="43.97409" lon="7.11154">
        <ele>1203.1</ele>
        <time>2012-10-13T10:30:49Z</time>
      </trkpt>
      <trkpt lat="43.97417" lon="7.11168">
        <ele>1201.4</ele>
        <time>2012-10-13T10:30:53Z</time>
      </trkpt>
      <trkpt lat="43.97424" lon="7.11192">
        <ele>1198.3</ele>
        <time>2012-10-13T10:30:58Z</time>
      </trkpt>
      <trkpt lat="43.97432" lon="7.11203">
        <ele>1197</ele>
        <time>2012-10-13T10:31:01Z</time>
      </trkpt>
      <trkpt lat="43.97448" lon="7.11218">
        <ele>1195.8</ele>
        <time>2012-10-13T10:31:05Z</time>
      </trkpt>
      <trkpt lat="43.97471" lon="7.1123">
        <ele>1193.5</ele>
        <time>2012-10-13T10:31:10Z</time>
      </trkpt>
      <trkpt lat="43.97489" lon="7.11245">
        <ele>1191.4</ele>
        <time>2012-10-13T10:31:17Z</time>
      </trkpt>
      <trkpt lat="43.97494" lon="7.11251">
        <ele>1187.5</ele>
        <time>2012-10-13T10:31:22Z</time>
      </trkpt>
      <trkpt lat="43.97497" lon="7.11253">
        <ele>1187.8</ele>
        <time>2012-10-13T10:31:25Z</time>
      </trkpt>
      <trkpt lat="43.97498" lon="7.11255">
        <ele>1186.9</ele>
        <time>2012-10-13T10:31:28Z</time>
      </trkpt>
      <trkpt lat="43.97505" lon="7.11257">
        <ele>1185.2</ele>
        <time>2012-10-13T10:31:32Z</time>
      </trkpt>
      <trkpt lat="43.97516" lon="7.11257">
        <ele>1184.1</ele>
        <time>2012-10-13T10:31:37Z</time>
      </trkpt>
      <trkpt lat="43.97533" lon="7.11272">
        <ele>1182.2</ele>
        <time>2012-10-13T10:31:45Z</time>
      </trkpt>
      <trkpt lat="43.97552" lon="7.11276">
        <ele>1177.8</ele>
        <time>2012-10-13T10:31:52Z</time>
      </trkpt>
      <trkpt lat="43.97563" lon="7.11273">
        <ele>1172.8</ele>
        <time>2012-10-13T10:31:57Z</time>
      </trkpt>
      <trkpt lat="43.97569" lon="7.1127">
        <ele>1170.9</ele>
        <time>2012-10-13T10:31:59Z</time>
      </trkpt>
      <trkpt lat="43.97586" lon="7.11269">
        <ele>1169.2</ele>
        <time>2012-10-13T10:32:04Z</time>
      </trkpt>
      <trkpt lat="43.97604" lon="7.11264">
        <ele>1167.3</ele>
        <time>2012-10-13T10:32:10Z</time>
      </trkpt>
      <trkpt lat="43.97609" lon="7.11262">
        <ele>1166.4</ele>
        <time>2012-10-13T10:32:11Z</time>
      </trkpt>
      <trkpt lat="43.97662" lon="7.11246">
        <ele>1149.7</ele>
        <time>2012-10-13T10:32:23Z</time>
      </trkpt>
      <trkpt lat="43.9768" lon="7.11236">
        <ele>1145.8</ele>
        <time>2012-10-13T10:32:28Z</time>
      </trkpt>
      <trkpt lat="43.97689" lon="7.11235">
        <ele>1145.8</ele>
        <time>2012-10-13T10:32:30Z</time>
      </trkpt>
      <trkpt lat="43.9771" lon="7.1123">
        <ele>1146.2</ele>
        <time>2012-10-13T10:32:35Z</time>
      </trkpt>
      <trkpt lat="43.97717" lon="7.11238">
        <ele>1147.8</ele>
        <time>2012-10-13T10:32:38Z</time>
      </trkpt>
      <trkpt lat="43.97718" lon="7.11254">
        <ele>1148.5</ele>
        <time>2012-10-13T10:32:41Z</time>
      </trkpt>
      <trkpt lat="43.97723" lon="7.11273">
        <ele>1147</ele>
        <time>2012-10-13T10:32:45Z</time>
      </trkpt>
      <trkpt lat="43.97726" lon="7.11299">
        <ele>1140.8</ele>
        <time>2012-10-13T10:32:52Z</time>
      </trkpt>
      <trkpt lat="43.97732" lon="7.11306">
        <ele>1138.9</ele>
        <time>2012-10-13T10:32:58Z</time>
      </trkpt>
      <trkpt lat="43.97733" lon="7.1131">
        <ele>1139.4</ele>
        <time>2012-10-13T10:33:24Z</time>
      </trkpt>
      <trkpt lat="43.97735" lon="7.11313">
        <ele>1138.4</ele>
        <time>2012-10-13T10:33:28Z</time>
      </trkpt>
      <trkpt lat="43.97735" lon="7.11313">
        <ele>1137.5</ele>
        <time>2012-10-13T10:33:30Z</time>
      </trkpt>
      <trkpt lat="43.97726" lon="7.11319">
        <ele>1136.7</ele>
        <time>2012-10-13T10:33:36Z</time>
      </trkpt>
      <trkpt lat="43.97713" lon="7.11325">
        <ele>1135.5</ele>
        <time>2012-10-13T10:33:40Z</time>
      </trkpt>
      <trkpt lat="43.97713" lon="7.1133">
        <ele>1136</ele>
        <time>2012-10-13T10:33:44Z</time>
      </trkpt>
      <trkpt lat="43.97715" lon="7.1133">
        <ele>1135.2</ele>
        <time>2012-10-13T10:33:49Z</time>
      </trkpt>
      <trkpt lat="43.97722" lon="7.11328">
        <ele>1127.1</ele>
        <time>2012-10-13T10:34:30Z</time>
      </trkpt>
      <trkpt lat="43.97739" lon="7.11334">
        <ele>1127</ele>
        <time>2012-10-13T10:34:39Z</time>
      </trkpt>
      <trkpt lat="43.97746" lon="7.11342">
        <ele>1125.5</ele>
        <time>2012-10-13T10:34:50Z</time>
      </trkpt>
      <trkpt lat="43.97744" lon="7.11354">
        <ele>1125.3</ele>
        <time>2012-10-13T10:34:54Z</time>
      </trkpt>
      <trkpt lat="43.9773" lon="7.1137">
        <ele>1123.6</ele>
        <time>2012-10-13T10:34:58Z</time>
      </trkpt>
      <trkpt lat="43.97704" lon="7.11418">
        <ele>1117.4</ele>
        <time>2012-10-13T10:35:07Z</time>
      </trkpt>
      <trkpt lat="43.97697" lon="7.11434">
        <ele>1114.6</ele>
        <time>2012-10-13T10:35:10Z</time>
      </trkpt>
      <trkpt lat="43.97692" lon="7.11481">
        <ele>1109.4</ele>
        <time>2012-10-13T10:35:20Z</time>
      </trkpt>
      <trkpt lat="43.97697" lon="7.11499">
        <ele>1107.1</ele>
        <time>2012-10-13T10:35:26Z</time>
      </trkpt>
      <trkpt lat="43.97698" lon="7.11515">
        <ele>1105.7</ele>
        <time>2012-10-13T10:35:29Z</time>
      </trkpt>
      <trkpt lat="43.97704" lon="7.11531">
        <ele>1102.3</ele>
        <time>2012-10-13T10:35:33Z</time>
      </trkpt>
      <trkpt lat="43.97706" lon="7.11535">
        <ele>1101.4</ele>
        <time>2012-10-13T10:35:34Z</time>
      </trkpt>
      <trkpt lat="43.97709" lon="7.11557">
        <ele>1098.3</ele>
        <time>2012-10-13T10:35:39Z</time>
      </trkpt>
      <trkpt lat="43.97719" lon="7.11577">
        <ele>1096</ele>
        <time>2012-10-13T10:35:43Z</time>
      </trkpt>
      <trkpt lat="43.97731" lon="7.11664">
        <ele>1100.1</ele>
        <time>2012-10-13T10:36:09Z</time>
      </trkpt>
      <trkpt lat="43.97755" lon="7.11708">
        <ele>1094.7</ele>
        <time>2012-10-13T10:36:24Z</time>
      </trkpt>
      <trkpt lat="43.9776" lon="7.11726">
        <ele>1093.4</ele>
        <time>2012-10-13T10:36:29Z</time>
      </trkpt>
      <trkpt lat="43.97764" lon="7.11733">
        <ele>1092.7</ele>
        <time>2012-10-13T10:36:34Z</time>
      </trkpt>
      <trkpt lat="43.97765" lon="7.11733">
        <ele>1091.6</ele>
        <time>2012-10-13T10:36:46Z</time>
      </trkpt>
      <trkpt lat="43.97771" lon="7.1174">
        <ele>1091.1</ele>
        <time>2012-10-13T10:36:51Z</time>
      </trkpt>
      <trkpt lat="43.97818" lon="7.11781">
        <ele>1089.1</ele>
        <time>2012-10-13T10:37:05Z</time>
      </trkpt>
      <trkpt lat="43.97834" lon="7.118">
        <ele>1088.3</ele>
        <time>2012-10-13T10:37:10Z</time>
      </trkpt>
      <trkpt lat="43.97843" lon="7.11832">
        <ele>1088.1</ele>
        <time>2012-10-13T10:37:16Z</time>
      </trkpt>
      <trkpt lat="43.97844" lon="7.1185">
        <ele>1088.4</ele>
        <time>2012-10-13T10:37:19Z</time>
      </trkpt>
      <trkpt lat="43.97849" lon="7.11866">
        <ele>1089.3</ele>
        <time>2012-10-13T10:37:22Z</time>
      </trkpt>
      <trkpt lat="43.97877" lon="7.11911">
        <ele>1086</ele>
        <time>2012-10-13T10:37:32Z</time>
      </trkpt>
      <trkpt lat="43.97884" lon="7.11919">
        <ele>1085.4</ele>
        <time>2012-10-13T10:37:34Z</time>
      </trkpt>
      <trkpt lat="43.97909" lon="7.11928">
        <ele>1082.3</ele>
        <time>2012-10-13T10:37:39Z</time>
      </trkpt>
      <trkpt lat="43.9793" lon="7.11921">
        <ele>1079.1</ele>
        <time>2012-10-13T10:37:43Z</time>
      </trkpt>
      <trkpt lat="43.97953" lon="7.11896">
        <ele>1074.3</ele>
        <time>2012-10-13T10:37:48Z</time>
      </trkpt>
      <trkpt lat="43.97955" lon="7.11873">
        <ele>1074.5</ele>
        <time>2012-10-13T10:37:51Z</time>
      </trkpt>
      <trkpt lat="43.97963" lon="7.11855">
        <ele>1074</ele>
        <time>2012-10-13T10:37:55Z</time>
      </trkpt>
      <trkpt lat="43.97976" lon="7.11855">
        <ele>1075.8</ele>
        <time>2012-10-13T10:38:03Z</time>
      </trkpt>
      <trkpt lat="43.97979" lon="7.11862">
        <ele>1075.6</ele>
        <time>2012-10-13T10:38:08Z</time>
      </trkpt>
      <trkpt lat="43.97978" lon="7.11867">
        <ele>1074</ele>
        <time>2012-10-13T10:38:12Z</time>
      </trkpt>
      <trkpt lat="43.9797" lon="7.11866">
        <ele>1072.3</ele>
        <time>2012-10-13T10:38:15Z</time>
      </trkpt>
      <trkpt lat="43.97967" lon="7.11868">
        <ele>1071.5</ele>
        <time>2012-10-13T10:38:17Z</time>
      </trkpt>
      <trkpt lat="43.97966" lon="7.1187">
        <ele>1070.7</ele>
        <time>2012-10-13T10:38:19Z</time>
      </trkpt>
      <trkpt lat="43.97978" lon="7.11878">
        <ele>1067.9</ele>
        <time>2012-10-13T10:38:24Z</time>
      </trkpt>
      <trkpt lat="43.97999" lon="7.11905">
        <ele>1064.6</ele>
        <time>2012-10-13T10:38:31Z</time>
      </trkpt>
      <trkpt lat="43.98009" lon="7.11942">
        <ele>1057.9</ele>
        <time>2012-10-13T10:38:37Z</time>
      </trkpt>
      <trkpt lat="43.98044" lon="7.12041">
        <ele>1042.3</ele>
        <time>2012-10-13T10:38:52Z</time>
      </trkpt>
      <trkpt lat="43.98055" lon="7.12057">
        <ele>1039.3</ele>
        <time>2012-10-13T10:38:55Z</time>
      </trkpt>
      <trkpt lat="43.98066" lon="7.12067">
        <ele>1035.7</ele>
        <time>2012-10-13T10:38:59Z</time>
      </trkpt>
      <trkpt lat="43.98059" lon="7.12072">
        <ele>1033.6</ele>
        <time>2012-10-13T10:39:02Z</time>
      </trkpt>
      <trkpt lat="43.9805" lon="7.12076">
        <ele>1030.4</ele>
        <time>2012-10-13T10:39:06Z</time>
      </trkpt>
      <trkpt lat="43.98052" lon="7.12077">
        <ele>1030.1</ele>
        <time>2012-10-13T10:39:07Z</time>
      </trkpt>
      <trkpt lat="43.98069" lon="7.12094">
        <ele>1026</ele>
        <time>2012-10-13T10:39:13Z</time>
      </trkpt>
      <trkpt lat="43.98066" lon="7.12095">
        <ele>1024.5</ele>
        <time>2012-10-13T10:39:15Z</time>
      </trkpt>
      <trkpt lat="43.98044" lon="7.12087">
        <ele>1017.8</ele>
        <time>2012-10-13T10:39:21Z</time>
      </trkpt>
      <trkpt lat="43.98041" lon="7.12088">
        <ele>1016.9</ele>
        <time>2012-10-13T10:39:22Z</time>
      </trkpt>
      <trkpt lat="43.98061" lon="7.12124">
        <ele>1011.3</ele>
        <time>2012-10-13T10:39:31Z</time>
      </trkpt>
      <trkpt lat="43.98061" lon="7.12127">
        <ele>1010.5</ele>
        <time>2012-10-13T10:39:33Z</time>
      </trkpt>
      <trkpt lat="43.98058" lon="7.1213">
        <ele>1007.9</ele>
        <time>2012-10-13T10:39:37Z</time>
      </trkpt>
      <trkpt lat="43.98063" lon="7.12134">
        <ele>1006.3</ele>
        <time>2012-10-13T10:39:40Z</time>
      </trkpt>
      <trkpt lat="43.98076" lon="7.12142">
        <ele>1002.3</ele>
        <time>2012-10-13T10:39:46Z</time>
      </trkpt>
      <trkpt lat="43.98077" lon="7.12152">
        <ele>1000.5</ele>
        <time>2012-10-13T10:39:49Z</time>
      </trkpt>
      <trkpt lat="43.98079" lon="7.12153">
        <ele>1000.3</ele>
        <time>2012-10-13T10:39:50Z</time>
      </trkpt>
      <trkpt lat="43.98084" lon="7.12163">
        <ele>996.7</ele>
        <time>2012-10-13T10:39:55Z</time>
      </trkpt>
      <trkpt lat="43.9809" lon="7.12167">
        <ele>995.5</ele>
        <time>2012-10-13T10:39:58Z</time>
      </trkpt>
      <trkpt lat="43.98093" lon="7.12169">
        <ele>994.6</ele>
        <time>2012-10-13T10:40:00Z</time>
      </trkpt>
      <trkpt lat="43.98097" lon="7.12175">
        <ele>992.9</ele>
        <time>2012-10-13T10:40:03Z</time>
      </trkpt>
      <trkpt lat="43.98093" lon="7.1218">
        <ele>992.5</ele>
        <time>2012-10-13T10:40:07Z</time>
      </trkpt>
      <trkpt lat="43.98088" lon="7.12185">
        <ele>991</ele>
        <time>2012-10-13T10:40:11Z</time>
      </trkpt>
      <trkpt lat="43.98089" lon="7.12191">
        <ele>989.8</ele>
        <time>2012-10-13T10:40:14Z</time>
      </trkpt>
      <trkpt lat="43.98083" lon="7.12192">
        <ele>988.6</ele>
        <time>2012-10-13T10:40:19Z</time>
      </trkpt>
      <trkpt lat="43.98084" lon="7.12198">
        <ele>987.7</ele>
        <time>2012-10-13T10:40:23Z</time>
      </trkpt>
      <trkpt lat="43.98088" lon="7.122">
        <ele>986.6</ele>
        <time>2012-10-13T10:40:25Z</time>
      </trkpt>
      <trkpt lat="43.98102" lon="7.12206">
        <ele>984.3</ele>
        <time>2012-10-13T10:40:30Z</time>
      </trkpt>
      <trkpt lat="43.98125" lon="7.12211">
        <ele>978.4</ele>
        <time>2012-10-13T10:40:36Z</time>
      </trkpt>
      <trkpt lat="43.98126" lon="7.1222">
        <ele>976.1</ele>
        <time>2012-10-13T10:40:40Z</time>
      </trkpt>
      <trkpt lat="43.98119" lon="7.12232">
        <ele>972.8</ele>
        <time>2012-10-13T10:40:44Z</time>
      </trkpt>
      <trkpt lat="43.98119" lon="7.12236">
        <ele>971.3</ele>
        <time>2012-10-13T10:40:47Z</time>
      </trkpt>
      <trkpt lat="43.98124" lon="7.12234">
        <ele>970</ele>
        <time>2012-10-13T10:40:53Z</time>
      </trkpt>
      <trkpt lat="43.9812" lon="7.12236">
        <ele>967.4</ele>
        <time>2012-10-13T10:41:54Z</time>
      </trkpt>
      <trkpt lat="43.98118" lon="7.12236">
        <ele>966.2</ele>
        <time>2012-10-13T10:41:59Z</time>
      </trkpt>
      <trkpt lat="43.98119" lon="7.12241">
        <ele>965.3</ele>
        <time>2012-10-13T10:42:03Z</time>
      </trkpt>
      <trkpt lat="43.98138" lon="7.12235">
        <ele>961.7</ele>
        <time>2012-10-13T10:42:09Z</time>
      </trkpt>
      <trkpt lat="43.9814" lon="7.12246">
        <ele>959.4</ele>
        <time>2012-10-13T10:42:13Z</time>
      </trkpt>
      <trkpt lat="43.98131" lon="7.12261">
        <ele>956.8</ele>
        <time>2012-10-13T10:42:17Z</time>
      </trkpt>
      <trkpt lat="43.98129" lon="7.12271">
        <ele>954.6</ele>
        <time>2012-10-13T10:42:20Z</time>
      </trkpt>
      <trkpt lat="43.98135" lon="7.12272">
        <ele>952.1</ele>
        <time>2012-10-13T10:42:23Z</time>
      </trkpt>
      <trkpt lat="43.98142" lon="7.12277">
        <ele>948.7</ele>
        <time>2012-10-13T10:42:27Z</time>
      </trkpt>
      <trkpt lat="43.98143" lon="7.12282">
        <ele>947.5</ele>
        <time>2012-10-13T10:42:30Z</time>
      </trkpt>
      <trkpt lat="43.9815" lon="7.12288">
        <ele>945.5</ele>
        <time>2012-10-13T10:42:36Z</time>
      </trkpt>
      <trkpt lat="43.98144" lon="7.12297">
        <ele>944.2</ele>
        <time>2012-10-13T10:42:40Z</time>
      </trkpt>
      <trkpt lat="43.98135" lon="7.12303">
        <ele>942.2</ele>
        <time>2012-10-13T10:42:44Z</time>
      </trkpt>
      <trkpt lat="43.98136" lon="7.12305">
        <ele>942.1</ele>
        <time>2012-10-13T10:42:47Z</time>
      </trkpt>
      <trkpt lat="43.98145" lon="7.12308">
        <ele>940.1</ele>
        <time>2012-10-13T10:42:51Z</time>
      </trkpt>
      <trkpt lat="43.98149" lon="7.12309">
        <ele>939.3</ele>
        <time>2012-10-13T10:42:52Z</time>
      </trkpt>
      <trkpt lat="43.98176" lon="7.12306">
        <ele>931.8</ele>
        <time>2012-10-13T10:42:59Z</time>
      </trkpt>
      <trkpt lat="43.98183" lon="7.12294">
        <ele>928.4</ele>
        <time>2012-10-13T10:43:03Z</time>
      </trkpt>
      <trkpt lat="43.98195" lon="7.12276">
        <ele>923.3</ele>
        <time>2012-10-13T10:43:08Z</time>
      </trkpt>
      <trkpt lat="43.98199" lon="7.12267">
        <ele>921.8</ele>
        <time>2012-10-13T10:43:13Z</time>
      </trkpt>
      <trkpt lat="43.98207" lon="7.12277">
        <ele>920.3</ele>
        <time>2012-10-13T10:43:16Z</time>
      </trkpt>
      <trkpt lat="43.9821" lon="7.12286">
        <ele>919.1</ele>
        <time>2012-10-13T10:43:19Z</time>
      </trkpt>
      <trkpt lat="43.98216" lon="7.12291">
        <ele>917.2</ele>
        <time>2012-10-13T10:43:22Z</time>
      </trkpt>
      <trkpt lat="43.98221" lon="7.12293">
        <ele>915.7</ele>
        <time>2012-10-13T10:43:25Z</time>
      </trkpt>
      <trkpt lat="43.98223" lon="7.12299">
        <ele>914.2</ele>
        <time>2012-10-13T10:43:28Z</time>
      </trkpt>
      <trkpt lat="43.98227" lon="7.12303">
        <ele>912</ele>
        <time>2012-10-13T10:43:31Z</time>
      </trkpt>
      <trkpt lat="43.98229" lon="7.12308">
        <ele>910.6</ele>
        <time>2012-10-13T10:43:34Z</time>
      </trkpt>
      <trkpt lat="43.98232" lon="7.12311">
        <ele>909.6</ele>
        <time>2012-10-13T10:43:37Z</time>
      </trkpt>
      <trkpt lat="43.98241" lon="7.12301">
        <ele>905.5</ele>
        <time>2012-10-13T10:43:41Z</time>
      </trkpt>
      <trkpt lat="43.98244" lon="7.12284">
        <ele>901.8</ele>
        <time>2012-10-13T10:43:46Z</time>
      </trkpt>
      <trkpt lat="43.9825" lon="7.12286">
        <ele>898.8</ele>
        <time>2012-10-13T10:43:50Z</time>
      </trkpt>
      <trkpt lat="43.98253" lon="7.12302">
        <ele>895.9</ele>
        <time>2012-10-13T10:43:53Z</time>
      </trkpt>
      <trkpt lat="43.98252" lon="7.12317">
        <ele>894.3</ele>
        <time>2012-10-13T10:43:56Z</time>
      </trkpt>
      <trkpt lat="43.98256" lon="7.12316">
        <ele>894.2</ele>
        <time>2012-10-13T10:44:00Z</time>
      </trkpt>
      <trkpt lat="43.98273" lon="7.12299">
        <ele>891.2</ele>
        <time>2012-10-13T10:44:07Z</time>
      </trkpt>
      <trkpt lat="43.98278" lon="7.12286">
        <ele>889.7</ele>
        <time>2012-10-13T10:44:11Z</time>
      </trkpt>
      <trkpt lat="43.98279" lon="7.12285">
        <ele>888.7</ele>
        <time>2012-10-13T10:44:12Z</time>
      </trkpt>
      <trkpt lat="43.98278" lon="7.12294">
        <ele>882.8</ele>
        <time>2012-10-13T10:44:16Z</time>
      </trkpt>
      <trkpt lat="43.9828" lon="7.12342">
        <ele>876.4</ele>
        <time>2012-10-13T10:44:27Z</time>
      </trkpt>
      <trkpt lat="43.98279" lon="7.12347">
        <ele>876.6</ele>
        <time>2012-10-13T10:44:28Z</time>
      </trkpt>
      <trkpt lat="43.98267" lon="7.12364">
        <ele>876.1</ele>
        <time>2012-10-13T10:44:32Z</time>
      </trkpt>
      <trkpt lat="43.98262" lon="7.12368">
        <ele>874.3</ele>
        <time>2012-10-13T10:44:34Z</time>
      </trkpt>
      <trkpt lat="43.98264" lon="7.12369">
        <ele>870.9</ele>
        <time>2012-10-13T10:44:38Z</time>
      </trkpt>
      <trkpt lat="43.98284" lon="7.12361">
        <ele>863.4</ele>
        <time>2012-10-13T10:44:44Z</time>
      </trkpt>
      <trkpt lat="43.98288" lon="7.1236">
        <ele>862.4</ele>
        <time>2012-10-13T10:44:45Z</time>
      </trkpt>
      <trkpt lat="43.983" lon="7.12353">
        <ele>859.6</ele>
        <time>2012-10-13T10:44:48Z</time>
      </trkpt>
      <trkpt lat="43.98307" lon="7.12347">
        <ele>859.8</ele>
        <time>2012-10-13T10:44:52Z</time>
      </trkpt>
      <trkpt lat="43.98307" lon="7.12361">
        <ele>859.3</ele>
        <time>2012-10-13T10:44:55Z</time>
      </trkpt>
      <trkpt lat="43.983" lon="7.12384">
        <ele>859</ele>
        <time>2012-10-13T10:44:59Z</time>
      </trkpt>
      <trkpt lat="43.98285" lon="7.12392">
        <ele>854.9</ele>
        <time>2012-10-13T10:45:04Z</time>
      </trkpt>
      <trkpt lat="43.98298" lon="7.12389">
        <ele>849.5</ele>
        <time>2012-10-13T10:45:09Z</time>
      </trkpt>
      <trkpt lat="43.98307" lon="7.12384">
        <ele>845.4</ele>
        <time>2012-10-13T10:45:12Z</time>
      </trkpt>
      <trkpt lat="43.98306" lon="7.12389">
        <ele>844.3</ele>
        <time>2012-10-13T10:45:16Z</time>
      </trkpt>
      <trkpt lat="43.98289" lon="7.12403">
        <ele>842.9</ele>
        <time>2012-10-13T10:45:22Z</time>
      </trkpt>
      <trkpt lat="43.98296" lon="7.12402">
        <ele>839.4</ele>
        <time>2012-10-13T10:45:26Z</time>
      </trkpt>
      <trkpt lat="43.98299" lon="7.12401">
        <ele>837.8</ele>
        <time>2012-10-13T10:45:27Z</time>
      </trkpt>
      <trkpt lat="43.9831" lon="7.12402">
        <ele>834.4</ele>
        <time>2012-10-13T10:45:30Z</time>
      </trkpt>
      <trkpt lat="43.98324" lon="7.12396">
        <ele>830</ele>
        <time>2012-10-13T10:45:34Z</time>
      </trkpt>
      <trkpt lat="43.9833" lon="7.1237">
        <ele>829.6</ele>
        <time>2012-10-13T10:45:40Z</time>
      </trkpt>
      <trkpt lat="43.98331" lon="7.12365">
        <ele>830.7</ele>
        <time>2012-10-13T10:45:41Z</time>
      </trkpt>
      <trkpt lat="43.98334" lon="7.12362">
        <ele>831.6</ele>
        <time>2012-10-13T10:45:43Z</time>
      </trkpt>
      <trkpt lat="43.98347" lon="7.12393">
        <ele>834.7</ele>
        <time>2012-10-13T10:45:51Z</time>
      </trkpt>
      <trkpt lat="43.98381" lon="7.1238">
        <ele>825.6</ele>
        <time>2012-10-13T10:46:01Z</time>
      </trkpt>
      <trkpt lat="43.98384" lon="7.12387">
        <ele>830.5</ele>
        <time>2012-10-13T10:46:08Z</time>
      </trkpt>
      <trkpt lat="43.98386" lon="7.1239">
        <ele>831</ele>
        <time>2012-10-13T10:46:13Z</time>
      </trkpt>
      <trkpt lat="43.98385" lon="7.12389">
        <ele>832.8</ele>
        <time>2012-10-13T10:46:18Z</time>
      </trkpt>
      <trkpt lat="43.98385" lon="7.1239">
        <ele>834.6</ele>
        <time>2012-10-13T10:46:23Z</time>
      </trkpt>
      <trkpt lat="43.9839" lon="7.12394">
        <ele>834.1</ele>
        <time>2012-10-13T10:46:28Z</time>
      </trkpt>
      <trkpt lat="43.98391" lon="7.12395">
        <ele>834</ele>
        <time>2012-10-13T10:46:30Z</time>
      </trkpt>
      <trkpt lat="43.98388" lon="7.12397">
        <ele>826.6</ele>
        <time>2012-10-13T10:46:38Z</time>
      </trkpt>
      <trkpt lat="43.98385" lon="7.12401">
        <ele>818.4</ele>
        <time>2012-10-13T10:46:45Z</time>
      </trkpt>
      <trkpt lat="43.98379" lon="7.12399">
        <ele>815.2</ele>
        <time>2012-10-13T10:47:02Z</time>
      </trkpt>
      <trkpt lat="43.98376" lon="7.12397">
        <ele>817.6</ele>
        <time>2012-10-13T10:47:08Z</time>
      </trkpt>
      <trkpt lat="43.98375" lon="7.12387">
        <ele>834.3</ele>
        <time>2012-10-13T10:47:28Z</time>
      </trkpt>
      <trkpt lat="43.98374" lon="7.12384">
        <ele>838.9</ele>
        <time>2012-10-13T10:47:51Z</time>
      </trkpt>
      <trkpt lat="43.98374" lon="7.1239">
        <ele>834.7</ele>
        <time>2012-10-13T10:48:18Z</time>
      </trkpt>
      <trkpt lat="43.9837" lon="7.12393">
        <ele>835.4</ele>
        <time>2012-10-13T10:48:52Z</time>
      </trkpt>
      <trkpt lat="43.98348" lon="7.12424">
        <ele>830.4</ele>
        <time>2012-10-13T10:49:12Z</time>
      </trkpt>
      <trkpt lat="43.98345" lon="7.12426">
        <ele>832</ele>
        <time>2012-10-13T10:49:17Z</time>
      </trkpt>
      <trkpt lat="43.9834" lon="7.12432">
        <ele>833.4</ele>
        <time>2012-10-13T10:49:25Z</time>
      </trkpt>
      <trkpt lat="43.9834" lon="7.12438">
        <ele>834.4</ele>
        <time>2012-10-13T10:49:32Z</time>
      </trkpt>
      <trkpt lat="43.98339" lon="7.12441">
        <ele>832.8</ele>
        <time>2012-10-13T10:49:37Z</time>
      </trkpt>
      <trkpt lat="43.98338" lon="7.12443">
        <ele>829.8</ele>
        <time>2012-10-13T10:49:45Z</time>
      </trkpt>
      <trkpt lat="43.98285" lon="7.12492">
        <ele>827.4</ele>
        <time>2012-10-13T10:50:08Z</time>
      </trkpt>
      <trkpt lat="43.98286" lon="7.12489">
        <ele>825.9</ele>
        <time>2012-10-13T10:50:16Z</time>
      </trkpt>
      <trkpt lat="43.9829" lon="7.12492">
        <ele>815.6</ele>
        <time>2012-10-13T10:50:29Z</time>
      </trkpt>
      <trkpt lat="43.98269" lon="7.12555">
        <ele>814.3</ele>
        <time>2012-10-13T10:50:46Z</time>
      </trkpt>
      <trkpt lat="43.98265" lon="7.12563">
        <ele>815.1</ele>
        <time>2012-10-13T10:50:50Z</time>
      </trkpt>
      <trkpt lat="43.98267" lon="7.12565">
        <ele>813.7</ele>
        <time>2012-10-13T10:51:06Z</time>
      </trkpt>
      <trkpt lat="43.98263" lon="7.12559">
        <ele>820.6</ele>
        <time>2012-10-13T10:52:31Z</time>
      </trkpt>
      <trkpt lat="43.98268" lon="7.12523">
        <ele>812.7</ele>
        <time>2012-10-13T10:52:54Z</time>
      </trkpt>
      <trkpt lat="43.98271" lon="7.12515">
        <ele>809.6</ele>
        <time>2012-10-13T10:52:59Z</time>
      </trkpt>
      <trkpt lat="43.98273" lon="7.12471">
        <ele>801.4</ele>
        <time>2012-10-13T10:53:15Z</time>
      </trkpt>
      <trkpt lat="43.98274" lon="7.1247">
        <ele>801.1</ele>
        <time>2012-10-13T10:53:17Z</time>
      </trkpt>
      <trkpt lat="43.98277" lon="7.12463">
        <ele>800.9</ele>
        <time>2012-10-13T10:53:24Z</time>
      </trkpt>
      <trkpt lat="43.98276" lon="7.12459">
        <ele>801.1</ele>
        <time>2012-10-13T10:53:30Z</time>
      </trkpt>
      <trkpt lat="43.98278" lon="7.12463">
        <ele>803.3</ele>
        <time>2012-10-13T10:53:56Z</time>
      </trkpt>
      <trkpt lat="43.98277" lon="7.12476">
        <ele>808.8</ele>
        <time>2012-10-13T10:54:03Z</time>
      </trkpt>
      <trkpt lat="43.98281" lon="7.12495">
        <ele>827.8</ele>
        <time>2012-10-13T10:54:17Z</time>
      </trkpt>
      <trkpt lat="43.98279" lon="7.12499">
        <ele>832.8</ele>
        <time>2012-10-13T10:54:23Z</time>
      </trkpt>
      <trkpt lat="43.98274" lon="7.12502">
        <ele>833.3</ele>
        <time>2012-10-13T10:54:29Z</time>
      </trkpt>
      <trkpt lat="43.98273" lon="7.12507">
        <ele>835.4</ele>
        <time>2012-10-13T10:54:36Z</time>
      </trkpt>
      <trkpt lat="43.98272" lon="7.12513">
        <ele>839.6</ele>
        <time>2012-10-13T10:54:43Z</time>
      </trkpt>
      <trkpt lat="43.9827" lon="7.12517">
        <ele>840.5</ele>
        <time>2012-10-13T10:54:47Z</time>
      </trkpt>
      <trkpt lat="43.98268" lon="7.12522">
        <ele>842.9</ele>
        <time>2012-10-13T10:54:52Z</time>
      </trkpt>
      <trkpt lat="43.98267" lon="7.12525">
        <ele>843.9</ele>
        <time>2012-10-13T10:54:55Z</time>
      </trkpt>
      <trkpt lat="43.98263" lon="7.12528">
        <ele>842.7</ele>
        <time>2012-10-13T10:54:59Z</time>
      </trkpt>
      <trkpt lat="43.98249" lon="7.12527">
        <ele>832.4</ele>
        <time>2012-10-13T10:55:06Z</time>
      </trkpt>
      <trkpt lat="43.98231" lon="7.12515">
        <ele>818.7</ele>
        <time>2012-10-13T10:55:14Z</time>
      </trkpt>
      <trkpt lat="43.98226" lon="7.12522">
        <ele>820.5</ele>
        <time>2012-10-13T10:55:19Z</time>
      </trkpt>
      <trkpt lat="43.98223" lon="7.12537">
        <ele>821.8</ele>
        <time>2012-10-13T10:55:26Z</time>
      </trkpt>
      <trkpt lat="43.98219" lon="7.12543">
        <ele>821</ele>
        <time>2012-10-13T10:55:29Z</time>
      </trkpt>
      <trkpt lat="43.98216" lon="7.12555">
        <ele>822.7</ele>
        <time>2012-10-13T10:55:35Z</time>
      </trkpt>
      <trkpt lat="43.98207" lon="7.1257">
        <ele>823.6</ele>
        <time>2012-10-13T10:55:45Z</time>
      </trkpt>
      <trkpt lat="43.98191" lon="7.12571">
        <ele>820</ele>
        <time>2012-10-13T10:55:52Z</time>
      </trkpt>
      <trkpt lat="43.98174" lon="7.12555">
        <ele>815.6</ele>
        <time>2012-10-13T10:55:56Z</time>
      </trkpt>
      <trkpt lat="43.98161" lon="7.12542">
        <ele>812.2</ele>
        <time>2012-10-13T10:56:01Z</time>
      </trkpt>
      <trkpt lat="43.98149" lon="7.12537">
        <ele>809.3</ele>
        <time>2012-10-13T10:56:05Z</time>
      </trkpt>
      <trkpt lat="43.98133" lon="7.12525">
        <ele>808</ele>
        <time>2012-10-13T10:56:10Z</time>
      </trkpt>
      <trkpt lat="43.9812" lon="7.12517">
        <ele>808.5</ele>
        <time>2012-10-13T10:56:17Z</time>
      </trkpt>
      <trkpt lat="43.98105" lon="7.12515">
        <ele>810.9</ele>
        <time>2012-10-13T10:56:24Z</time>
      </trkpt>
      <trkpt lat="43.98092" lon="7.1252">
        <ele>817.5</ele>
        <time>2012-10-13T10:56:30Z</time>
      </trkpt>
      <trkpt lat="43.98081" lon="7.12516">
        <ele>815.4</ele>
        <time>2012-10-13T10:56:37Z</time>
      </trkpt>
      <trkpt lat="43.98071" lon="7.12507">
        <ele>813.6</ele>
        <time>2012-10-13T10:56:42Z</time>
      </trkpt>
      <trkpt lat="43.98069" lon="7.12505">
        <ele>813.4</ele>
        <time>2012-10-13T10:56:43Z</time>
      </trkpt>
      <trkpt lat="43.98061" lon="7.12504">
        <ele>813.7</ele>
        <time>2012-10-13T10:56:48Z</time>
      </trkpt>
      <trkpt lat="43.98052" lon="7.12508">
        <ele>815.4</ele>
        <time>2012-10-13T10:56:54Z</time>
      </trkpt>
      <trkpt lat="43.98043" lon="7.12508">
        <ele>818.4</ele>
        <time>2012-10-13T10:57:01Z</time>
      </trkpt>
      <trkpt lat="43.97988" lon="7.1246">
        <ele>831</ele>
        <time>2012-10-13T10:57:35Z</time>
      </trkpt>
      <trkpt lat="43.97987" lon="7.12458">
        <ele>831.3</ele>
        <time>2012-10-13T10:57:36Z</time>
      </trkpt>
      <trkpt lat="43.97985" lon="7.12457">
        <ele>831.8</ele>
        <time>2012-10-13T10:57:38Z</time>
      </trkpt>
      <trkpt lat="43.97984" lon="7.12458">
        <ele>832.7</ele>
        <time>2012-10-13T10:57:41Z</time>
      </trkpt>
      <trkpt lat="43.97982" lon="7.12465">
        <ele>841.6</ele>
        <time>2012-10-13T10:57:47Z</time>
      </trkpt>
      <trkpt lat="43.97981" lon="7.12465">
        <ele>842.9</ele>
        <time>2012-10-13T10:57:51Z</time>
      </trkpt>
      <trkpt lat="43.9798" lon="7.12477">
        <ele>842.6</ele>
        <time>2012-10-13T10:57:58Z</time>
      </trkpt>
      <trkpt lat="43.9798" lon="7.12478">
        <ele>841.9</ele>
        <time>2012-10-13T10:57:59Z</time>
      </trkpt>
      <trkpt lat="43.97972" lon="7.1248">
        <ele>836.3</ele>
        <time>2012-10-13T10:58:06Z</time>
      </trkpt>
      <trkpt lat="43.97972" lon="7.12481">
        <ele>836.5</ele>
        <time>2012-10-13T10:58:07Z</time>
      </trkpt>
      <trkpt lat="43.97965" lon="7.12491">
        <ele>834.6</ele>
        <time>2012-10-13T10:58:15Z</time>
      </trkpt>
      <trkpt lat="43.97963" lon="7.12493">
        <ele>834.7</ele>
        <time>2012-10-13T10:58:17Z</time>
      </trkpt>
      <trkpt lat="43.97953" lon="7.12493">
        <ele>832</ele>
        <time>2012-10-13T10:58:24Z</time>
      </trkpt>
      <trkpt lat="43.97951" lon="7.12493">
        <ele>833.1</ele>
        <time>2012-10-13T10:58:27Z</time>
      </trkpt>
      <trkpt lat="43.97945" lon="7.12496">
        <ele>835.7</ele>
        <time>2012-10-13T10:58:34Z</time>
      </trkpt>
      <trkpt lat="43.97933" lon="7.12498">
        <ele>833.5</ele>
        <time>2012-10-13T10:58:43Z</time>
      </trkpt>
      <trkpt lat="43.97926" lon="7.12504">
        <ele>836.8</ele>
        <time>2012-10-13T10:58:51Z</time>
      </trkpt>
      <trkpt lat="43.97916" lon="7.12511">
        <ele>839.1</ele>
        <time>2012-10-13T10:59:00Z</time>
      </trkpt>
      <trkpt lat="43.97907" lon="7.12511">
        <ele>836.4</ele>
        <time>2012-10-13T10:59:05Z</time>
      </trkpt>
      <trkpt lat="43.979" lon="7.12502">
        <ele>834.3</ele>
        <time>2012-10-13T10:59:10Z</time>
      </trkpt>
      <trkpt lat="43.97899" lon="7.12494">
        <ele>831.2</ele>
        <time>2012-10-13T10:59:14Z</time>
      </trkpt>
      <trkpt lat="43.97902" lon="7.12485">
        <ele>836.3</ele>
        <time>2012-10-13T11:00:33Z</time>
      </trkpt>
      <trkpt lat="43.97899" lon="7.12484">
        <ele>835.5</ele>
        <time>2012-10-13T11:00:37Z</time>
      </trkpt>
      <trkpt lat="43.97892" lon="7.12475">
        <ele>835.6</ele>
        <time>2012-10-13T11:00:43Z</time>
      </trkpt>
      <trkpt lat="43.97879" lon="7.12454">
        <ele>833.8</ele>
        <time>2012-10-13T11:00:50Z</time>
      </trkpt>
      <trkpt lat="43.97873" lon="7.12441">
        <ele>834.2</ele>
        <time>2012-10-13T11:00:54Z</time>
      </trkpt>
      <trkpt lat="43.97863" lon="7.12432">
        <ele>837.2</ele>
        <time>2012-10-13T11:00:58Z</time>
      </trkpt>
      <trkpt lat="43.97854" lon="7.12438">
        <ele>845.1</ele>
        <time>2012-10-13T11:01:03Z</time>
      </trkpt>
      <trkpt lat="43.97847" lon="7.12455">
        <ele>868.3</ele>
        <time>2012-10-13T11:01:30Z</time>
      </trkpt>
      <trkpt lat="43.9783" lon="7.12456">
        <ele>858.3</ele>
        <time>2012-10-13T11:01:48Z</time>
      </trkpt>
      <trkpt lat="43.97818" lon="7.12446">
        <ele>854.3</ele>
        <time>2012-10-13T11:01:53Z</time>
      </trkpt>
      <trkpt lat="43.97801" lon="7.12438">
        <ele>851.4</ele>
        <time>2012-10-13T11:02:00Z</time>
      </trkpt>
      <trkpt lat="43.97783" lon="7.12433">
        <ele>848.5</ele>
        <time>2012-10-13T11:02:08Z</time>
      </trkpt>
      <trkpt lat="43.97775" lon="7.1241">
        <ele>848.9</ele>
        <time>2012-10-13T11:02:16Z</time>
      </trkpt>
      <trkpt lat="43.97764" lon="7.12396">
        <ele>850.8</ele>
        <time>2012-10-13T11:02:22Z</time>
      </trkpt>
      <trkpt lat="43.97753" lon="7.12386">
        <ele>851.7</ele>
        <time>2012-10-13T11:02:28Z</time>
      </trkpt>
      <trkpt lat="43.97743" lon="7.12381">
        <ele>855</ele>
        <time>2012-10-13T11:02:33Z</time>
      </trkpt>
      <trkpt lat="43.97738" lon="7.1238">
        <ele>856.4</ele>
        <time>2012-10-13T11:02:38Z</time>
      </trkpt>
      <trkpt lat="43.97731" lon="7.12379">
        <ele>857.9</ele>
        <time>2012-10-13T11:02:43Z</time>
      </trkpt>
      <trkpt lat="43.97727" lon="7.12382">
        <ele>858.6</ele>
        <time>2012-10-13T11:02:45Z</time>
      </trkpt>
      <trkpt lat="43.97718" lon="7.12395">
        <ele>860.3</ele>
        <time>2012-10-13T11:02:53Z</time>
      </trkpt>
      <trkpt lat="43.97699" lon="7.12406">
        <ele>856.7</ele>
        <time>2012-10-13T11:03:06Z</time>
      </trkpt>
      <trkpt lat="43.97698" lon="7.12407">
        <ele>858.8</ele>
        <time>2012-10-13T11:03:08Z</time>
      </trkpt>
      <trkpt lat="43.97696" lon="7.12415">
        <ele>861.9</ele>
        <time>2012-10-13T11:03:13Z</time>
      </trkpt>
      <trkpt lat="43.97695" lon="7.12431">
        <ele>863.5</ele>
        <time>2012-10-13T11:03:20Z</time>
      </trkpt>
      <trkpt lat="43.97679" lon="7.1244">
        <ele>854.1</ele>
        <time>2012-10-13T11:03:26Z</time>
      </trkpt>
      <trkpt lat="43.97637" lon="7.12419">
        <ele>849.2</ele>
        <time>2012-10-13T11:03:43Z</time>
      </trkpt>
      <trkpt lat="43.97625" lon="7.12419">
        <ele>850.8</ele>
        <time>2012-10-13T11:03:48Z</time>
      </trkpt>
      <trkpt lat="43.97601" lon="7.12414">
        <ele>855.4</ele>
        <time>2012-10-13T11:04:01Z</time>
      </trkpt>
      <trkpt lat="43.9759" lon="7.12417">
        <ele>857.2</ele>
        <time>2012-10-13T11:04:06Z</time>
      </trkpt>
      <trkpt lat="43.97572" lon="7.12442">
        <ele>860.2</ele>
        <time>2012-10-13T11:04:22Z</time>
      </trkpt>
      <trkpt lat="43.97564" lon="7.1245">
        <ele>860.1</ele>
        <time>2012-10-13T11:04:30Z</time>
      </trkpt>
      <trkpt lat="43.97562" lon="7.12451">
        <ele>859.2</ele>
        <time>2012-10-13T11:04:35Z</time>
      </trkpt>
      <trkpt lat="43.97559" lon="7.12452">
        <ele>859.3</ele>
        <time>2012-10-13T11:04:42Z</time>
      </trkpt>
      <trkpt lat="43.97559" lon="7.12454">
        <ele>859</ele>
        <time>2012-10-13T11:04:49Z</time>
      </trkpt>
      <trkpt lat="43.97557" lon="7.12454">
        <ele>855.8</ele>
        <time>2012-10-13T11:04:59Z</time>
      </trkpt>
      <trkpt lat="43.97546" lon="7.1245">
        <ele>857</ele>
        <time>2012-10-13T11:05:07Z</time>
      </trkpt>
      <trkpt lat="43.97538" lon="7.12449">
        <ele>858.8</ele>
        <time>2012-10-13T11:05:12Z</time>
      </trkpt>
      <trkpt lat="43.97529" lon="7.1246">
        <ele>862.8</ele>
        <time>2012-10-13T11:05:20Z</time>
      </trkpt>
      <trkpt lat="43.9751" lon="7.12462">
        <ele>863.4</ele>
        <time>2012-10-13T11:05:31Z</time>
      </trkpt>
      <trkpt lat="43.975" lon="7.12466">
        <ele>862.7</ele>
        <time>2012-10-13T11:05:37Z</time>
      </trkpt>
      <trkpt lat="43.97489" lon="7.12464">
        <ele>862.3</ele>
        <time>2012-10-13T11:05:44Z</time>
      </trkpt>
      <trkpt lat="43.97477" lon="7.12459">
        <ele>863.1</ele>
        <time>2012-10-13T11:05:50Z</time>
      </trkpt>
      <trkpt lat="43.97464" lon="7.12456">
        <ele>864.8</ele>
        <time>2012-10-13T11:05:57Z</time>
      </trkpt>
      <trkpt lat="43.97447" lon="7.12455">
        <ele>867.8</ele>
        <time>2012-10-13T11:06:08Z</time>
      </trkpt>
      <trkpt lat="43.97437" lon="7.1245">
        <ele>870.7</ele>
        <time>2012-10-13T11:06:14Z</time>
      </trkpt>
      <trkpt lat="43.97428" lon="7.12454">
        <ele>873.4</ele>
        <time>2012-10-13T11:06:19Z</time>
      </trkpt>
      <trkpt lat="43.9742" lon="7.1246">
        <ele>874</ele>
        <time>2012-10-13T11:06:26Z</time>
      </trkpt>
      <trkpt lat="43.97418" lon="7.12462">
        <ele>874.1</ele>
        <time>2012-10-13T11:06:28Z</time>
      </trkpt>
      <trkpt lat="43.97404" lon="7.12459">
        <ele>873.1</ele>
        <time>2012-10-13T11:06:38Z</time>
      </trkpt>
      <trkpt lat="43.97391" lon="7.1246">
        <ele>871.8</ele>
        <time>2012-10-13T11:06:45Z</time>
      </trkpt>
      <trkpt lat="43.97384" lon="7.12469">
        <ele>870.8</ele>
        <time>2012-10-13T11:06:51Z</time>
      </trkpt>
      <trkpt lat="43.97365" lon="7.12484">
        <ele>870</ele>
        <time>2012-10-13T11:07:06Z</time>
      </trkpt>
      <trkpt lat="43.97342" lon="7.12495">
        <ele>869.7</ele>
        <time>2012-10-13T11:07:19Z</time>
      </trkpt>
      <trkpt lat="43.97332" lon="7.12497">
        <ele>868</ele>
        <time>2012-10-13T11:07:25Z</time>
      </trkpt>
      <trkpt lat="43.97322" lon="7.12486">
        <ele>867.1</ele>
        <time>2012-10-13T11:07:30Z</time>
      </trkpt>
      <trkpt lat="43.97304" lon="7.12428">
        <ele>863.9</ele>
        <time>2012-10-13T11:07:45Z</time>
      </trkpt>
      <trkpt lat="43.97293" lon="7.12409">
        <ele>864</ele>
        <time>2012-10-13T11:07:50Z</time>
      </trkpt>
      <trkpt lat="43.97282" lon="7.124">
        <ele>866.8</ele>
        <time>2012-10-13T11:07:55Z</time>
      </trkpt>
      <trkpt lat="43.97277" lon="7.12383">
        <ele>865.4</ele>
        <time>2012-10-13T11:08:00Z</time>
      </trkpt>
      <trkpt lat="43.97273" lon="7.12357">
        <ele>864.9</ele>
        <time>2012-10-13T11:08:06Z</time>
      </trkpt>
      <trkpt lat="43.97263" lon="7.12331">
        <ele>863.7</ele>
        <time>2012-10-13T11:08:12Z</time>
      </trkpt>
      <trkpt lat="43.9726" lon="7.12315">
        <ele>863.3</ele>
        <time>2012-10-13T11:08:16Z</time>
      </trkpt>
      <trkpt lat="43.97263" lon="7.12299">
        <ele>862.6</ele>
        <time>2012-10-13T11:08:20Z</time>
      </trkpt>
      <trkpt lat="43.97268" lon="7.1228">
        <ele>863.3</ele>
        <time>2012-10-13T11:08:25Z</time>
      </trkpt>
      <trkpt lat="43.97269" lon="7.12254">
        <ele>864.9</ele>
        <time>2012-10-13T11:08:31Z</time>
      </trkpt>
      <trkpt lat="43.97277" lon="7.12205">
        <ele>861.6</ele>
        <time>2012-10-13T11:08:42Z</time>
      </trkpt>
      <trkpt lat="43.97276" lon="7.12201">
        <ele>862.9</ele>
        <time>2012-10-13T11:08:43Z</time>
      </trkpt>
      <trkpt lat="43.97272" lon="7.12192">
        <ele>866.2</ele>
        <time>2012-10-13T11:08:48Z</time>
      </trkpt>
      <trkpt lat="43.97271" lon="7.12192">
        <ele>866.3</ele>
        <time>2012-10-13T11:08:50Z</time>
      </trkpt>
      <trkpt lat="43.97271" lon="7.12196">
        <ele>866.8</ele>
        <time>2012-10-13T11:08:57Z</time>
      </trkpt>
      <trkpt lat="43.97253" lon="7.12208">
        <ele>869.8</ele>
        <time>2012-10-13T11:09:10Z</time>
      </trkpt>
      <trkpt lat="43.97243" lon="7.12218">
        <ele>869.1</ele>
        <time>2012-10-13T11:09:16Z</time>
      </trkpt>
      <trkpt lat="43.97232" lon="7.12223">
        <ele>870.3</ele>
        <time>2012-10-13T11:09:22Z</time>
      </trkpt>
      <trkpt lat="43.97222" lon="7.12219">
        <ele>869.6</ele>
        <time>2012-10-13T11:09:27Z</time>
      </trkpt>
      <trkpt lat="43.97207" lon="7.1222">
        <ele>867.9</ele>
        <time>2012-10-13T11:09:32Z</time>
      </trkpt>
      <trkpt lat="43.97201" lon="7.12223">
        <ele>869.6</ele>
        <time>2012-10-13T11:09:34Z</time>
      </trkpt>
      <trkpt lat="43.97196" lon="7.12224">
        <ele>872.1</ele>
        <time>2012-10-13T11:09:38Z</time>
      </trkpt>
      <trkpt lat="43.97191" lon="7.12231">
        <ele>875.1</ele>
        <time>2012-10-13T11:09:45Z</time>
      </trkpt>
      <trkpt lat="43.97179" lon="7.12233">
        <ele>870.4</ele>
        <time>2012-10-13T11:09:59Z</time>
      </trkpt>
      <trkpt lat="43.97169" lon="7.12237">
        <ele>871.8</ele>
        <time>2012-10-13T11:10:05Z</time>
      </trkpt>
      <trkpt lat="43.97158" lon="7.12236">
        <ele>871.1</ele>
        <time>2012-10-13T11:10:10Z</time>
      </trkpt>
      <trkpt lat="43.97148" lon="7.12231">
        <ele>870.6</ele>
        <time>2012-10-13T11:10:15Z</time>
      </trkpt>
      <trkpt lat="43.97126" lon="7.12232">
        <ele>866.4</ele>
        <time>2012-10-13T11:10:26Z</time>
      </trkpt>
      <trkpt lat="43.97115" lon="7.1223">
        <ele>865.9</ele>
        <time>2012-10-13T11:10:33Z</time>
      </trkpt>
      <trkpt lat="43.97095" lon="7.12225">
        <ele>867.6</ele>
        <time>2012-10-13T11:10:42Z</time>
      </trkpt>
      <trkpt lat="43.97089" lon="7.12233">
        <ele>871.1</ele>
        <time>2012-10-13T11:10:48Z</time>
      </trkpt>
      <trkpt lat="43.97081" lon="7.12235">
        <ele>870.5</ele>
        <time>2012-10-13T11:10:52Z</time>
      </trkpt>
      <trkpt lat="43.97059" lon="7.12225">
        <ele>866.1</ele>
        <time>2012-10-13T11:11:01Z</time>
      </trkpt>
      <trkpt lat="43.97059" lon="7.12228">
        <ele>871.5</ele>
        <time>2012-10-13T11:11:07Z</time>
      </trkpt>
      <trkpt lat="43.97064" lon="7.12231">
        <ele>875.6</ele>
        <time>2012-10-13T11:11:13Z</time>
      </trkpt>
      <trkpt lat="43.97066" lon="7.12241">
        <ele>881.4</ele>
        <time>2012-10-13T11:11:19Z</time>
      </trkpt>
      <trkpt lat="43.97067" lon="7.12244">
        <ele>881.1</ele>
        <time>2012-10-13T11:11:21Z</time>
      </trkpt>
      <trkpt lat="43.97063" lon="7.12247">
        <ele>879.5</ele>
        <time>2012-10-13T11:11:28Z</time>
      </trkpt>
      <trkpt lat="43.97076" lon="7.12261">
        <ele>875.6</ele>
        <time>2012-10-13T11:12:08Z</time>
      </trkpt>
      <trkpt lat="43.97066" lon="7.12262">
        <ele>873.6</ele>
        <time>2012-10-13T11:12:16Z</time>
      </trkpt>
      <trkpt lat="43.97055" lon="7.12261">
        <ele>870.5</ele>
        <time>2012-10-13T11:12:24Z</time>
      </trkpt>
      <trkpt lat="43.97043" lon="7.12252">
        <ele>865.1</ele>
        <time>2012-10-13T11:12:31Z</time>
      </trkpt>
      <trkpt lat="43.97034" lon="7.12248">
        <ele>868.9</ele>
        <time>2012-10-13T11:12:37Z</time>
      </trkpt>
      <trkpt lat="43.97029" lon="7.12248">
        <ele>876.6</ele>
        <time>2012-10-13T11:12:44Z</time>
      </trkpt>
      <trkpt lat="43.97027" lon="7.12249">
        <ele>880.6</ele>
        <time>2012-10-13T11:12:48Z</time>
      </trkpt>
      <trkpt lat="43.97012" lon="7.12247">
        <ele>897.1</ele>
        <time>2012-10-13T11:13:11Z</time>
      </trkpt>
      <trkpt lat="43.97016" lon="7.12248">
        <ele>901.5</ele>
        <time>2012-10-13T11:13:34Z</time>
      </trkpt>
      <trkpt lat="43.97018" lon="7.12251">
        <ele>901.9</ele>
        <time>2012-10-13T11:13:37Z</time>
      </trkpt>
      <trkpt lat="43.97019" lon="7.12253">
        <ele>900.8</ele>
        <time>2012-10-13T11:13:44Z</time>
      </trkpt>
      <trkpt lat="43.97016" lon="7.12254">
        <ele>901.8</ele>
        <time>2012-10-13T11:13:59Z</time>
      </trkpt>
      <trkpt lat="43.96989" lon="7.12253">
        <ele>892.2</ele>
        <time>2012-10-13T11:15:34Z</time>
      </trkpt>
      <trkpt lat="43.96988" lon="7.12262">
        <ele>893.2</ele>
        <time>2012-10-13T11:15:44Z</time>
      </trkpt>
      <trkpt lat="43.96998" lon="7.12268">
        <ele>895.3</ele>
        <time>2012-10-13T11:15:48Z</time>
      </trkpt>
      <trkpt lat="43.96999" lon="7.12269">
        <ele>895.4</ele>
        <time>2012-10-13T11:15:50Z</time>
      </trkpt>
      <trkpt lat="43.97001" lon="7.12279">
        <ele>899.4</ele>
        <time>2012-10-13T11:15:55Z</time>
      </trkpt>
      <trkpt lat="43.96993" lon="7.12291">
        <ele>897</ele>
        <time>2012-10-13T11:16:01Z</time>
      </trkpt>
      <trkpt lat="43.96982" lon="7.12295">
        <ele>896.7</ele>
        <time>2012-10-13T11:16:08Z</time>
      </trkpt>
      <trkpt lat="43.96968" lon="7.1229">
        <ele>892.7</ele>
        <time>2012-10-13T11:16:15Z</time>
      </trkpt>
      <trkpt lat="43.96954" lon="7.12284">
        <ele>894.9</ele>
        <time>2012-10-13T11:16:22Z</time>
      </trkpt>
      <trkpt lat="43.96945" lon="7.12277">
        <ele>893.5</ele>
        <time>2012-10-13T11:16:27Z</time>
      </trkpt>
      <trkpt lat="43.96939" lon="7.1227">
        <ele>894.1</ele>
        <time>2012-10-13T11:16:31Z</time>
      </trkpt>
      <trkpt lat="43.9692" lon="7.12258">
        <ele>894.4</ele>
        <time>2012-10-13T11:16:43Z</time>
      </trkpt>
      <trkpt lat="43.96913" lon="7.12248">
        <ele>892.1</ele>
        <time>2012-10-13T11:16:55Z</time>
      </trkpt>
      <trkpt lat="43.96907" lon="7.12248">
        <ele>899.5</ele>
        <time>2012-10-13T11:17:02Z</time>
      </trkpt>
      <trkpt lat="43.96906" lon="7.1225">
        <ele>900</ele>
        <time>2012-10-13T11:17:07Z</time>
      </trkpt>
      <trkpt lat="43.96902" lon="7.12255">
        <ele>900.9</ele>
        <time>2012-10-13T11:17:14Z</time>
      </trkpt>
      <trkpt lat="43.969" lon="7.12253">
        <ele>900.7</ele>
        <time>2012-10-13T11:17:17Z</time>
      </trkpt>
      <trkpt lat="43.96896" lon="7.1225">
        <ele>900.6</ele>
        <time>2012-10-13T11:17:22Z</time>
      </trkpt>
      <trkpt lat="43.9689" lon="7.12251">
        <ele>900.9</ele>
        <time>2012-10-13T11:17:27Z</time>
      </trkpt>
      <trkpt lat="43.96887" lon="7.12253">
        <ele>901.9</ele>
        <time>2012-10-13T11:17:34Z</time>
      </trkpt>
      <trkpt lat="43.96884" lon="7.12257">
        <ele>900.4</ele>
        <time>2012-10-13T11:17:42Z</time>
      </trkpt>
      <trkpt lat="43.96879" lon="7.12263">
        <ele>898.9</ele>
        <time>2012-10-13T11:17:49Z</time>
      </trkpt>
      <trkpt lat="43.96877" lon="7.12275">
        <ele>905.2</ele>
        <time>2012-10-13T11:18:00Z</time>
      </trkpt>
      <trkpt lat="43.96868" lon="7.12282">
        <ele>904.4</ele>
        <time>2012-10-13T11:18:05Z</time>
      </trkpt>
      <trkpt lat="43.96863" lon="7.12282">
        <ele>903.8</ele>
        <time>2012-10-13T11:18:07Z</time>
      </trkpt>
      <trkpt lat="43.9685" lon="7.12278">
        <ele>902.4</ele>
        <time>2012-10-13T11:18:13Z</time>
      </trkpt>
      <trkpt lat="43.9684" lon="7.1227">
        <ele>901</ele>
        <time>2012-10-13T11:18:18Z</time>
      </trkpt>
      <trkpt lat="43.9683" lon="7.12269">
        <ele>900.7</ele>
        <time>2012-10-13T11:18:24Z</time>
      </trkpt>
      <trkpt lat="43.96827" lon="7.12269">
        <ele>902.3</ele>
        <time>2012-10-13T11:18:29Z</time>
      </trkpt>
      <trkpt lat="43.96822" lon="7.12271">
        <ele>902.2</ele>
        <time>2012-10-13T11:18:35Z</time>
      </trkpt>
      <trkpt lat="43.96821" lon="7.12274">
        <ele>906.7</ele>
        <time>2012-10-13T11:18:40Z</time>
      </trkpt>
      <trkpt lat="43.96825" lon="7.12275">
        <ele>909.5</ele>
        <time>2012-10-13T11:18:48Z</time>
      </trkpt>
      <trkpt lat="43.96831" lon="7.12282">
        <ele>912</ele>
        <time>2012-10-13T11:18:52Z</time>
      </trkpt>
      <trkpt lat="43.96833" lon="7.12295">
        <ele>912.6</ele>
        <time>2012-10-13T11:18:57Z</time>
      </trkpt>
      <trkpt lat="43.9683" lon="7.12304">
        <ele>911.2</ele>
        <time>2012-10-13T11:19:01Z</time>
      </trkpt>
      <trkpt lat="43.96822" lon="7.12313">
        <ele>910.5</ele>
        <time>2012-10-13T11:19:07Z</time>
      </trkpt>
      <trkpt lat="43.96821" lon="7.12327">
        <ele>912.2</ele>
        <time>2012-10-13T11:19:14Z</time>
      </trkpt>
      <trkpt lat="43.96814" lon="7.12333">
        <ele>910.2</ele>
        <time>2012-10-13T11:19:18Z</time>
      </trkpt>
      <trkpt lat="43.96809" lon="7.12336">
        <ele>910.9</ele>
        <time>2012-10-13T11:19:23Z</time>
      </trkpt>
      <trkpt lat="43.96806" lon="7.1234">
        <ele>910.6</ele>
        <time>2012-10-13T11:19:29Z</time>
      </trkpt>
      <trkpt lat="43.9681" lon="7.12344">
        <ele>913.2</ele>
        <time>2012-10-13T11:19:35Z</time>
      </trkpt>
      <trkpt lat="43.9681" lon="7.12347">
        <ele>914.9</ele>
        <time>2012-10-13T11:19:41Z</time>
      </trkpt>
      <trkpt lat="43.96808" lon="7.12351">
        <ele>913.3</ele>
        <time>2012-10-13T11:19:46Z</time>
      </trkpt>
      <trkpt lat="43.96809" lon="7.12357">
        <ele>911.2</ele>
        <time>2012-10-13T11:19:50Z</time>
      </trkpt>
      <trkpt lat="43.96808" lon="7.12361">
        <ele>909.7</ele>
        <time>2012-10-13T11:19:53Z</time>
      </trkpt>
      <trkpt lat="43.96804" lon="7.12373">
        <ele>904</ele>
        <time>2012-10-13T11:20:01Z</time>
      </trkpt>
      <trkpt lat="43.96803" lon="7.12379">
        <ele>903.2</ele>
        <time>2012-10-13T11:20:05Z</time>
      </trkpt>
      <trkpt lat="43.96809" lon="7.12393">
        <ele>904</ele>
        <time>2012-10-13T11:20:12Z</time>
      </trkpt>
      <trkpt lat="43.96811" lon="7.12408">
        <ele>902.8</ele>
        <time>2012-10-13T11:20:22Z</time>
      </trkpt>
      <trkpt lat="43.96815" lon="7.12415">
        <ele>905.9</ele>
        <time>2012-10-13T11:20:25Z</time>
      </trkpt>
      <trkpt lat="43.96807" lon="7.12432">
        <ele>909.2</ele>
        <time>2012-10-13T11:20:35Z</time>
      </trkpt>
      <trkpt lat="43.96781" lon="7.12451">
        <ele>903.8</ele>
        <time>2012-10-13T11:20:45Z</time>
      </trkpt>
      <trkpt lat="43.96773" lon="7.1246">
        <ele>904.4</ele>
        <time>2012-10-13T11:20:51Z</time>
      </trkpt>
      <trkpt lat="43.96769" lon="7.12462">
        <ele>904.8</ele>
        <time>2012-10-13T11:20:54Z</time>
      </trkpt>
      <trkpt lat="43.96765" lon="7.12476">
        <ele>913.6</ele>
        <time>2012-10-13T11:21:02Z</time>
      </trkpt>
      <trkpt lat="43.96765" lon="7.1248">
        <ele>916.2</ele>
        <time>2012-10-13T11:21:05Z</time>
      </trkpt>
      <trkpt lat="43.96754" lon="7.12487">
        <ele>921.8</ele>
        <time>2012-10-13T11:21:16Z</time>
      </trkpt>
      <trkpt lat="43.96741" lon="7.12511">
        <ele>916.2</ele>
        <time>2012-10-13T11:21:46Z</time>
      </trkpt>
      <trkpt lat="43.96742" lon="7.12518">
        <ele>919</ele>
        <time>2012-10-13T11:21:51Z</time>
      </trkpt>
      <trkpt lat="43.96744" lon="7.12518">
        <ele>920.2</ele>
        <time>2012-10-13T11:21:52Z</time>
      </trkpt>
      <trkpt lat="43.96749" lon="7.12522">
        <ele>923.5</ele>
        <time>2012-10-13T11:21:57Z</time>
      </trkpt>
      <trkpt lat="43.9675" lon="7.12526">
        <ele>922.9</ele>
        <time>2012-10-13T11:22:00Z</time>
      </trkpt>
      <trkpt lat="43.9675" lon="7.12535">
        <ele>921.7</ele>
        <time>2012-10-13T11:22:06Z</time>
      </trkpt>
      <trkpt lat="43.96745" lon="7.12542">
        <ele>920.4</ele>
        <time>2012-10-13T11:22:11Z</time>
      </trkpt>
      <trkpt lat="43.96728" lon="7.12557">
        <ele>924.1</ele>
        <time>2012-10-13T11:22:29Z</time>
      </trkpt>
      <trkpt lat="43.96727" lon="7.12559">
        <ele>925.5</ele>
        <time>2012-10-13T11:22:30Z</time>
      </trkpt>
      <trkpt lat="43.96733" lon="7.12567">
        <ele>930.2</ele>
        <time>2012-10-13T11:22:36Z</time>
      </trkpt>
      <trkpt lat="43.96734" lon="7.12569">
        <ele>930.6</ele>
        <time>2012-10-13T11:22:37Z</time>
      </trkpt>
      <trkpt lat="43.96733" lon="7.1258">
        <ele>931.1</ele>
        <time>2012-10-13T11:22:43Z</time>
      </trkpt>
      <trkpt lat="43.96729" lon="7.12589">
        <ele>927.6</ele>
        <time>2012-10-13T11:22:50Z</time>
      </trkpt>
      <trkpt lat="43.96729" lon="7.1259">
        <ele>927.2</ele>
        <time>2012-10-13T11:22:52Z</time>
      </trkpt>
      <trkpt lat="43.96728" lon="7.12596">
        <ele>926.2</ele>
        <time>2012-10-13T11:22:58Z</time>
      </trkpt>
      <trkpt lat="43.96734" lon="7.12609">
        <ele>925</ele>
        <time>2012-10-13T11:23:11Z</time>
      </trkpt>
      <trkpt lat="43.96741" lon="7.12616">
        <ele>923.6</ele>
        <time>2012-10-13T11:23:17Z</time>
      </trkpt>
      <trkpt lat="43.96755" lon="7.12626">
        <ele>926.4</ele>
        <time>2012-10-13T11:23:27Z</time>
      </trkpt>
      <trkpt lat="43.96762" lon="7.12628">
        <ele>926</ele>
        <time>2012-10-13T11:23:33Z</time>
      </trkpt>
      <trkpt lat="43.96767" lon="7.12632">
        <ele>927.8</ele>
        <time>2012-10-13T11:23:47Z</time>
      </trkpt>
      <trkpt lat="43.96773" lon="7.12641">
        <ele>926.4</ele>
        <time>2012-10-13T11:24:00Z</time>
      </trkpt>
      <trkpt lat="43.96782" lon="7.12647">
        <ele>925</ele>
        <time>2012-10-13T11:24:05Z</time>
      </trkpt>
      <trkpt lat="43.96787" lon="7.12648">
        <ele>923.6</ele>
        <time>2012-10-13T11:24:08Z</time>
      </trkpt>
      <trkpt lat="43.96792" lon="7.12662">
        <ele>914.7</ele>
        <time>2012-10-13T11:24:21Z</time>
      </trkpt>
      <trkpt lat="43.96791" lon="7.12663">
        <ele>914.2</ele>
        <time>2012-10-13T11:24:24Z</time>
      </trkpt>
      <trkpt lat="43.96786" lon="7.12688">
        <ele>912.6</ele>
        <time>2012-10-13T11:24:40Z</time>
      </trkpt>
      <trkpt lat="43.96787" lon="7.12699">
        <ele>914.2</ele>
        <time>2012-10-13T11:24:43Z</time>
      </trkpt>
      <trkpt lat="43.96791" lon="7.12713">
        <ele>918</ele>
        <time>2012-10-13T11:24:49Z</time>
      </trkpt>
      <trkpt lat="43.96791" lon="7.12726">
        <ele>916.3</ele>
        <time>2012-10-13T11:24:54Z</time>
      </trkpt>
      <trkpt lat="43.96799" lon="7.12758">
        <ele>909.8</ele>
        <time>2012-10-13T11:25:04Z</time>
      </trkpt>
      <trkpt lat="43.96798" lon="7.12765">
        <ele>908</ele>
        <time>2012-10-13T11:25:06Z</time>
      </trkpt>
      <trkpt lat="43.96785" lon="7.12781">
        <ele>901.7</ele>
        <time>2012-10-13T11:25:12Z</time>
      </trkpt>
      <trkpt lat="43.9678" lon="7.12785">
        <ele>899.1</ele>
        <time>2012-10-13T11:25:14Z</time>
      </trkpt>
      <trkpt lat="43.96767" lon="7.12792">
        <ele>898.1</ele>
        <time>2012-10-13T11:25:20Z</time>
      </trkpt>
      <trkpt lat="43.96764" lon="7.12793">
        <ele>898.2</ele>
        <time>2012-10-13T11:25:21Z</time>
      </trkpt>
      <trkpt lat="43.96759" lon="7.128">
        <ele>898.4</ele>
        <time>2012-10-13T11:25:27Z</time>
      </trkpt>
      <trkpt lat="43.96763" lon="7.12809">
        <ele>899.9</ele>
        <time>2012-10-13T11:25:31Z</time>
      </trkpt>
      <trkpt lat="43.96765" lon="7.1282">
        <ele>900.6</ele>
        <time>2012-10-13T11:25:40Z</time>
      </trkpt>
      <trkpt lat="43.96761" lon="7.12843">
        <ele>897.9</ele>
        <time>2012-10-13T11:25:45Z</time>
      </trkpt>
      <trkpt lat="43.96754" lon="7.12854">
        <ele>897.2</ele>
        <time>2012-10-13T11:25:50Z</time>
      </trkpt>
      <trkpt lat="43.96747" lon="7.12873">
        <ele>898.2</ele>
        <time>2012-10-13T11:25:57Z</time>
      </trkpt>
      <trkpt lat="43.96741" lon="7.12904">
        <ele>899.4</ele>
        <time>2012-10-13T11:26:06Z</time>
      </trkpt>
      <trkpt lat="43.96739" lon="7.12908">
        <ele>899</ele>
        <time>2012-10-13T11:26:10Z</time>
      </trkpt>
      <trkpt lat="43.96738" lon="7.12912">
        <ele>902.3</ele>
        <time>2012-10-13T11:26:16Z</time>
      </trkpt>
      <trkpt lat="43.96741" lon="7.1292">
        <ele>906.2</ele>
        <time>2012-10-13T11:26:23Z</time>
      </trkpt>
      <trkpt lat="43.96742" lon="7.12924">
        <ele>904.9</ele>
        <time>2012-10-13T11:26:28Z</time>
      </trkpt>
      <trkpt lat="43.96736" lon="7.1293">
        <ele>898.8</ele>
        <time>2012-10-13T11:26:35Z</time>
      </trkpt>
      <trkpt lat="43.96733" lon="7.12935">
        <ele>898.6</ele>
        <time>2012-10-13T11:26:40Z</time>
      </trkpt>
      <trkpt lat="43.96738" lon="7.12948">
        <ele>901.1</ele>
        <time>2012-10-13T11:26:48Z</time>
      </trkpt>
      <trkpt lat="43.96739" lon="7.12961">
        <ele>899.2</ele>
        <time>2012-10-13T11:26:58Z</time>
      </trkpt>
      <trkpt lat="43.9674" lon="7.12964">
        <ele>897.5</ele>
        <time>2012-10-13T11:27:00Z</time>
      </trkpt>
      <trkpt lat="43.96738" lon="7.1297">
        <ele>894.9</ele>
        <time>2012-10-13T11:27:04Z</time>
      </trkpt>
      <trkpt lat="43.96738" lon="7.12975">
        <ele>893.4</ele>
        <time>2012-10-13T11:27:11Z</time>
      </trkpt>
      <trkpt lat="43.96729" lon="7.12981">
        <ele>894.5</ele>
        <time>2012-10-13T11:27:19Z</time>
      </trkpt>
      <trkpt lat="43.96719" lon="7.12983">
        <ele>897.6</ele>
        <time>2012-10-13T11:27:25Z</time>
      </trkpt>
      <trkpt lat="43.96713" lon="7.12986">
        <ele>900.8</ele>
        <time>2012-10-13T11:27:30Z</time>
      </trkpt>
      <trkpt lat="43.96703" lon="7.12994">
        <ele>903.2</ele>
        <time>2012-10-13T11:27:38Z</time>
      </trkpt>
      <trkpt lat="43.96694" lon="7.13005">
        <ele>903.6</ele>
        <time>2012-10-13T11:27:44Z</time>
      </trkpt>
      <trkpt lat="43.96676" lon="7.13017">
        <ele>901.2</ele>
        <time>2012-10-13T11:27:53Z</time>
      </trkpt>
      <trkpt lat="43.96676" lon="7.13042">
        <ele>902.6</ele>
        <time>2012-10-13T11:28:03Z</time>
      </trkpt>
      <trkpt lat="43.96674" lon="7.13047">
        <ele>903.5</ele>
        <time>2012-10-13T11:28:06Z</time>
      </trkpt>
      <trkpt lat="43.96668" lon="7.13061">
        <ele>905.8</ele>
        <time>2012-10-13T11:28:13Z</time>
      </trkpt>
      <trkpt lat="43.96659" lon="7.13074">
        <ele>904.9</ele>
        <time>2012-10-13T11:28:19Z</time>
      </trkpt>
      <trkpt lat="43.96649" lon="7.13082">
        <ele>903.5</ele>
        <time>2012-10-13T11:28:25Z</time>
      </trkpt>
      <trkpt lat="43.96604" lon="7.13129">
        <ele>900</ele>
        <time>2012-10-13T11:28:46Z</time>
      </trkpt>
      <trkpt lat="43.96598" lon="7.13138">
        <ele>900.4</ele>
        <time>2012-10-13T11:28:50Z</time>
      </trkpt>
      <trkpt lat="43.96595" lon="7.13154">
        <ele>906.9</ele>
        <time>2012-10-13T11:28:59Z</time>
      </trkpt>
      <trkpt lat="43.96589" lon="7.1317">
        <ele>908.6</ele>
        <time>2012-10-13T11:29:06Z</time>
      </trkpt>
      <trkpt lat="43.96587" lon="7.13191">
        <ele>916.4</ele>
        <time>2012-10-13T11:29:14Z</time>
      </trkpt>
      <trkpt lat="43.96587" lon="7.1321">
        <ele>912.1</ele>
        <time>2012-10-13T11:29:20Z</time>
      </trkpt>
      <trkpt lat="43.96591" lon="7.13228">
        <ele>910</ele>
        <time>2012-10-13T11:29:25Z</time>
      </trkpt>
      <trkpt lat="43.96592" lon="7.13252">
        <ele>907.1</ele>
        <time>2012-10-13T11:29:30Z</time>
      </trkpt>
      <trkpt lat="43.9659" lon="7.13264">
        <ele>906.1</ele>
        <time>2012-10-13T11:29:32Z</time>
      </trkpt>
      <trkpt lat="43.96586" lon="7.1327">
        <ele>905.1</ele>
        <time>2012-10-13T11:29:35Z</time>
      </trkpt>
      <trkpt lat="43.9658" lon="7.13274">
        <ele>904.5</ele>
        <time>2012-10-13T11:29:42Z</time>
      </trkpt>
      <trkpt lat="43.9656" lon="7.13291">
        <ele>902.2</ele>
        <time>2012-10-13T11:29:54Z</time>
      </trkpt>
      <trkpt lat="43.96543" lon="7.13294">
        <ele>897.9</ele>
        <time>2012-10-13T11:30:03Z</time>
      </trkpt>
      <trkpt lat="43.96535" lon="7.13305">
        <ele>894.1</ele>
        <time>2012-10-13T11:30:09Z</time>
      </trkpt>
      <trkpt lat="43.96532" lon="7.13313">
        <ele>890.4</ele>
        <time>2012-10-13T11:30:14Z</time>
      </trkpt>
      <trkpt lat="43.96534" lon="7.1332">
        <ele>890.7</ele>
        <time>2012-10-13T11:30:19Z</time>
      </trkpt>
      <trkpt lat="43.96536" lon="7.13357">
        <ele>888.5</ele>
        <time>2012-10-13T11:30:28Z</time>
      </trkpt>
      <trkpt lat="43.96543" lon="7.13372">
        <ele>883.5</ele>
        <time>2012-10-13T11:30:33Z</time>
      </trkpt>
      <trkpt lat="43.96539" lon="7.13395">
        <ele>877.3</ele>
        <time>2012-10-13T11:30:38Z</time>
      </trkpt>
      <trkpt lat="43.96534" lon="7.13404">
        <ele>874.5</ele>
        <time>2012-10-13T11:30:40Z</time>
      </trkpt>
      <trkpt lat="43.96514" lon="7.13457">
        <ele>861.1</ele>
        <time>2012-10-13T11:30:51Z</time>
      </trkpt>
      <trkpt lat="43.96504" lon="7.13477">
        <ele>858.6</ele>
        <time>2012-10-13T11:30:56Z</time>
      </trkpt>
      <trkpt lat="43.96498" lon="7.13482">
        <ele>855.1</ele>
        <time>2012-10-13T11:31:00Z</time>
      </trkpt>
      <trkpt lat="43.96484" lon="7.1349">
        <ele>851.5</ele>
        <time>2012-10-13T11:31:08Z</time>
      </trkpt>
      <trkpt lat="43.96475" lon="7.13496">
        <ele>848.2</ele>
        <time>2012-10-13T11:31:11Z</time>
      </trkpt>
      <trkpt lat="43.96474" lon="7.13514">
        <ele>848.4</ele>
        <time>2012-10-13T11:31:16Z</time>
      </trkpt>
      <trkpt lat="43.96475" lon="7.13522">
        <ele>848</ele>
        <time>2012-10-13T11:31:18Z</time>
      </trkpt>
      <trkpt lat="43.96475" lon="7.13542">
        <ele>846.6</ele>
        <time>2012-10-13T11:31:23Z</time>
      </trkpt>
      <trkpt lat="43.96474" lon="7.13546">
        <ele>846.1</ele>
        <time>2012-10-13T11:31:27Z</time>
      </trkpt>
      <trkpt lat="43.96477" lon="7.13548">
        <ele>853.8</ele>
        <time>2012-10-13T11:35:01Z</time>
      </trkpt>
      <trkpt lat="43.96474" lon="7.13554">
        <ele>855.4</ele>
        <time>2012-10-13T11:35:09Z</time>
      </trkpt>
      <trkpt lat="43.96456" lon="7.13576">
        <ele>860.8</ele>
        <time>2012-10-13T11:35:40Z</time>
      </trkpt>
      <trkpt lat="43.96454" lon="7.13576">
        <ele>861.4</ele>
        <time>2012-10-13T11:35:46Z</time>
      </trkpt>
      <trkpt lat="43.96454" lon="7.13574">
        <ele>861.7</ele>
        <time>2012-10-13T11:35:48Z</time>
      </trkpt>
      <trkpt lat="43.96458" lon="7.13526">
        <ele>870.1</ele>
        <time>2012-10-13T11:36:34Z</time>
      </trkpt>
      <trkpt lat="43.9645" lon="7.13538">
        <ele>873.2</ele>
        <time>2012-10-13T11:36:51Z</time>
      </trkpt>
      <trkpt lat="43.96433" lon="7.1356">
        <ele>877.9</ele>
        <time>2012-10-13T11:37:23Z</time>
      </trkpt>
      <trkpt lat="43.96429" lon="7.13562">
        <ele>879.3</ele>
        <time>2012-10-13T11:37:31Z</time>
      </trkpt>
      <trkpt lat="43.96429" lon="7.13559">
        <ele>879.3</ele>
        <time>2012-10-13T11:37:34Z</time>
      </trkpt>
      <trkpt lat="43.96432" lon="7.13548">
        <ele>880.7</ele>
        <time>2012-10-13T11:37:44Z</time>
      </trkpt>
      <trkpt lat="43.96437" lon="7.13519">
        <ele>884.9</ele>
        <time>2012-10-13T11:38:10Z</time>
      </trkpt>
      <trkpt lat="43.96438" lon="7.13511">
        <ele>886.6</ele>
        <time>2012-10-13T11:38:19Z</time>
      </trkpt>
      <trkpt lat="43.96438" lon="7.13501">
        <ele>888.2</ele>
        <time>2012-10-13T11:38:29Z</time>
      </trkpt>
      <trkpt lat="43.96437" lon="7.13496">
        <ele>889.1</ele>
        <time>2012-10-13T11:38:34Z</time>
      </trkpt>
      <trkpt lat="43.96434" lon="7.13486">
        <ele>890.7</ele>
        <time>2012-10-13T11:38:43Z</time>
      </trkpt>
      <trkpt lat="43.96433" lon="7.13468">
        <ele>893.9</ele>
        <time>2012-10-13T11:39:01Z</time>
      </trkpt>
      <trkpt lat="43.96433" lon="7.13459">
        <ele>896.7</ele>
        <time>2012-10-13T11:39:09Z</time>
      </trkpt>
      <trkpt lat="43.96436" lon="7.13456">
        <ele>897.5</ele>
        <time>2012-10-13T11:39:13Z</time>
      </trkpt>
      <trkpt lat="43.96443" lon="7.13453">
        <ele>899.5</ele>
        <time>2012-10-13T11:39:23Z</time>
      </trkpt>
      <trkpt lat="43.96452" lon="7.13447">
        <ele>901.1</ele>
        <time>2012-10-13T11:39:35Z</time>
      </trkpt>
      <trkpt lat="43.96463" lon="7.13435">
        <ele>903.1</ele>
        <time>2012-10-13T11:39:54Z</time>
      </trkpt>
      <trkpt lat="43.96467" lon="7.1343">
        <ele>904.7</ele>
        <time>2012-10-13T11:40:01Z</time>
      </trkpt>
      <trkpt lat="43.96471" lon="7.13421">
        <ele>906.8</ele>
        <time>2012-10-13T11:40:11Z</time>
      </trkpt>
      <trkpt lat="43.96487" lon="7.13374">
        <ele>918.4</ele>
        <time>2012-10-13T11:41:06Z</time>
      </trkpt>
      <trkpt lat="43.96492" lon="7.13366">
        <ele>918.4</ele>
        <time>2012-10-13T11:41:16Z</time>
      </trkpt>
      <trkpt lat="43.96493" lon="7.13358">
        <ele>919</ele>
        <time>2012-10-13T11:41:24Z</time>
      </trkpt>
      <trkpt lat="43.96493" lon="7.13345">
        <ele>919.8</ele>
        <time>2012-10-13T11:41:37Z</time>
      </trkpt>
      <trkpt lat="43.96493" lon="7.1334">
        <ele>920</ele>
        <time>2012-10-13T11:41:41Z</time>
      </trkpt>
      <trkpt lat="43.96492" lon="7.1333">
        <ele>921.4</ele>
        <time>2012-10-13T11:41:52Z</time>
      </trkpt>
      <trkpt lat="43.96496" lon="7.13297">
        <ele>927.2</ele>
        <time>2012-10-13T11:42:22Z</time>
      </trkpt>
      <trkpt lat="43.96495" lon="7.13273">
        <ele>931</ele>
        <time>2012-10-13T11:42:43Z</time>
      </trkpt>
      <trkpt lat="43.96499" lon="7.13266">
        <ele>934</ele>
        <time>2012-10-13T11:42:52Z</time>
      </trkpt>
      <trkpt lat="43.96503" lon="7.13261">
        <ele>936.3</ele>
        <time>2012-10-13T11:43:01Z</time>
      </trkpt>
      <trkpt lat="43.96509" lon="7.13256">
        <ele>938.6</ele>
        <time>2012-10-13T11:43:11Z</time>
      </trkpt>
      <trkpt lat="43.96527" lon="7.13235">
        <ele>942.1</ele>
        <time>2012-10-13T11:43:40Z</time>
      </trkpt>
      <trkpt lat="43.96531" lon="7.13226">
        <ele>943.8</ele>
        <time>2012-10-13T11:43:50Z</time>
      </trkpt>
      <trkpt lat="43.96532" lon="7.13224">
        <ele>944.2</ele>
        <time>2012-10-13T11:43:52Z</time>
      </trkpt>
      <trkpt lat="43.96533" lon="7.13213">
        <ele>945.9</ele>
        <time>2012-10-13T11:44:03Z</time>
      </trkpt>
      <trkpt lat="43.96529" lon="7.1318">
        <ele>950.8</ele>
        <time>2012-10-13T11:44:34Z</time>
      </trkpt>
      <trkpt lat="43.96529" lon="7.13177">
        <ele>951.7</ele>
        <time>2012-10-13T11:44:40Z</time>
      </trkpt>
      <trkpt lat="43.96529" lon="7.13172">
        <ele>953.9</ele>
        <time>2012-10-13T11:44:49Z</time>
      </trkpt>
      <trkpt lat="43.9653" lon="7.13157">
        <ele>951.6</ele>
        <time>2012-10-13T11:45:02Z</time>
      </trkpt>
      <trkpt lat="43.9653" lon="7.13156">
        <ele>950.6</ele>
        <time>2012-10-13T11:45:03Z</time>
      </trkpt>
      <trkpt lat="43.9653" lon="7.13148">
        <ele>952</ele>
        <time>2012-10-13T11:45:10Z</time>
      </trkpt>
      <trkpt lat="43.9653" lon="7.13142">
        <ele>953.2</ele>
        <time>2012-10-13T11:45:15Z</time>
      </trkpt>
      <trkpt lat="43.96527" lon="7.1313">
        <ele>952.5</ele>
        <time>2012-10-13T11:45:24Z</time>
      </trkpt>
      <trkpt lat="43.96527" lon="7.13122">
        <ele>954.9</ele>
        <time>2012-10-13T11:45:31Z</time>
      </trkpt>
      <trkpt lat="43.96526" lon="7.13121">
        <ele>954.6</ele>
        <time>2012-10-13T11:45:38Z</time>
      </trkpt>
      <trkpt lat="43.96525" lon="7.13126">
        <ele>957.4</ele>
        <time>2012-10-13T11:45:45Z</time>
      </trkpt>
      <trkpt lat="43.96525" lon="7.13133">
        <ele>965.7</ele>
        <time>2012-10-13T11:45:52Z</time>
      </trkpt>
      <trkpt lat="43.96523" lon="7.13135">
        <ele>967.3</ele>
        <time>2012-10-13T11:45:54Z</time>
      </trkpt>
      <trkpt lat="43.96522" lon="7.1314">
        <ele>972.1</ele>
        <time>2012-10-13T11:45:59Z</time>
      </trkpt>
      <trkpt lat="43.96521" lon="7.13143">
        <ele>976.8</ele>
        <time>2012-10-13T11:46:02Z</time>
      </trkpt>
      <trkpt lat="43.9652" lon="7.13148">
        <ele>979.7</ele>
        <time>2012-10-13T11:46:07Z</time>
      </trkpt>
      <trkpt lat="43.96516" lon="7.13152">
        <ele>973.8</ele>
        <time>2012-10-13T11:46:13Z</time>
      </trkpt>
      <trkpt lat="43.96513" lon="7.13157">
        <ele>966.2</ele>
        <time>2012-10-13T11:46:18Z</time>
      </trkpt>
      <trkpt lat="43.96512" lon="7.13158">
        <ele>966.7</ele>
        <time>2012-10-13T11:46:21Z</time>
      </trkpt>
      <trkpt lat="43.96507" lon="7.1317">
        <ele>970</ele>
        <time>2012-10-13T11:46:30Z</time>
      </trkpt>
      <trkpt lat="43.96506" lon="7.13183">
        <ele>971.8</ele>
        <time>2012-10-13T11:46:42Z</time>
      </trkpt>
      <trkpt lat="43.96504" lon="7.13191">
        <ele>971.3</ele>
        <time>2012-10-13T11:46:49Z</time>
      </trkpt>
      <trkpt lat="43.96506" lon="7.13197">
        <ele>974.2</ele>
        <time>2012-10-13T11:46:54Z</time>
      </trkpt>
      <trkpt lat="43.96505" lon="7.13198">
        <ele>974.2</ele>
        <time>2012-10-13T11:46:55Z</time>
      </trkpt>
      <trkpt lat="43.96499" lon="7.13206">
        <ele>972.8</ele>
        <time>2012-10-13T11:47:04Z</time>
      </trkpt>
      <trkpt lat="43.96495" lon="7.13207">
        <ele>971.3</ele>
        <time>2012-10-13T11:47:09Z</time>
      </trkpt>
      <trkpt lat="43.96492" lon="7.13199">
        <ele>970</ele>
        <time>2012-10-13T11:47:17Z</time>
      </trkpt>
      <trkpt lat="43.96499" lon="7.13191">
        <ele>969.4</ele>
        <time>2012-10-13T11:47:29Z</time>
      </trkpt>
      <trkpt lat="43.96495" lon="7.13175">
        <ele>978.2</ele>
        <time>2012-10-13T11:47:50Z</time>
      </trkpt>
      <trkpt lat="43.96496" lon="7.13169">
        <ele>981.9</ele>
        <time>2012-10-13T11:48:01Z</time>
      </trkpt>
      <trkpt lat="43.96499" lon="7.13164">
        <ele>982.9</ele>
        <time>2012-10-13T11:48:09Z</time>
      </trkpt>
      <trkpt lat="43.96497" lon="7.13158">
        <ele>983.7</ele>
        <time>2012-10-13T11:48:14Z</time>
      </trkpt>
      <trkpt lat="43.96501" lon="7.13151">
        <ele>984.1</ele>
        <time>2012-10-13T11:48:21Z</time>
      </trkpt>
      <trkpt lat="43.96496" lon="7.13144">
        <ele>987.1</ele>
        <time>2012-10-13T11:48:29Z</time>
      </trkpt>
      <trkpt lat="43.96495" lon="7.13137">
        <ele>984.4</ele>
        <time>2012-10-13T11:48:35Z</time>
      </trkpt>
      <trkpt lat="43.96493" lon="7.13128">
        <ele>983.7</ele>
        <time>2012-10-13T11:48:45Z</time>
      </trkpt>
      <trkpt lat="43.96492" lon="7.13118">
        <ele>984.7</ele>
        <time>2012-10-13T11:48:53Z</time>
      </trkpt>
      <trkpt lat="43.96492" lon="7.13113">
        <ele>984.5</ele>
        <time>2012-10-13T11:48:57Z</time>
      </trkpt>
      <trkpt lat="43.96491" lon="7.13106">
        <ele>986.5</ele>
        <time>2012-10-13T11:49:04Z</time>
      </trkpt>
      <trkpt lat="43.96492" lon="7.13099">
        <ele>985.5</ele>
        <time>2012-10-13T11:49:11Z</time>
      </trkpt>
      <trkpt lat="43.9649" lon="7.13085">
        <ele>991.9</ele>
        <time>2012-10-13T11:49:25Z</time>
      </trkpt>
      <trkpt lat="43.96491" lon="7.13079">
        <ele>990.5</ele>
        <time>2012-10-13T11:49:32Z</time>
      </trkpt>
      <trkpt lat="43.96488" lon="7.13073">
        <ele>991.6</ele>
        <time>2012-10-13T11:49:37Z</time>
      </trkpt>
      <trkpt lat="43.96487" lon="7.13055">
        <ele>996</ele>
        <time>2012-10-13T11:49:54Z</time>
      </trkpt>
      <trkpt lat="43.96488" lon="7.13049">
        <ele>997.6</ele>
        <time>2012-10-13T11:50:00Z</time>
      </trkpt>
      <trkpt lat="43.9649" lon="7.13042">
        <ele>1000.2</ele>
        <time>2012-10-13T11:50:10Z</time>
      </trkpt>
      <trkpt lat="43.96492" lon="7.13034">
        <ele>998.9</ele>
        <time>2012-10-13T11:50:17Z</time>
      </trkpt>
      <trkpt lat="43.96496" lon="7.13031">
        <ele>1001</ele>
        <time>2012-10-13T11:50:25Z</time>
      </trkpt>
      <trkpt lat="43.96499" lon="7.13026">
        <ele>1001.9</ele>
        <time>2012-10-13T11:50:30Z</time>
      </trkpt>
      <trkpt lat="43.965" lon="7.13021">
        <ele>1003.3</ele>
        <time>2012-10-13T11:50:35Z</time>
      </trkpt>
      <trkpt lat="43.96506" lon="7.13017">
        <ele>1003.7</ele>
        <time>2012-10-13T11:50:42Z</time>
      </trkpt>
      <trkpt lat="43.96507" lon="7.13014">
        <ele>1005.1</ele>
        <time>2012-10-13T11:50:47Z</time>
      </trkpt>
      <trkpt lat="43.9651" lon="7.1301">
        <ele>1008.8</ele>
        <time>2012-10-13T11:50:56Z</time>
      </trkpt>
      <trkpt lat="43.96512" lon="7.13006">
        <ele>1008</ele>
        <time>2012-10-13T11:51:01Z</time>
      </trkpt>
      <trkpt lat="43.96513" lon="7.13002">
        <ele>1007</ele>
        <time>2012-10-13T11:51:07Z</time>
      </trkpt>
      <trkpt lat="43.96516" lon="7.12998">
        <ele>1007.2</ele>
        <time>2012-10-13T11:51:13Z</time>
      </trkpt>
      <trkpt lat="43.96518" lon="7.12992">
        <ele>1009.8</ele>
        <time>2012-10-13T11:51:21Z</time>
      </trkpt>
      <trkpt lat="43.96519" lon="7.12988">
        <ele>1009.7</ele>
        <time>2012-10-13T11:51:24Z</time>
      </trkpt>
      <trkpt lat="43.96517" lon="7.12976">
        <ele>1009.9</ele>
        <time>2012-10-13T11:51:34Z</time>
      </trkpt>
      <trkpt lat="43.96519" lon="7.12968">
        <ele>1010</ele>
        <time>2012-10-13T11:51:41Z</time>
      </trkpt>
      <trkpt lat="43.96521" lon="7.12963">
        <ele>1011</ele>
        <time>2012-10-13T11:51:47Z</time>
      </trkpt>
      <trkpt lat="43.96523" lon="7.12958">
        <ele>1013.4</ele>
        <time>2012-10-13T11:51:55Z</time>
      </trkpt>
      <trkpt lat="43.96523" lon="7.12951">
        <ele>1015.4</ele>
        <time>2012-10-13T11:52:05Z</time>
      </trkpt>
      <trkpt lat="43.96529" lon="7.12941">
        <ele>1014.3</ele>
        <time>2012-10-13T11:52:14Z</time>
      </trkpt>
      <trkpt lat="43.96535" lon="7.12936">
        <ele>1013</ele>
        <time>2012-10-13T11:52:20Z</time>
      </trkpt>
      <trkpt lat="43.96536" lon="7.12931">
        <ele>1011.9</ele>
        <time>2012-10-13T11:52:25Z</time>
      </trkpt>
      <trkpt lat="43.96536" lon="7.12925">
        <ele>1012.8</ele>
        <time>2012-10-13T11:52:31Z</time>
      </trkpt>
      <trkpt lat="43.96538" lon="7.12918">
        <ele>1016.9</ele>
        <time>2012-10-13T11:52:39Z</time>
      </trkpt>
      <trkpt lat="43.96537" lon="7.12898">
        <ele>1022.9</ele>
        <time>2012-10-13T11:52:59Z</time>
      </trkpt>
      <trkpt lat="43.96539" lon="7.1289">
        <ele>1021.6</ele>
        <time>2012-10-13T11:53:06Z</time>
      </trkpt>
      <trkpt lat="43.96541" lon="7.12886">
        <ele>1023.5</ele>
        <time>2012-10-13T11:53:11Z</time>
      </trkpt>
      <trkpt lat="43.96542" lon="7.12866">
        <ele>1026.9</ele>
        <time>2012-10-13T11:53:26Z</time>
      </trkpt>
      <trkpt lat="43.96545" lon="7.12864">
        <ele>1027.8</ele>
        <time>2012-10-13T11:53:31Z</time>
      </trkpt>
      <trkpt lat="43.9655" lon="7.12864">
        <ele>1029.5</ele>
        <time>2012-10-13T11:53:38Z</time>
      </trkpt>
      <trkpt lat="43.96558" lon="7.12854">
        <ele>1025.7</ele>
        <time>2012-10-13T11:53:48Z</time>
      </trkpt>
      <trkpt lat="43.96561" lon="7.12844">
        <ele>1027.1</ele>
        <time>2012-10-13T11:53:55Z</time>
      </trkpt>
      <trkpt lat="43.96561" lon="7.12815">
        <ele>1035.5</ele>
        <time>2012-10-13T11:54:18Z</time>
      </trkpt>
      <trkpt lat="43.96567" lon="7.12805">
        <ele>1026.6</ele>
        <time>2012-10-13T11:54:54Z</time>
      </trkpt>
      <trkpt lat="43.96572" lon="7.12801">
        <ele>1034.1</ele>
        <time>2012-10-13T11:55:02Z</time>
      </trkpt>
      <trkpt lat="43.96574" lon="7.128">
        <ele>1036.2</ele>
        <time>2012-10-13T11:55:06Z</time>
      </trkpt>
      <trkpt lat="43.9658" lon="7.12799">
        <ele>1043.4</ele>
        <time>2012-10-13T11:55:14Z</time>
      </trkpt>
      <trkpt lat="43.96586" lon="7.12798">
        <ele>1044.4</ele>
        <time>2012-10-13T11:55:20Z</time>
      </trkpt>
      <trkpt lat="43.96591" lon="7.12795">
        <ele>1043.4</ele>
        <time>2012-10-13T11:55:25Z</time>
      </trkpt>
      <trkpt lat="43.96592" lon="7.1279">
        <ele>1045</ele>
        <time>2012-10-13T11:55:29Z</time>
      </trkpt>
      <trkpt lat="43.966" lon="7.12784">
        <ele>1044.7</ele>
        <time>2012-10-13T11:55:37Z</time>
      </trkpt>
      <trkpt lat="43.96602" lon="7.12779">
        <ele>1043.9</ele>
        <time>2012-10-13T11:55:41Z</time>
      </trkpt>
      <trkpt lat="43.96603" lon="7.12768">
        <ele>1042.3</ele>
        <time>2012-10-13T11:55:49Z</time>
      </trkpt>
      <trkpt lat="43.96602" lon="7.12763">
        <ele>1038.7</ele>
        <time>2012-10-13T11:55:52Z</time>
      </trkpt>
      <trkpt lat="43.966" lon="7.12756">
        <ele>1038</ele>
        <time>2012-10-13T11:55:58Z</time>
      </trkpt>
      <trkpt lat="43.96595" lon="7.1275">
        <ele>1045</ele>
        <time>2012-10-13T11:56:20Z</time>
      </trkpt>
      <trkpt lat="43.9657" lon="7.12678">
        <ele>1055.8</ele>
        <time>2012-10-13T11:57:09Z</time>
      </trkpt>
      <trkpt lat="43.96569" lon="7.12667">
        <ele>1059.1</ele>
        <time>2012-10-13T11:57:16Z</time>
      </trkpt>
      <trkpt lat="43.96566" lon="7.12659">
        <ele>1060.8</ele>
        <time>2012-10-13T11:57:22Z</time>
      </trkpt>
      <trkpt lat="43.9656" lon="7.12649">
        <ele>1062</ele>
        <time>2012-10-13T11:57:29Z</time>
      </trkpt>
      <trkpt lat="43.96558" lon="7.12642">
        <ele>1065.4</ele>
        <time>2012-10-13T11:57:35Z</time>
      </trkpt>
      <trkpt lat="43.96558" lon="7.12638">
        <ele>1067.3</ele>
        <time>2012-10-13T11:57:40Z</time>
      </trkpt>
      <trkpt lat="43.9655" lon="7.12615">
        <ele>1067</ele>
        <time>2012-10-13T11:57:57Z</time>
      </trkpt>
      <trkpt lat="43.96544" lon="7.12603">
        <ele>1066.9</ele>
        <time>2012-10-13T11:58:04Z</time>
      </trkpt>
      <trkpt lat="43.96541" lon="7.12587">
        <ele>1067</ele>
        <time>2012-10-13T11:58:14Z</time>
      </trkpt>
      <trkpt lat="43.96539" lon="7.1258">
        <ele>1067.5</ele>
        <time>2012-10-13T11:58:18Z</time>
      </trkpt>
      <trkpt lat="43.96537" lon="7.12567">
        <ele>1066.6</ele>
        <time>2012-10-13T11:58:27Z</time>
      </trkpt>
      <trkpt lat="43.96531" lon="7.12552">
        <ele>1063.9</ele>
        <time>2012-10-13T11:58:36Z</time>
      </trkpt>
      <trkpt lat="43.96524" lon="7.12529">
        <ele>1070.8</ele>
        <time>2012-10-13T11:58:51Z</time>
      </trkpt>
      <trkpt lat="43.96516" lon="7.12508">
        <ele>1076.7</ele>
        <time>2012-10-13T11:59:06Z</time>
      </trkpt>
      <trkpt lat="43.96513" lon="7.12497">
        <ele>1080.9</ele>
        <time>2012-10-13T11:59:13Z</time>
      </trkpt>
      <trkpt lat="43.96512" lon="7.12487">
        <ele>1083</ele>
        <time>2012-10-13T11:59:20Z</time>
      </trkpt>
      <trkpt lat="43.96504" lon="7.1247">
        <ele>1087.7</ele>
        <time>2012-10-13T11:59:31Z</time>
      </trkpt>
      <trkpt lat="43.96503" lon="7.12456">
        <ele>1088.4</ele>
        <time>2012-10-13T11:59:38Z</time>
      </trkpt>
      <trkpt lat="43.96508" lon="7.12445">
        <ele>1090.8</ele>
        <time>2012-10-13T11:59:46Z</time>
      </trkpt>
      <trkpt lat="43.96511" lon="7.12414">
        <ele>1088.4</ele>
        <time>2012-10-13T12:00:04Z</time>
      </trkpt>
      <trkpt lat="43.96513" lon="7.12407">
        <ele>1091.7</ele>
        <time>2012-10-13T12:00:09Z</time>
      </trkpt>
      <trkpt lat="43.96516" lon="7.12401">
        <ele>1092.9</ele>
        <time>2012-10-13T12:00:13Z</time>
      </trkpt>
      <trkpt lat="43.96517" lon="7.12395">
        <ele>1093</ele>
        <time>2012-10-13T12:00:18Z</time>
      </trkpt>
      <trkpt lat="43.96522" lon="7.12382">
        <ele>1092.4</ele>
        <time>2012-10-13T12:00:32Z</time>
      </trkpt>
      <trkpt lat="43.96527" lon="7.12378">
        <ele>1089.3</ele>
        <time>2012-10-13T12:00:38Z</time>
      </trkpt>
      <trkpt lat="43.96533" lon="7.1237">
        <ele>1085.4</ele>
        <time>2012-10-13T12:00:47Z</time>
      </trkpt>
      <trkpt lat="43.9653" lon="7.12356">
        <ele>1088.4</ele>
        <time>2012-10-13T12:01:00Z</time>
      </trkpt>
      <trkpt lat="43.96543" lon="7.12336">
        <ele>1088.8</ele>
        <time>2012-10-13T12:01:22Z</time>
      </trkpt>
      <trkpt lat="43.96544" lon="7.12329">
        <ele>1087.6</ele>
        <time>2012-10-13T12:01:27Z</time>
      </trkpt>
      <trkpt lat="43.96545" lon="7.12325">
        <ele>1089.6</ele>
        <time>2012-10-13T12:01:32Z</time>
      </trkpt>
      <trkpt lat="43.96544" lon="7.12317">
        <ele>1090</ele>
        <time>2012-10-13T12:01:39Z</time>
      </trkpt>
      <trkpt lat="43.96544" lon="7.12312">
        <ele>1090.3</ele>
        <time>2012-10-13T12:01:44Z</time>
      </trkpt>
      <trkpt lat="43.96552" lon="7.12304">
        <ele>1088.6</ele>
        <time>2012-10-13T12:01:52Z</time>
      </trkpt>
      <trkpt lat="43.96553" lon="7.12302">
        <ele>1090.7</ele>
        <time>2012-10-13T12:01:56Z</time>
      </trkpt>
      <trkpt lat="43.96548" lon="7.12286">
        <ele>1092</ele>
        <time>2012-10-13T12:02:13Z</time>
      </trkpt>
      <trkpt lat="43.96551" lon="7.12283">
        <ele>1092.1</ele>
        <time>2012-10-13T12:02:19Z</time>
      </trkpt>
      <trkpt lat="43.96549" lon="7.12277">
        <ele>1098.5</ele>
        <time>2012-10-13T12:02:29Z</time>
      </trkpt>
      <trkpt lat="43.9655" lon="7.12272">
        <ele>1096.9</ele>
        <time>2012-10-13T12:02:35Z</time>
      </trkpt>
      <trkpt lat="43.96548" lon="7.12256">
        <ele>1100.4</ele>
        <time>2012-10-13T12:02:49Z</time>
      </trkpt>
      <trkpt lat="43.96547" lon="7.12251">
        <ele>1101.3</ele>
        <time>2012-10-13T12:02:54Z</time>
      </trkpt>
      <trkpt lat="43.96545" lon="7.12247">
        <ele>1101.8</ele>
        <time>2012-10-13T12:02:58Z</time>
      </trkpt>
      <trkpt lat="43.96536" lon="7.12236">
        <ele>1108.4</ele>
        <time>2012-10-13T12:03:09Z</time>
      </trkpt>
      <trkpt lat="43.96533" lon="7.1223">
        <ele>1114.5</ele>
        <time>2012-10-13T12:03:16Z</time>
      </trkpt>
      <trkpt lat="43.96531" lon="7.12216">
        <ele>1108.7</ele>
        <time>2012-10-13T12:03:30Z</time>
      </trkpt>
      <trkpt lat="43.96533" lon="7.12209">
        <ele>1100.8</ele>
        <time>2012-10-13T12:03:36Z</time>
      </trkpt>
      <trkpt lat="43.96533" lon="7.12204">
        <ele>1099</ele>
        <time>2012-10-13T12:03:41Z</time>
      </trkpt>
      <trkpt lat="43.96525" lon="7.12186">
        <ele>1111.5</ele>
        <time>2012-10-13T12:04:09Z</time>
      </trkpt>
      <trkpt lat="43.96529" lon="7.12179">
        <ele>1112.6</ele>
        <time>2012-10-13T12:04:16Z</time>
      </trkpt>
      <trkpt lat="43.9653" lon="7.12177">
        <ele>1115.4</ele>
        <time>2012-10-13T12:04:19Z</time>
      </trkpt>
      <trkpt lat="43.96534" lon="7.12172">
        <ele>1123</ele>
        <time>2012-10-13T12:04:23Z</time>
      </trkpt>
      <trkpt lat="43.96539" lon="7.12136">
        <ele>1135</ele>
        <time>2012-10-13T12:04:49Z</time>
      </trkpt>
      <trkpt lat="43.96539" lon="7.12132">
        <ele>1140.5</ele>
        <time>2012-10-13T12:04:54Z</time>
      </trkpt>
      <trkpt lat="43.96538" lon="7.1213">
        <ele>1141.7</ele>
        <time>2012-10-13T12:04:56Z</time>
      </trkpt>
      <trkpt lat="43.96538" lon="7.12113">
        <ele>1142</ele>
        <time>2012-10-13T12:05:06Z</time>
      </trkpt>
      <trkpt lat="43.9654" lon="7.12101">
        <ele>1138.7</ele>
        <time>2012-10-13T12:05:15Z</time>
      </trkpt>
      <trkpt lat="43.96541" lon="7.1209">
        <ele>1141.2</ele>
        <time>2012-10-13T12:05:25Z</time>
      </trkpt>
      <trkpt lat="43.96542" lon="7.12086">
        <ele>1144.1</ele>
        <time>2012-10-13T12:05:31Z</time>
      </trkpt>
      <trkpt lat="43.96543" lon="7.12084">
        <ele>1144.9</ele>
        <time>2012-10-13T12:05:34Z</time>
      </trkpt>
      <trkpt lat="43.96549" lon="7.1208">
        <ele>1147.9</ele>
        <time>2012-10-13T12:05:40Z</time>
      </trkpt>
      <trkpt lat="43.9655" lon="7.12075">
        <ele>1159.6</ele>
        <time>2012-10-13T12:05:49Z</time>
      </trkpt>
      <trkpt lat="43.96554" lon="7.12065">
        <ele>1162.6</ele>
        <time>2012-10-13T12:06:02Z</time>
      </trkpt>
      <trkpt lat="43.96556" lon="7.12061">
        <ele>1160.6</ele>
        <time>2012-10-13T12:06:07Z</time>
      </trkpt>
      <trkpt lat="43.96559" lon="7.12055">
        <ele>1159.2</ele>
        <time>2012-10-13T12:06:16Z</time>
      </trkpt>
      <trkpt lat="43.96565" lon="7.12049">
        <ele>1160.3</ele>
        <time>2012-10-13T12:06:25Z</time>
      </trkpt>
      <trkpt lat="43.96568" lon="7.12044">
        <ele>1158.2</ele>
        <time>2012-10-13T12:06:31Z</time>
      </trkpt>
      <trkpt lat="43.9657" lon="7.12039">
        <ele>1159.1</ele>
        <time>2012-10-13T12:06:37Z</time>
      </trkpt>
      <trkpt lat="43.96573" lon="7.12032">
        <ele>1158.6</ele>
        <time>2012-10-13T12:06:43Z</time>
      </trkpt>
      <trkpt lat="43.96576" lon="7.12027">
        <ele>1157.6</ele>
        <time>2012-10-13T12:06:48Z</time>
      </trkpt>
      <trkpt lat="43.96581" lon="7.12016">
        <ele>1160.3</ele>
        <time>2012-10-13T12:06:58Z</time>
      </trkpt>
      <trkpt lat="43.96584" lon="7.12013">
        <ele>1166</ele>
        <time>2012-10-13T12:07:03Z</time>
      </trkpt>
      <trkpt lat="43.96588" lon="7.12005">
        <ele>1171.3</ele>
        <time>2012-10-13T12:07:15Z</time>
      </trkpt>
      <trkpt lat="43.9659" lon="7.11998">
        <ele>1170</ele>
        <time>2012-10-13T12:07:23Z</time>
      </trkpt>
      <trkpt lat="43.9659" lon="7.1198">
        <ele>1167.2</ele>
        <time>2012-10-13T12:07:36Z</time>
      </trkpt>
      <trkpt lat="43.96592" lon="7.11975">
        <ele>1168.5</ele>
        <time>2012-10-13T12:07:40Z</time>
      </trkpt>
      <trkpt lat="43.96591" lon="7.11967">
        <ele>1172</ele>
        <time>2012-10-13T12:07:46Z</time>
      </trkpt>
      <trkpt lat="43.96592" lon="7.11959">
        <ele>1178.8</ele>
        <time>2012-10-13T12:07:53Z</time>
      </trkpt>
      <trkpt lat="43.96589" lon="7.11954">
        <ele>1182.5</ele>
        <time>2012-10-13T12:07:57Z</time>
      </trkpt>
      <trkpt lat="43.96587" lon="7.11945">
        <ele>1182.3</ele>
        <time>2012-10-13T12:08:04Z</time>
      </trkpt>
      <trkpt lat="43.96591" lon="7.11923">
        <ele>1180.2</ele>
        <time>2012-10-13T12:08:20Z</time>
      </trkpt>
      <trkpt lat="43.96592" lon="7.1192">
        <ele>1180.9</ele>
        <time>2012-10-13T12:08:23Z</time>
      </trkpt>
      <trkpt lat="43.96592" lon="7.11909">
        <ele>1180.2</ele>
        <time>2012-10-13T12:08:33Z</time>
      </trkpt>
      <trkpt lat="43.96597" lon="7.11882">
        <ele>1186.1</ele>
        <time>2012-10-13T12:08:55Z</time>
      </trkpt>
      <trkpt lat="43.96606" lon="7.11859">
        <ele>1184.9</ele>
        <time>2012-10-13T12:09:17Z</time>
      </trkpt>
      <trkpt lat="43.96608" lon="7.11855">
        <ele>1191.1</ele>
        <time>2012-10-13T12:09:25Z</time>
      </trkpt>
      <trkpt lat="43.96612" lon="7.11851">
        <ele>1202.9</ele>
        <time>2012-10-13T12:09:46Z</time>
      </trkpt>
      <trkpt lat="43.9662" lon="7.11824">
        <ele>1193.4</ele>
        <time>2012-10-13T12:10:01Z</time>
      </trkpt>
      <trkpt lat="43.96647" lon="7.11767">
        <ele>1200.9</ele>
        <time>2012-10-13T12:10:37Z</time>
      </trkpt>
      <trkpt lat="43.9665" lon="7.11757">
        <ele>1202.7</ele>
        <time>2012-10-13T12:10:43Z</time>
      </trkpt>
      <trkpt lat="43.96661" lon="7.11729">
        <ele>1203.8</ele>
        <time>2012-10-13T12:11:03Z</time>
      </trkpt>
      <trkpt lat="43.96668" lon="7.11714">
        <ele>1200.7</ele>
        <time>2012-10-13T12:11:12Z</time>
      </trkpt>
      <trkpt lat="43.96675" lon="7.11684">
        <ele>1204.4</ele>
        <time>2012-10-13T12:11:30Z</time>
      </trkpt>
      <trkpt lat="43.96681" lon="7.1167">
        <ele>1206.4</ele>
        <time>2012-10-13T12:11:37Z</time>
      </trkpt>
      <trkpt lat="43.96685" lon="7.11652">
        <ele>1204.6</ele>
        <time>2012-10-13T12:11:44Z</time>
      </trkpt>
      <trkpt lat="43.96685" lon="7.11639">
        <ele>1210.1</ele>
        <time>2012-10-13T12:11:51Z</time>
      </trkpt>
      <trkpt lat="43.96684" lon="7.11631">
        <ele>1208.7</ele>
        <time>2012-10-13T12:11:54Z</time>
      </trkpt>
      <trkpt lat="43.96676" lon="7.11618">
        <ele>1203.1</ele>
        <time>2012-10-13T12:12:01Z</time>
      </trkpt>
      <trkpt lat="43.96675" lon="7.11604">
        <ele>1203.7</ele>
        <time>2012-10-13T12:12:09Z</time>
      </trkpt>
      <trkpt lat="43.9668" lon="7.11587">
        <ele>1202.7</ele>
        <time>2012-10-13T12:12:18Z</time>
      </trkpt>
      <trkpt lat="43.96688" lon="7.11575">
        <ele>1209.8</ele>
        <time>2012-10-13T12:12:27Z</time>
      </trkpt>
      <trkpt lat="43.96697" lon="7.11565">
        <ele>1224.5</ele>
        <time>2012-10-13T12:12:33Z</time>
      </trkpt>
      <trkpt lat="43.96702" lon="7.11553">
        <ele>1236.1</ele>
        <time>2012-10-13T12:12:41Z</time>
      </trkpt>
      <trkpt lat="43.96704" lon="7.11534">
        <ele>1246.1</ele>
        <time>2012-10-13T12:12:54Z</time>
      </trkpt>
      <trkpt lat="43.96704" lon="7.11532">
        <ele>1247.5</ele>
        <time>2012-10-13T12:12:56Z</time>
      </trkpt>
      <trkpt lat="43.96704" lon="7.11526">
        <ele>1249.4</ele>
        <time>2012-10-13T12:13:00Z</time>
      </trkpt>
      <trkpt lat="43.96689" lon="7.11485">
        <ele>1227.2</ele>
        <time>2012-10-13T12:13:22Z</time>
      </trkpt>
      <trkpt lat="43.96692" lon="7.11474">
        <ele>1226.4</ele>
        <time>2012-10-13T12:13:28Z</time>
      </trkpt>
      <trkpt lat="43.96702" lon="7.11465">
        <ele>1220.7</ele>
        <time>2012-10-13T12:13:35Z</time>
      </trkpt>
      <trkpt lat="43.96711" lon="7.11459">
        <ele>1219.8</ele>
        <time>2012-10-13T12:13:42Z</time>
      </trkpt>
      <trkpt lat="43.96717" lon="7.11451">
        <ele>1221.9</ele>
        <time>2012-10-13T12:13:47Z</time>
      </trkpt>
      <trkpt lat="43.96721" lon="7.11445">
        <ele>1232.4</ele>
        <time>2012-10-13T12:13:51Z</time>
      </trkpt>
      <trkpt lat="43.9673" lon="7.11439">
        <ele>1235.2</ele>
        <time>2012-10-13T12:13:58Z</time>
      </trkpt>
      <trkpt lat="43.96732" lon="7.11436">
        <ele>1200.7</ele>
        <time>2012-10-13T12:25:07Z</time>
      </trkpt>
      <trkpt lat="43.96734" lon="7.11434">
        <ele>1203.9</ele>
        <time>2012-10-13T12:25:14Z</time>
      </trkpt>
      <trkpt lat="43.96738" lon="7.1143">
        <ele>1208.4</ele>
        <time>2012-10-13T12:25:28Z</time>
      </trkpt>
      <trkpt lat="43.96746" lon="7.11424">
        <ele>1211.7</ele>
        <time>2012-10-13T12:25:35Z</time>
      </trkpt>
      <trkpt lat="43.96747" lon="7.11422">
        <ele>1212.2</ele>
        <time>2012-10-13T12:25:36Z</time>
      </trkpt>
      <trkpt lat="43.96749" lon="7.11419">
        <ele>1212.8</ele>
        <time>2012-10-13T12:25:38Z</time>
      </trkpt>
      <trkpt lat="43.96757" lon="7.1141">
        <ele>1213.7</ele>
        <time>2012-10-13T12:25:45Z</time>
      </trkpt>
      <trkpt lat="43.96766" lon="7.11402">
        <ele>1214.7</ele>
        <time>2012-10-13T12:25:52Z</time>
      </trkpt>
      <trkpt lat="43.96777" lon="7.11395">
        <ele>1218.4</ele>
        <time>2012-10-13T12:25:59Z</time>
      </trkpt>
      <trkpt lat="43.96817" lon="7.11365">
        <ele>1221.7</ele>
        <time>2012-10-13T12:26:25Z</time>
      </trkpt>
      <trkpt lat="43.96826" lon="7.11357">
        <ele>1220.8</ele>
        <time>2012-10-13T12:26:31Z</time>
      </trkpt>
      <trkpt lat="43.96833" lon="7.11348">
        <ele>1223</ele>
        <time>2012-10-13T12:26:37Z</time>
      </trkpt>
      <trkpt lat="43.96844" lon="7.11341">
        <ele>1222.5</ele>
        <time>2012-10-13T12:26:43Z</time>
      </trkpt>
      <trkpt lat="43.96884" lon="7.11333">
        <ele>1227.8</ele>
        <time>2012-10-13T12:27:05Z</time>
      </trkpt>
      <trkpt lat="43.96935" lon="7.11313">
        <ele>1227.7</ele>
        <time>2012-10-13T12:27:34Z</time>
      </trkpt>
      <trkpt lat="43.9695" lon="7.11304">
        <ele>1226.6</ele>
        <time>2012-10-13T12:27:43Z</time>
      </trkpt>
      <trkpt lat="43.9696" lon="7.11297">
        <ele>1225.7</ele>
        <time>2012-10-13T12:27:50Z</time>
      </trkpt>
      <trkpt lat="43.96984" lon="7.11286">
        <ele>1229.9</ele>
        <time>2012-10-13T12:28:05Z</time>
      </trkpt>
      <trkpt lat="43.96991" lon="7.1128">
        <ele>1226.1</ele>
        <time>2012-10-13T12:28:10Z</time>
      </trkpt>
      <trkpt lat="43.97005" lon="7.11272">
        <ele>1223.2</ele>
        <time>2012-10-13T12:28:18Z</time>
      </trkpt>
      <trkpt lat="43.97018" lon="7.11267">
        <ele>1231.4</ele>
        <time>2012-10-13T12:28:25Z</time>
      </trkpt>
      <trkpt lat="43.97067" lon="7.1121">
        <ele>1233.9</ele>
        <time>2012-10-13T12:28:55Z</time>
      </trkpt>
      <trkpt lat="43.97082" lon="7.112">
        <ele>1231</ele>
        <time>2012-10-13T12:29:00Z</time>
      </trkpt>
      <trkpt lat="43.9709" lon="7.11193">
        <ele>1228.2</ele>
        <time>2012-10-13T12:29:04Z</time>
      </trkpt>
      <trkpt lat="43.97085" lon="7.11184">
        <ele>1224.5</ele>
        <time>2012-10-13T12:29:08Z</time>
      </trkpt>
      <trkpt lat="43.97085" lon="7.11185">
        <ele>1222.3</ele>
        <time>2012-10-13T12:29:12Z</time>
      </trkpt>
      <trkpt lat="43.97087" lon="7.11184">
        <ele>1219.2</ele>
        <time>2012-10-13T12:29:18Z</time>
      </trkpt>
      <trkpt lat="43.97082" lon="7.11184">
        <ele>1219.3</ele>
        <time>2012-10-13T12:33:58Z</time>
      </trkpt>
      <trkpt lat="43.97083" lon="7.11181">
        <ele>1211.9</ele>
        <time>2012-10-13T12:34:11Z</time>
      </trkpt>
      <trkpt lat="43.97072" lon="7.11178">
        <ele>1212.1</ele>
        <time>2012-10-13T12:34:19Z</time>
      </trkpt>
      <trkpt lat="43.97064" lon="7.11171">
        <ele>1211.2</ele>
        <time>2012-10-13T12:34:24Z</time>
      </trkpt>
      <trkpt lat="43.97055" lon="7.11157">
        <ele>1215.4</ele>
        <time>2012-10-13T12:34:29Z</time>
      </trkpt>
      <trkpt lat="43.97048" lon="7.11143">
        <ele>1222.5</ele>
        <time>2012-10-13T12:34:34Z</time>
      </trkpt>
      <trkpt lat="43.97036" lon="7.11081">
        <ele>1235.5</ele>
        <time>2012-10-13T12:34:57Z</time>
      </trkpt>
      <trkpt lat="43.97015" lon="7.11043">
        <ele>1222.7</ele>
        <time>2012-10-13T12:35:13Z</time>
      </trkpt>
      <trkpt lat="43.97017" lon="7.11033">
        <ele>1212.1</ele>
        <time>2012-10-13T12:35:21Z</time>
      </trkpt>
      <trkpt lat="43.97011" lon="7.11032">
        <ele>1203.8</ele>
        <time>2012-10-13T12:35:41Z</time>
      </trkpt>
      <trkpt lat="43.96988" lon="7.11008">
        <ele>1209.7</ele>
        <time>2012-10-13T12:36:06Z</time>
      </trkpt>
      <trkpt lat="43.96977" lon="7.11003">
        <ele>1209.7</ele>
        <time>2012-10-13T12:36:10Z</time>
      </trkpt>
      <trkpt lat="43.96955" lon="7.10997">
        <ele>1211.8</ele>
        <time>2012-10-13T12:36:16Z</time>
      </trkpt>
      <trkpt lat="43.96952" lon="7.10995">
        <ele>1212.2</ele>
        <time>2012-10-13T12:36:17Z</time>
      </trkpt>
      <trkpt lat="43.96904" lon="7.10979">
        <ele>1211.2</ele>
        <time>2012-10-13T12:36:28Z</time>
      </trkpt>
      <trkpt lat="43.96888" lon="7.10981">
        <ele>1210</ele>
        <time>2012-10-13T12:36:32Z</time>
      </trkpt>
      <trkpt lat="43.9687" lon="7.10994">
        <ele>1207.5</ele>
        <time>2012-10-13T12:36:38Z</time>
      </trkpt>
      <trkpt lat="43.96855" lon="7.10995">
        <ele>1206.9</ele>
        <time>2012-10-13T12:36:42Z</time>
      </trkpt>
      <trkpt lat="43.96836" lon="7.10985">
        <ele>1207.3</ele>
        <time>2012-10-13T12:36:47Z</time>
      </trkpt>
      <trkpt lat="43.96832" lon="7.10986">
        <ele>1207.5</ele>
        <time>2012-10-13T12:36:49Z</time>
      </trkpt>
      <trkpt lat="43.96821" lon="7.1099">
        <ele>1208.4</ele>
        <time>2012-10-13T12:36:55Z</time>
      </trkpt>
      <trkpt lat="43.96813" lon="7.10991">
        <ele>1209</ele>
        <time>2012-10-13T12:37:00Z</time>
      </trkpt>
      <trkpt lat="43.96802" lon="7.10994">
        <ele>1208.7</ele>
        <time>2012-10-13T12:37:12Z</time>
      </trkpt>
      <trkpt lat="43.96792" lon="7.10996">
        <ele>1210.1</ele>
        <time>2012-10-13T12:37:18Z</time>
      </trkpt>
      <trkpt lat="43.96789" lon="7.10995">
        <ele>1210.6</ele>
        <time>2012-10-13T12:37:22Z</time>
      </trkpt>
      <trkpt lat="43.96783" lon="7.10994">
        <ele>1209.2</ele>
        <time>2012-10-13T12:37:37Z</time>
      </trkpt>
      <trkpt lat="43.9678" lon="7.10992">
        <ele>1208.5</ele>
        <time>2012-10-13T12:37:43Z</time>
      </trkpt>
      <trkpt lat="43.96774" lon="7.1099">
        <ele>1209.9</ele>
        <time>2012-10-13T12:37:49Z</time>
      </trkpt>
      <trkpt lat="43.96772" lon="7.10991">
        <ele>1209.6</ele>
        <time>2012-10-13T12:37:52Z</time>
      </trkpt>
      <trkpt lat="43.96765" lon="7.10985">
        <ele>1207.2</ele>
        <time>2012-10-13T12:37:58Z</time>
      </trkpt>
      <trkpt lat="43.9675" lon="7.10976">
        <ele>1206.3</ele>
        <time>2012-10-13T12:38:04Z</time>
      </trkpt>
      <trkpt lat="43.96734" lon="7.10973">
        <ele>1205.4</ele>
        <time>2012-10-13T12:38:09Z</time>
      </trkpt>
      <trkpt lat="43.96692" lon="7.10953">
        <ele>1204.9</ele>
        <time>2012-10-13T12:38:27Z</time>
      </trkpt>
      <trkpt lat="43.96679" lon="7.10955">
        <ele>1205</ele>
        <time>2012-10-13T12:38:32Z</time>
      </trkpt>
      <trkpt lat="43.96653" lon="7.10982">
        <ele>1203.6</ele>
        <time>2012-10-13T12:38:42Z</time>
      </trkpt>
      <trkpt lat="43.96636" lon="7.10982">
        <ele>1202.4</ele>
        <time>2012-10-13T12:38:47Z</time>
      </trkpt>
      <trkpt lat="43.96611" lon="7.10976">
        <ele>1201.2</ele>
        <time>2012-10-13T12:38:53Z</time>
      </trkpt>
      <trkpt lat="43.96608" lon="7.10975">
        <ele>1201.1</ele>
        <time>2012-10-13T12:38:54Z</time>
      </trkpt>
      <trkpt lat="43.96595" lon="7.10966">
        <ele>1200.8</ele>
        <time>2012-10-13T12:39:00Z</time>
      </trkpt>
      <trkpt lat="43.96581" lon="7.10959">
        <ele>1201.4</ele>
        <time>2012-10-13T12:39:06Z</time>
      </trkpt>
      <trkpt lat="43.96563" lon="7.10954">
        <ele>1201.8</ele>
        <time>2012-10-13T12:39:13Z</time>
      </trkpt>
      <trkpt lat="43.96545" lon="7.1095">
        <ele>1201.5</ele>
        <time>2012-10-13T12:39:19Z</time>
      </trkpt>
      <trkpt lat="43.96532" lon="7.10955">
        <ele>1201.6</ele>
        <time>2012-10-13T12:39:24Z</time>
      </trkpt>
      <trkpt lat="43.96525" lon="7.10959">
        <ele>1201.9</ele>
        <time>2012-10-13T12:39:29Z</time>
      </trkpt>
      <trkpt lat="43.96518" lon="7.10969">
        <ele>1201.4</ele>
        <time>2012-10-13T12:39:35Z</time>
      </trkpt>
      <trkpt lat="43.96511" lon="7.10972">
        <ele>1201.4</ele>
        <time>2012-10-13T12:39:38Z</time>
      </trkpt>
      <trkpt lat="43.96501" lon="7.10971">
        <ele>1200.6</ele>
        <time>2012-10-13T12:39:44Z</time>
      </trkpt>
      <trkpt lat="43.96497" lon="7.10971">
        <ele>1200.4</ele>
        <time>2012-10-13T12:39:46Z</time>
      </trkpt>
      <trkpt lat="43.96488" lon="7.10969">
        <ele>1199.6</ele>
        <time>2012-10-13T12:39:53Z</time>
      </trkpt>
      <trkpt lat="43.96487" lon="7.1097">
        <ele>1199.3</ele>
        <time>2012-10-13T12:39:57Z</time>
      </trkpt>
      <trkpt lat="43.96485" lon="7.1097">
        <ele>1198.8</ele>
        <time>2012-10-13T12:40:00Z</time>
      </trkpt>
      <trkpt lat="43.96481" lon="7.10963">
        <ele>1199.6</ele>
        <time>2012-10-13T12:40:06Z</time>
      </trkpt>
      <trkpt lat="43.96464" lon="7.10947">
        <ele>1198.7</ele>
        <time>2012-10-13T12:40:16Z</time>
      </trkpt>
      <trkpt lat="43.96462" lon="7.10942">
        <ele>1198.9</ele>
        <time>2012-10-13T12:40:18Z</time>
      </trkpt>
      <trkpt lat="43.96444" lon="7.10926">
        <ele>1200.3</ele>
        <time>2012-10-13T12:40:24Z</time>
      </trkpt>
      <trkpt lat="43.96414" lon="7.10907">
        <ele>1200.4</ele>
        <time>2012-10-13T12:40:35Z</time>
      </trkpt>
      <trkpt lat="43.96405" lon="7.10903">
        <ele>1199.7</ele>
        <time>2012-10-13T12:40:39Z</time>
      </trkpt>
      <trkpt lat="43.96395" lon="7.10897">
        <ele>1197.6</ele>
        <time>2012-10-13T12:40:48Z</time>
      </trkpt>
      <trkpt lat="43.96348" lon="7.10852">
        <ele>1198.4</ele>
        <time>2012-10-13T12:41:17Z</time>
      </trkpt>
      <trkpt lat="43.96335" lon="7.10837">
        <ele>1198.8</ele>
        <time>2012-10-13T12:41:23Z</time>
      </trkpt>
      <trkpt lat="43.96325" lon="7.10828">
        <ele>1197.6</ele>
        <time>2012-10-13T12:41:28Z</time>
      </trkpt>
      <trkpt lat="43.9631" lon="7.1081">
        <ele>1197.1</ele>
        <time>2012-10-13T12:41:35Z</time>
      </trkpt>
      <trkpt lat="43.96296" lon="7.10802">
        <ele>1197.5</ele>
        <time>2012-10-13T12:41:41Z</time>
      </trkpt>
      <trkpt lat="43.96281" lon="7.10796">
        <ele>1196.7</ele>
        <time>2012-10-13T12:41:46Z</time>
      </trkpt>
      <trkpt lat="43.96261" lon="7.10776">
        <ele>1195.6</ele>
        <time>2012-10-13T12:41:56Z</time>
      </trkpt>
      <trkpt lat="43.96245" lon="7.1075">
        <ele>1195.1</ele>
        <time>2012-10-13T12:42:04Z</time>
      </trkpt>
      <trkpt lat="43.962" lon="7.10657">
        <ele>1193.6</ele>
        <time>2012-10-13T12:42:30Z</time>
      </trkpt>
      <trkpt lat="43.96185" lon="7.10637">
        <ele>1192.8</ele>
        <time>2012-10-13T12:42:36Z</time>
      </trkpt>
      <trkpt lat="43.96168" lon="7.10621">
        <ele>1193.8</ele>
        <time>2012-10-13T12:42:42Z</time>
      </trkpt>
      <trkpt lat="43.96113" lon="7.10591">
        <ele>1191.2</ele>
        <time>2012-10-13T12:42:59Z</time>
      </trkpt>
      <trkpt lat="43.96094" lon="7.10577">
        <ele>1190.2</ele>
        <time>2012-10-13T12:43:05Z</time>
      </trkpt>
      <trkpt lat="43.96078" lon="7.10567">
        <ele>1189.1</ele>
        <time>2012-10-13T12:43:10Z</time>
      </trkpt>
      <trkpt lat="43.96057" lon="7.10562">
        <ele>1188.1</ele>
        <time>2012-10-13T12:43:16Z</time>
      </trkpt>
      <trkpt lat="43.96036" lon="7.10551">
        <ele>1187.1</ele>
        <time>2012-10-13T12:43:22Z</time>
      </trkpt>
      <trkpt lat="43.95973" lon="7.10499">
        <ele>1181.5</ele>
        <time>2012-10-13T12:43:41Z</time>
      </trkpt>
      <trkpt lat="43.9597" lon="7.10486">
        <ele>1179.7</ele>
        <time>2012-10-13T12:43:45Z</time>
      </trkpt>
      <trkpt lat="43.9596" lon="7.10476">
        <ele>1179.1</ele>
        <time>2012-10-13T12:43:49Z</time>
      </trkpt>
      <trkpt lat="43.95956" lon="7.1048">
        <ele>1176.5</ele>
        <time>2012-10-13T12:43:52Z</time>
      </trkpt>
      <trkpt lat="43.95956" lon="7.10596">
        <ele>1158.4</ele>
        <time>2012-10-13T12:44:11Z</time>
      </trkpt>
      <trkpt lat="43.95952" lon="7.10637">
        <ele>1152.9</ele>
        <time>2012-10-13T12:44:17Z</time>
      </trkpt>
      <trkpt lat="43.95939" lon="7.10674">
        <ele>1150</ele>
        <time>2012-10-13T12:44:22Z</time>
      </trkpt>
      <trkpt lat="43.95926" lon="7.10696">
        <ele>1148.2</ele>
        <time>2012-10-13T12:44:25Z</time>
      </trkpt>
      <trkpt lat="43.95908" lon="7.10723">
        <ele>1143.2</ele>
        <time>2012-10-13T12:44:29Z</time>
      </trkpt>
      <trkpt lat="43.95911" lon="7.1074">
        <ele>1140.1</ele>
        <time>2012-10-13T12:44:33Z</time>
      </trkpt>
      <trkpt lat="43.95924" lon="7.10757">
        <ele>1136.8</ele>
        <time>2012-10-13T12:44:37Z</time>
      </trkpt>
      <trkpt lat="43.95927" lon="7.10761">
        <ele>1136.2</ele>
        <time>2012-10-13T12:44:38Z</time>
      </trkpt>
      <trkpt lat="43.9594" lon="7.10781">
        <ele>1130.9</ele>
        <time>2012-10-13T12:44:43Z</time>
      </trkpt>
      <trkpt lat="43.95934" lon="7.1078">
        <ele>1129.7</ele>
        <time>2012-10-13T12:44:47Z</time>
      </trkpt>
      <trkpt lat="43.95929" lon="7.10779">
        <ele>1129.5</ele>
        <time>2012-10-13T12:44:48Z</time>
      </trkpt>
      <trkpt lat="43.95902" lon="7.10781">
        <ele>1130.4</ele>
        <time>2012-10-13T12:44:54Z</time>
      </trkpt>
      <trkpt lat="43.95871" lon="7.10787">
        <ele>1126.2</ele>
        <time>2012-10-13T12:45:00Z</time>
      </trkpt>
      <trkpt lat="43.95856" lon="7.10787">
        <ele>1124.8</ele>
        <time>2012-10-13T12:45:03Z</time>
      </trkpt>
      <trkpt lat="43.95832" lon="7.10786">
        <ele>1123.6</ele>
        <time>2012-10-13T12:45:08Z</time>
      </trkpt>
      <trkpt lat="43.9579" lon="7.10773">
        <ele>1112.6</ele>
        <time>2012-10-13T12:45:18Z</time>
      </trkpt>
      <trkpt lat="43.9578" lon="7.10761">
        <ele>1100.3</ele>
        <time>2012-10-13T12:45:27Z</time>
      </trkpt>
      <trkpt lat="43.95784" lon="7.10764">
        <ele>1103.6</ele>
        <time>2012-10-13T12:47:15Z</time>
      </trkpt>
      <trkpt lat="43.95789" lon="7.10751">
        <ele>1098.9</ele>
        <time>2012-10-13T12:47:21Z</time>
      </trkpt>
      <trkpt lat="43.95784" lon="7.1075">
        <ele>1095.8</ele>
        <time>2012-10-13T12:47:26Z</time>
      </trkpt>
      <trkpt lat="43.95778" lon="7.10753">
        <ele>1092.1</ele>
        <time>2012-10-13T12:47:43Z</time>
      </trkpt>
      <trkpt lat="43.95776" lon="7.10755">
        <ele>1091.2</ele>
        <time>2012-10-13T12:47:44Z</time>
      </trkpt>
      <trkpt lat="43.95759" lon="7.10766">
        <ele>1084.9</ele>
        <time>2012-10-13T12:47:49Z</time>
      </trkpt>
      <trkpt lat="43.95752" lon="7.10772">
        <ele>1082.7</ele>
        <time>2012-10-13T12:47:51Z</time>
      </trkpt>
      <trkpt lat="43.95734" lon="7.10784">
        <ele>1079.3</ele>
        <time>2012-10-13T12:47:55Z</time>
      </trkpt>
      <trkpt lat="43.95706" lon="7.10794">
        <ele>1073</ele>
        <time>2012-10-13T12:48:00Z</time>
      </trkpt>
      <trkpt lat="43.95701" lon="7.10795">
        <ele>1072.5</ele>
        <time>2012-10-13T12:48:01Z</time>
      </trkpt>
      <trkpt lat="43.95677" lon="7.10801">
        <ele>1067.8</ele>
        <time>2012-10-13T12:48:07Z</time>
      </trkpt>
      <trkpt lat="43.95674" lon="7.10803">
        <ele>1067.9</ele>
        <time>2012-10-13T12:48:11Z</time>
      </trkpt>
      <trkpt lat="43.95671" lon="7.10806">
        <ele>1065.4</ele>
        <time>2012-10-13T12:48:13Z</time>
      </trkpt>
      <trkpt lat="43.95661" lon="7.10809">
        <ele>1062.7</ele>
        <time>2012-10-13T12:48:17Z</time>
      </trkpt>
      <trkpt lat="43.95652" lon="7.10813">
        <ele>1061.3</ele>
        <time>2012-10-13T12:48:21Z</time>
      </trkpt>
      <trkpt lat="43.95644" lon="7.10815">
        <ele>1058.7</ele>
        <time>2012-10-13T12:48:25Z</time>
      </trkpt>
      <trkpt lat="43.95648" lon="7.10824">
        <ele>1057.4</ele>
        <time>2012-10-13T12:48:28Z</time>
      </trkpt>
      <trkpt lat="43.95647" lon="7.10834">
        <ele>1055.8</ele>
        <time>2012-10-13T12:48:31Z</time>
      </trkpt>
      <trkpt lat="43.95637" lon="7.10832">
        <ele>1054.5</ele>
        <time>2012-10-13T12:48:34Z</time>
      </trkpt>
      <trkpt lat="43.95625" lon="7.10825">
        <ele>1052.9</ele>
        <time>2012-10-13T12:48:38Z</time>
      </trkpt>
      <trkpt lat="43.95626" lon="7.10833">
        <ele>1052.5</ele>
        <time>2012-10-13T12:48:41Z</time>
      </trkpt>
      <trkpt lat="43.95625" lon="7.10842">
        <ele>1050.4</ele>
        <time>2012-10-13T12:48:44Z</time>
      </trkpt>
      <trkpt lat="43.95618" lon="7.10837">
        <ele>1050</ele>
        <time>2012-10-13T12:48:47Z</time>
      </trkpt>
      <trkpt lat="43.95614" lon="7.10828">
        <ele>1048.8</ele>
        <time>2012-10-13T12:48:50Z</time>
      </trkpt>
      <trkpt lat="43.95606" lon="7.10845">
        <ele>1044.3</ele>
        <time>2012-10-13T12:48:57Z</time>
      </trkpt>
      <trkpt lat="43.95601" lon="7.10842">
        <ele>1044.5</ele>
        <time>2012-10-13T12:49:00Z</time>
      </trkpt>
      <trkpt lat="43.95601" lon="7.10845">
        <ele>1045</ele>
        <time>2012-10-13T12:49:01Z</time>
      </trkpt>
      <trkpt lat="43.95601" lon="7.10859">
        <ele>1043.1</ele>
        <time>2012-10-13T12:49:07Z</time>
      </trkpt>
      <trkpt lat="43.95596" lon="7.10858">
        <ele>1042.7</ele>
        <time>2012-10-13T12:49:10Z</time>
      </trkpt>
      <trkpt lat="43.95588" lon="7.10846">
        <ele>1041.8</ele>
        <time>2012-10-13T12:49:15Z</time>
      </trkpt>
      <trkpt lat="43.95575" lon="7.10845">
        <ele>1033.5</ele>
        <time>2012-10-13T12:49:20Z</time>
      </trkpt>
      <trkpt lat="43.95518" lon="7.10887">
        <ele>1017.7</ele>
        <time>2012-10-13T12:49:33Z</time>
      </trkpt>
      <trkpt lat="43.95511" lon="7.1089">
        <ele>1017.1</ele>
        <time>2012-10-13T12:49:34Z</time>
      </trkpt>
      <trkpt lat="43.95487" lon="7.10903">
        <ele>1016.8</ele>
        <time>2012-10-13T12:49:39Z</time>
      </trkpt>
      <trkpt lat="43.95487" lon="7.10909">
        <ele>1017.1</ele>
        <time>2012-10-13T12:49:43Z</time>
      </trkpt>
      <trkpt lat="43.95481" lon="7.10911">
        <ele>1017.8</ele>
        <time>2012-10-13T12:50:05Z</time>
      </trkpt>
      <trkpt lat="43.95468" lon="7.10924">
        <ele>1015.5</ele>
        <time>2012-10-13T12:50:10Z</time>
      </trkpt>
      <trkpt lat="43.95405" lon="7.10969">
        <ele>1005.2</ele>
        <time>2012-10-13T12:50:25Z</time>
      </trkpt>
      <trkpt lat="43.95371" lon="7.10998">
        <ele>998.4</ele>
        <time>2012-10-13T12:50:32Z</time>
      </trkpt>
      <trkpt lat="43.95361" lon="7.10998">
        <ele>996.6</ele>
        <time>2012-10-13T12:50:35Z</time>
      </trkpt>
      <trkpt lat="43.95353" lon="7.10995">
        <ele>995.1</ele>
        <time>2012-10-13T12:50:38Z</time>
      </trkpt>
      <trkpt lat="43.9533" lon="7.11014">
        <ele>989</ele>
        <time>2012-10-13T12:50:45Z</time>
      </trkpt>
      <trkpt lat="43.9532" lon="7.11027">
        <ele>984.1</ele>
        <time>2012-10-13T12:50:48Z</time>
      </trkpt>
      <trkpt lat="43.95298" lon="7.11072">
        <ele>973.4</ele>
        <time>2012-10-13T12:50:57Z</time>
      </trkpt>
      <trkpt lat="43.95277" lon="7.11091">
        <ele>966.9</ele>
        <time>2012-10-13T12:51:03Z</time>
      </trkpt>
      <trkpt lat="43.95266" lon="7.11097">
        <ele>965.9</ele>
        <time>2012-10-13T12:51:07Z</time>
      </trkpt>
      <trkpt lat="43.95256" lon="7.11105">
        <ele>963.3</ele>
        <time>2012-10-13T12:51:11Z</time>
      </trkpt>
      <trkpt lat="43.9521" lon="7.11128">
        <ele>956.2</ele>
        <time>2012-10-13T12:51:23Z</time>
      </trkpt>
      <trkpt lat="43.95189" lon="7.11132">
        <ele>949.9</ele>
        <time>2012-10-13T12:51:30Z</time>
      </trkpt>
      <trkpt lat="43.95182" lon="7.11138">
        <ele>947.1</ele>
        <time>2012-10-13T12:51:34Z</time>
      </trkpt>
      <trkpt lat="43.95176" lon="7.11141">
        <ele>943.5</ele>
        <time>2012-10-13T12:51:37Z</time>
      </trkpt>
      <trkpt lat="43.95169" lon="7.11148">
        <ele>940.2</ele>
        <time>2012-10-13T12:51:41Z</time>
      </trkpt>
      <trkpt lat="43.95152" lon="7.11161">
        <ele>939.3</ele>
        <time>2012-10-13T12:51:47Z</time>
      </trkpt>
      <trkpt lat="43.95149" lon="7.11161">
        <ele>937.4</ele>
        <time>2012-10-13T12:51:48Z</time>
      </trkpt>
      <trkpt lat="43.95146" lon="7.11167">
        <ele>934.4</ele>
        <time>2012-10-13T12:51:52Z</time>
      </trkpt>
      <trkpt lat="43.9514" lon="7.1117">
        <ele>931.9</ele>
        <time>2012-10-13T12:51:55Z</time>
      </trkpt>
      <trkpt lat="43.95138" lon="7.11179">
        <ele>928.4</ele>
        <time>2012-10-13T12:51:59Z</time>
      </trkpt>
      <trkpt lat="43.95129" lon="7.11185">
        <ele>925.4</ele>
        <time>2012-10-13T12:52:03Z</time>
      </trkpt>
      <trkpt lat="43.95118" lon="7.11191">
        <ele>922</ele>
        <time>2012-10-13T12:52:06Z</time>
      </trkpt>
      <trkpt lat="43.95106" lon="7.11206">
        <ele>917.6</ele>
        <time>2012-10-13T12:52:11Z</time>
      </trkpt>
      <trkpt lat="43.95106" lon="7.11209">
        <ele>913.8</ele>
        <time>2012-10-13T12:52:16Z</time>
      </trkpt>
      <trkpt lat="43.95073" lon="7.11247">
        <ele>912.6</ele>
        <time>2012-10-13T12:54:41Z</time>
      </trkpt>
      <trkpt lat="43.9504" lon="7.11276">
        <ele>902.6</ele>
        <time>2012-10-13T12:54:51Z</time>
      </trkpt>
      <trkpt lat="43.95025" lon="7.11294">
        <ele>896</ele>
        <time>2012-10-13T12:54:56Z</time>
      </trkpt>
      <trkpt lat="43.94999" lon="7.11318">
        <ele>889.8</ele>
        <time>2012-10-13T12:55:02Z</time>
      </trkpt>
      <trkpt lat="43.94961" lon="7.11372">
        <ele>874.4</ele>
        <time>2012-10-13T12:55:13Z</time>
      </trkpt>
      <trkpt lat="43.9496" lon="7.11388">
        <ele>870.2</ele>
        <time>2012-10-13T12:55:17Z</time>
      </trkpt>
      <trkpt lat="43.94963" lon="7.11387">
        <ele>859</ele>
        <time>2012-10-13T12:55:19Z</time>
      </trkpt>
      <trkpt lat="43.94973" lon="7.11378">
        <ele>852</ele>
        <time>2012-10-13T12:55:24Z</time>
      </trkpt>
      <trkpt lat="43.94975" lon="7.11396">
        <ele>870.3</ele>
        <time>2012-10-13T12:56:12Z</time>
      </trkpt>
      <trkpt lat="43.94974" lon="7.11411">
        <ele>860.1</ele>
        <time>2012-10-13T12:56:18Z</time>
      </trkpt>
      <trkpt lat="43.94975" lon="7.11416">
        <ele>855.7</ele>
        <time>2012-10-13T12:56:23Z</time>
      </trkpt>
      <trkpt lat="43.9497" lon="7.11449">
        <ele>842.3</ele>
        <time>2012-10-13T12:56:33Z</time>
      </trkpt>
      <trkpt lat="43.94963" lon="7.11469">
        <ele>836.6</ele>
        <time>2012-10-13T12:56:37Z</time>
      </trkpt>
      <trkpt lat="43.94934" lon="7.11512">
        <ele>820.7</ele>
        <time>2012-10-13T12:56:46Z</time>
      </trkpt>
      <trkpt lat="43.94909" lon="7.11531">
        <ele>810.1</ele>
        <time>2012-10-13T12:56:53Z</time>
      </trkpt>
      <trkpt lat="43.94912" lon="7.11545">
        <ele>807.5</ele>
        <time>2012-10-13T12:56:56Z</time>
      </trkpt>
      <trkpt lat="43.94907" lon="7.11556">
        <ele>803.6</ele>
        <time>2012-10-13T12:56:59Z</time>
      </trkpt>
      <trkpt lat="43.94895" lon="7.11556">
        <ele>801.6</ele>
        <time>2012-10-13T12:57:02Z</time>
      </trkpt>
      <trkpt lat="43.94884" lon="7.11562">
        <ele>799</ele>
        <time>2012-10-13T12:57:05Z</time>
      </trkpt>
      <trkpt lat="43.9486" lon="7.11599">
        <ele>788.3</ele>
        <time>2012-10-13T12:57:16Z</time>
      </trkpt>
      <trkpt lat="43.94865" lon="7.11603">
        <ele>785.1</ele>
        <time>2012-10-13T12:57:20Z</time>
      </trkpt>
      <trkpt lat="43.94866" lon="7.1161">
        <ele>784.3</ele>
        <time>2012-10-13T12:57:23Z</time>
      </trkpt>
      <trkpt lat="43.94868" lon="7.11613">
        <ele>782.5</ele>
        <time>2012-10-13T12:57:26Z</time>
      </trkpt>
      <trkpt lat="43.94862" lon="7.11633">
        <ele>776.3</ele>
        <time>2012-10-13T12:57:32Z</time>
      </trkpt>
      <trkpt lat="43.9486" lon="7.11645">
        <ele>777.1</ele>
        <time>2012-10-13T12:57:38Z</time>
      </trkpt>
      <trkpt lat="43.94852" lon="7.11656">
        <ele>779.8</ele>
        <time>2012-10-13T12:57:48Z</time>
      </trkpt>
      <trkpt lat="43.94848" lon="7.11664">
        <ele>778.1</ele>
        <time>2012-10-13T12:57:50Z</time>
      </trkpt>
      <trkpt lat="43.94842" lon="7.11669">
        <ele>774.9</ele>
        <time>2012-10-13T12:57:52Z</time>
      </trkpt>
      <trkpt lat="43.94829" lon="7.11686">
        <ele>769.5</ele>
        <time>2012-10-13T12:57:57Z</time>
      </trkpt>
      <trkpt lat="43.94828" lon="7.11691">
        <ele>766.5</ele>
        <time>2012-10-13T12:58:00Z</time>
      </trkpt>
      <trkpt lat="43.94829" lon="7.11695">
        <ele>762.7</ele>
        <time>2012-10-13T12:58:04Z</time>
      </trkpt>
      <trkpt lat="43.94827" lon="7.11697">
        <ele>761.3</ele>
        <time>2012-10-13T12:58:05Z</time>
      </trkpt>
      <trkpt lat="43.94815" lon="7.11703">
        <ele>756.5</ele>
        <time>2012-10-13T12:58:10Z</time>
      </trkpt>
      <trkpt lat="43.94814" lon="7.11702">
        <ele>758.6</ele>
        <time>2012-10-13T12:58:17Z</time>
      </trkpt>
      <trkpt lat="43.94805" lon="7.11703">
        <ele>757.7</ele>
        <time>2012-10-13T12:58:22Z</time>
      </trkpt>
      <trkpt lat="43.94789" lon="7.11707">
        <ele>752.9</ele>
        <time>2012-10-13T12:58:28Z</time>
      </trkpt>
      <trkpt lat="43.94778" lon="7.11713">
        <ele>750.4</ele>
        <time>2012-10-13T12:58:32Z</time>
      </trkpt>
      <trkpt lat="43.94755" lon="7.11719">
        <ele>742.4</ele>
        <time>2012-10-13T12:58:40Z</time>
      </trkpt>
      <trkpt lat="43.94739" lon="7.11722">
        <ele>738.5</ele>
        <time>2012-10-13T12:58:45Z</time>
      </trkpt>
      <trkpt lat="43.94717" lon="7.1172">
        <ele>736</ele>
        <time>2012-10-13T12:58:50Z</time>
      </trkpt>
      <trkpt lat="43.94702" lon="7.1173">
        <ele>729.5</ele>
        <time>2012-10-13T12:58:54Z</time>
      </trkpt>
      <trkpt lat="43.947" lon="7.11732">
        <ele>728.4</ele>
        <time>2012-10-13T12:58:55Z</time>
      </trkpt>
      <trkpt lat="43.94689" lon="7.11739">
        <ele>721.9</ele>
        <time>2012-10-13T12:59:00Z</time>
      </trkpt>
      <trkpt lat="43.9468" lon="7.11739">
        <ele>716.6</ele>
        <time>2012-10-13T12:59:04Z</time>
      </trkpt>
      <trkpt lat="43.94657" lon="7.11741">
        <ele>710.6</ele>
        <time>2012-10-13T12:59:10Z</time>
      </trkpt>
      <trkpt lat="43.94651" lon="7.11746">
        <ele>708.7</ele>
        <time>2012-10-13T12:59:14Z</time>
      </trkpt>
      <trkpt lat="43.94653" lon="7.11745">
        <ele>711.9</ele>
        <time>2012-10-13T12:59:58Z</time>
      </trkpt>
      <trkpt lat="43.94651" lon="7.11746">
        <ele>718.5</ele>
        <time>2012-10-13T13:00:54Z</time>
      </trkpt>
      <trkpt lat="43.94647" lon="7.11751">
        <ele>713.7</ele>
        <time>2012-10-13T13:01:09Z</time>
      </trkpt>
      <trkpt lat="43.94646" lon="7.11753">
        <ele>713.2</ele>
        <time>2012-10-13T13:01:10Z</time>
      </trkpt>
      <trkpt lat="43.94635" lon="7.11756">
        <ele>711.4</ele>
        <time>2012-10-13T13:01:14Z</time>
      </trkpt>
      <trkpt lat="43.9462" lon="7.11775">
        <ele>708.5</ele>
        <time>2012-10-13T13:01:18Z</time>
      </trkpt>
      <trkpt lat="43.94614" lon="7.11793">
        <ele>703.8</ele>
        <time>2012-10-13T13:01:21Z</time>
      </trkpt>
      <trkpt lat="43.94611" lon="7.11822">
        <ele>693.6</ele>
        <time>2012-10-13T13:01:28Z</time>
      </trkpt>
      <trkpt lat="43.94611" lon="7.11826">
        <ele>692.9</ele>
        <time>2012-10-13T13:01:29Z</time>
      </trkpt>
      <trkpt lat="43.94615" lon="7.11826">
        <ele>689.1</ele>
        <time>2012-10-13T13:01:33Z</time>
      </trkpt>
      <trkpt lat="43.94615" lon="7.11825">
        <ele>687.1</ele>
        <time>2012-10-13T13:01:38Z</time>
      </trkpt>
      <trkpt lat="43.94613" lon="7.11828">
        <ele>687.1</ele>
        <time>2012-10-13T13:01:43Z</time>
      </trkpt>
      <trkpt lat="43.9461" lon="7.1183">
        <ele>685.9</ele>
        <time>2012-10-13T13:01:49Z</time>
      </trkpt>
      <trkpt lat="43.94607" lon="7.11834">
        <ele>687.3</ele>
        <time>2012-10-13T13:02:46Z</time>
      </trkpt>
      <trkpt lat="43.94602" lon="7.11851">
        <ele>682.4</ele>
        <time>2012-10-13T13:02:53Z</time>
      </trkpt>
      <trkpt lat="43.94578" lon="7.11868">
        <ele>684.2</ele>
        <time>2012-10-13T13:03:04Z</time>
      </trkpt>
      <trkpt lat="43.9456" lon="7.11878">
        <ele>685.9</ele>
        <time>2012-10-13T13:03:11Z</time>
      </trkpt>
      <trkpt lat="43.94533" lon="7.11889">
        <ele>690.4</ele>
        <time>2012-10-13T13:03:19Z</time>
      </trkpt>
      <trkpt lat="43.9452" lon="7.11892">
        <ele>692.1</ele>
        <time>2012-10-13T13:03:22Z</time>
      </trkpt>
      <trkpt lat="43.94509" lon="7.11886">
        <ele>695.1</ele>
        <time>2012-10-13T13:03:26Z</time>
      </trkpt>
      <trkpt lat="43.94498" lon="7.11853">
        <ele>692.6</ele>
        <time>2012-10-13T13:03:33Z</time>
      </trkpt>
      <trkpt lat="43.94497" lon="7.11855">
        <ele>692.4</ele>
        <time>2012-10-13T13:03:37Z</time>
      </trkpt>
      <trkpt lat="43.94497" lon="7.11859">
        <ele>692.2</ele>
        <time>2012-10-13T13:03:38Z</time>
      </trkpt>
      <trkpt lat="43.94495" lon="7.11884">
        <ele>689.6</ele>
        <time>2012-10-13T13:03:47Z</time>
      </trkpt>
      <trkpt lat="43.94492" lon="7.11864">
        <ele>686.2</ele>
        <time>2012-10-13T13:03:51Z</time>
      </trkpt>
      <trkpt lat="43.94486" lon="7.11849">
        <ele>685</ele>
        <time>2012-10-13T13:03:53Z</time>
      </trkpt>
      <trkpt lat="43.9448" lon="7.11834">
        <ele>684.5</ele>
        <time>2012-10-13T13:03:55Z</time>
      </trkpt>
      <trkpt lat="43.94469" lon="7.11797">
        <ele>678.9</ele>
        <time>2012-10-13T13:04:01Z</time>
      </trkpt>
      <trkpt lat="43.94464" lon="7.11785">
        <ele>677.4</ele>
        <time>2012-10-13T13:04:03Z</time>
      </trkpt>
      <trkpt lat="43.94456" lon="7.1175">
        <ele>669.3</ele>
        <time>2012-10-13T13:04:08Z</time>
      </trkpt>
      <trkpt lat="43.9446" lon="7.11735">
        <ele>668.4</ele>
        <time>2012-10-13T13:04:11Z</time>
      </trkpt>
      <trkpt lat="43.94453" lon="7.11682">
        <ele>669.4</ele>
        <time>2012-10-13T13:04:22Z</time>
      </trkpt>
      <trkpt lat="43.94446" lon="7.11682">
        <ele>672</ele>
        <time>2012-10-13T13:04:28Z</time>
      </trkpt>
      <trkpt lat="43.94441" lon="7.11679">
        <ele>672.3</ele>
        <time>2012-10-13T13:04:30Z</time>
      </trkpt>
      <trkpt lat="43.94423" lon="7.11661">
        <ele>671.3</ele>
        <time>2012-10-13T13:04:36Z</time>
      </trkpt>
      <trkpt lat="43.94409" lon="7.11621">
        <ele>666.8</ele>
        <time>2012-10-13T13:04:43Z</time>
      </trkpt>
      <trkpt lat="43.94406" lon="7.11617">
        <ele>666</ele>
        <time>2012-10-13T13:04:44Z</time>
      </trkpt>
      <trkpt lat="43.94384" lon="7.11539">
        <ele>661.1</ele>
        <time>2012-10-13T13:04:56Z</time>
      </trkpt>
      <trkpt lat="43.94377" lon="7.11503">
        <ele>655.9</ele>
        <time>2012-10-13T13:05:01Z</time>
      </trkpt>
      <trkpt lat="43.94383" lon="7.11489">
        <ele>652.6</ele>
        <time>2012-10-13T13:05:04Z</time>
      </trkpt>
      <trkpt lat="43.94386" lon="7.11469">
        <ele>651.7</ele>
        <time>2012-10-13T13:05:08Z</time>
      </trkpt>
      <trkpt lat="43.94372" lon="7.11455">
        <ele>649.8</ele>
        <time>2012-10-13T13:05:11Z</time>
      </trkpt>
      <trkpt lat="43.9436" lon="7.11445">
        <ele>648.9</ele>
        <time>2012-10-13T13:05:14Z</time>
      </trkpt>
      <trkpt lat="43.94352" lon="7.11412">
        <ele>649.6</ele>
        <time>2012-10-13T13:05:20Z</time>
      </trkpt>
      <trkpt lat="43.9435" lon="7.11385">
        <ele>648</ele>
        <time>2012-10-13T13:05:24Z</time>
      </trkpt>
      <trkpt lat="43.94332" lon="7.11333">
        <ele>638.4</ele>
        <time>2012-10-13T13:05:32Z</time>
      </trkpt>
      <trkpt lat="43.9433" lon="7.11332">
        <ele>638.1</ele>
        <time>2012-10-13T13:05:34Z</time>
      </trkpt>
      <trkpt lat="43.94337" lon="7.11353">
        <ele>635.5</ele>
        <time>2012-10-13T13:05:42Z</time>
      </trkpt>
      <trkpt lat="43.94336" lon="7.11357">
        <ele>634.9</ele>
        <time>2012-10-13T13:05:47Z</time>
      </trkpt>
      <trkpt lat="43.94325" lon="7.11331">
        <ele>631.6</ele>
        <time>2012-10-13T13:05:55Z</time>
      </trkpt>
      <trkpt lat="43.94323" lon="7.11329">
        <ele>631.2</ele>
        <time>2012-10-13T13:05:58Z</time>
      </trkpt>
      <trkpt lat="43.94329" lon="7.11351">
        <ele>630</ele>
        <time>2012-10-13T13:06:05Z</time>
      </trkpt>
      <trkpt lat="43.94327" lon="7.11353">
        <ele>628</ele>
        <time>2012-10-13T13:06:09Z</time>
      </trkpt>
      <trkpt lat="43.94321" lon="7.11343">
        <ele>627.9</ele>
        <time>2012-10-13T13:06:12Z</time>
      </trkpt>
      <trkpt lat="43.94314" lon="7.11329">
        <ele>628</ele>
        <time>2012-10-13T13:06:15Z</time>
      </trkpt>
      <trkpt lat="43.94314" lon="7.11335">
        <ele>626.2</ele>
        <time>2012-10-13T13:06:19Z</time>
      </trkpt>
      <trkpt lat="43.94321" lon="7.11352">
        <ele>624.3</ele>
        <time>2012-10-13T13:06:23Z</time>
      </trkpt>
      <trkpt lat="43.94317" lon="7.11353">
        <ele>624.2</ele>
        <time>2012-10-13T13:06:26Z</time>
      </trkpt>
      <trkpt lat="43.94306" lon="7.11342">
        <ele>622</ele>
        <time>2012-10-13T13:06:29Z</time>
      </trkpt>
      <trkpt lat="43.94303" lon="7.11337">
        <ele>622.5</ele>
        <time>2012-10-13T13:06:30Z</time>
      </trkpt>
      <trkpt lat="43.94299" lon="7.11332">
        <ele>621</ele>
        <time>2012-10-13T13:06:33Z</time>
      </trkpt>
      <trkpt lat="43.94305" lon="7.11345">
        <ele>618.2</ele>
        <time>2012-10-13T13:06:37Z</time>
      </trkpt>
      <trkpt lat="43.94304" lon="7.11349">
        <ele>615.7</ele>
        <time>2012-10-13T13:06:41Z</time>
      </trkpt>
      <trkpt lat="43.94289" lon="7.11338">
        <ele>615.4</ele>
        <time>2012-10-13T13:06:46Z</time>
      </trkpt>
      <trkpt lat="43.94296" lon="7.11353">
        <ele>612.7</ele>
        <time>2012-10-13T13:06:51Z</time>
      </trkpt>
      <trkpt lat="43.94296" lon="7.11357">
        <ele>611.5</ele>
        <time>2012-10-13T13:06:54Z</time>
      </trkpt>
      <trkpt lat="43.94288" lon="7.11347">
        <ele>610.9</ele>
        <time>2012-10-13T13:06:59Z</time>
      </trkpt>
      <trkpt lat="43.94289" lon="7.11351">
        <ele>608.3</ele>
        <time>2012-10-13T13:07:03Z</time>
      </trkpt>
      <trkpt lat="43.94294" lon="7.1136">
        <ele>608.6</ele>
        <time>2012-10-13T13:07:07Z</time>
      </trkpt>
      <trkpt lat="43.94293" lon="7.11363">
        <ele>607.5</ele>
        <time>2012-10-13T13:07:10Z</time>
      </trkpt>
      <trkpt lat="43.94287" lon="7.11355">
        <ele>605.2</ele>
        <time>2012-10-13T13:07:14Z</time>
      </trkpt>
      <trkpt lat="43.94285" lon="7.11356">
        <ele>608</ele>
        <time>2012-10-13T13:07:19Z</time>
      </trkpt>
      <trkpt lat="43.94282" lon="7.11354">
        <ele>605.7</ele>
        <time>2012-10-13T13:07:22Z</time>
      </trkpt>
      <trkpt lat="43.94287" lon="7.11364">
        <ele>603.2</ele>
        <time>2012-10-13T13:07:27Z</time>
      </trkpt>
      <trkpt lat="43.94291" lon="7.11368">
        <ele>601</ele>
        <time>2012-10-13T13:07:30Z</time>
      </trkpt>
      <trkpt lat="43.94283" lon="7.11363">
        <ele>598.2</ele>
        <time>2012-10-13T13:07:35Z</time>
      </trkpt>
      <trkpt lat="43.94281" lon="7.1136">
        <ele>598</ele>
        <time>2012-10-13T13:07:36Z</time>
      </trkpt>
      <trkpt lat="43.94278" lon="7.1136">
        <ele>597.5</ele>
        <time>2012-10-13T13:07:38Z</time>
      </trkpt>
      <trkpt lat="43.94285" lon="7.11374">
        <ele>595.4</ele>
        <time>2012-10-13T13:07:46Z</time>
      </trkpt>
      <trkpt lat="43.94293" lon="7.11387">
        <ele>593.7</ele>
        <time>2012-10-13T13:07:50Z</time>
      </trkpt>
      <trkpt lat="43.94296" lon="7.1139">
        <ele>593.3</ele>
        <time>2012-10-13T13:07:51Z</time>
      </trkpt>
      <trkpt lat="43.94295" lon="7.11404">
        <ele>592.4</ele>
        <time>2012-10-13T13:07:55Z</time>
      </trkpt>
      <trkpt lat="43.94291" lon="7.11425">
        <ele>592.8</ele>
        <time>2012-10-13T13:08:01Z</time>
      </trkpt>
      <trkpt lat="43.94291" lon="7.11412">
        <ele>591.9</ele>
        <time>2012-10-13T13:08:05Z</time>
      </trkpt>
      <trkpt lat="43.94283" lon="7.11389">
        <ele>587.3</ele>
        <time>2012-10-13T13:08:10Z</time>
      </trkpt>
      <trkpt lat="43.94275" lon="7.11382">
        <ele>586.3</ele>
        <time>2012-10-13T13:08:12Z</time>
      </trkpt>
      <trkpt lat="43.94261" lon="7.11373">
        <ele>583.9</ele>
        <time>2012-10-13T13:08:16Z</time>
      </trkpt>
      <trkpt lat="43.94256" lon="7.11364">
        <ele>585</ele>
        <time>2012-10-13T13:08:19Z</time>
      </trkpt>
      <trkpt lat="43.94258" lon="7.11362">
        <ele>584.9</ele>
        <time>2012-10-13T13:08:20Z</time>
      </trkpt>
      <trkpt lat="43.9426" lon="7.11355">
        <ele>582.7</ele>
        <time>2012-10-13T13:08:22Z</time>
      </trkpt>
      <trkpt lat="43.94255" lon="7.11334">
        <ele>584.2</ele>
        <time>2012-10-13T13:08:27Z</time>
      </trkpt>
      <trkpt lat="43.94239" lon="7.11318">
        <ele>584.6</ele>
        <time>2012-10-13T13:08:32Z</time>
      </trkpt>
      <trkpt lat="43.94227" lon="7.11301">
        <ele>578.1</ele>
        <time>2012-10-13T13:08:37Z</time>
      </trkpt>
      <trkpt lat="43.94211" lon="7.11293">
        <ele>574.6</ele>
        <time>2012-10-13T13:08:41Z</time>
      </trkpt>
      <trkpt lat="43.94197" lon="7.11279">
        <ele>570.2</ele>
        <time>2012-10-13T13:08:46Z</time>
      </trkpt>
      <trkpt lat="43.94193" lon="7.11278">
        <ele>569.6</ele>
        <time>2012-10-13T13:08:49Z</time>
      </trkpt>
      <trkpt lat="43.94193" lon="7.11281">
        <ele>569.9</ele>
        <time>2012-10-13T13:08:52Z</time>
      </trkpt>
      <trkpt lat="43.94192" lon="7.1128">
        <ele>570.1</ele>
        <time>2012-10-13T13:08:58Z</time>
      </trkpt>
      <trkpt lat="43.9419" lon="7.11286">
        <ele>583.6</ele>
        <time>2012-10-13T13:11:01Z</time>
      </trkpt>
      <trkpt lat="43.94192" lon="7.11287">
        <ele>584.1</ele>
        <time>2012-10-13T13:11:07Z</time>
      </trkpt>
      <trkpt lat="43.94188" lon="7.11287">
        <ele>582.2</ele>
        <time>2012-10-13T13:11:13Z</time>
      </trkpt>
      <trkpt lat="43.94185" lon="7.11274">
        <ele>581.5</ele>
        <time>2012-10-13T13:11:18Z</time>
      </trkpt>
      <trkpt lat="43.9418" lon="7.11274">
        <ele>578.2</ele>
        <time>2012-10-13T13:11:22Z</time>
      </trkpt>
      <trkpt lat="43.94178" lon="7.11284">
        <ele>576.2</ele>
        <time>2012-10-13T13:11:25Z</time>
      </trkpt>
      <trkpt lat="43.94176" lon="7.11277">
        <ele>574.4</ele>
        <time>2012-10-13T13:11:29Z</time>
      </trkpt>
      <trkpt lat="43.94174" lon="7.11257">
        <ele>571.9</ele>
        <time>2012-10-13T13:11:33Z</time>
      </trkpt>
      <trkpt lat="43.94167" lon="7.11263">
        <ele>569</ele>
        <time>2012-10-13T13:11:37Z</time>
      </trkpt>
      <trkpt lat="43.94157" lon="7.11293">
        <ele>563</ele>
        <time>2012-10-13T13:11:43Z</time>
      </trkpt>
      <trkpt lat="43.94155" lon="7.11276">
        <ele>562</ele>
        <time>2012-10-13T13:11:47Z</time>
      </trkpt>
      <trkpt lat="43.94157" lon="7.11196">
        <ele>559</ele>
        <time>2012-10-13T13:11:57Z</time>
      </trkpt>
      <trkpt lat="43.94152" lon="7.11202">
        <ele>556.3</ele>
        <time>2012-10-13T13:12:01Z</time>
      </trkpt>
      <trkpt lat="43.94149" lon="7.11211">
        <ele>554.7</ele>
        <time>2012-10-13T13:12:03Z</time>
      </trkpt>
      <trkpt lat="43.94146" lon="7.11207">
        <ele>550.6</ele>
        <time>2012-10-13T13:12:08Z</time>
      </trkpt>
      <trkpt lat="43.94147" lon="7.11193">
        <ele>549.3</ele>
        <time>2012-10-13T13:12:11Z</time>
      </trkpt>
      <trkpt lat="43.94144" lon="7.11191">
        <ele>546.8</ele>
        <time>2012-10-13T13:12:16Z</time>
      </trkpt>
      <trkpt lat="43.94139" lon="7.11203">
        <ele>544.4</ele>
        <time>2012-10-13T13:12:19Z</time>
      </trkpt>
      <trkpt lat="43.94136" lon="7.11196">
        <ele>541.9</ele>
        <time>2012-10-13T13:12:23Z</time>
      </trkpt>
      <trkpt lat="43.94137" lon="7.1118">
        <ele>540.4</ele>
        <time>2012-10-13T13:12:26Z</time>
      </trkpt>
      <trkpt lat="43.94131" lon="7.11186">
        <ele>538.1</ele>
        <time>2012-10-13T13:12:30Z</time>
      </trkpt>
      <trkpt lat="43.94127" lon="7.11198">
        <ele>536.6</ele>
        <time>2012-10-13T13:12:33Z</time>
      </trkpt>
      <trkpt lat="43.94123" lon="7.11194">
        <ele>536.1</ele>
        <time>2012-10-13T13:12:37Z</time>
      </trkpt>
      <trkpt lat="43.94121" lon="7.11172">
        <ele>535.6</ele>
        <time>2012-10-13T13:12:42Z</time>
      </trkpt>
      <trkpt lat="43.94116" lon="7.11185">
        <ele>532.9</ele>
        <time>2012-10-13T13:12:47Z</time>
      </trkpt>
      <trkpt lat="43.94112" lon="7.11179">
        <ele>532.4</ele>
        <time>2012-10-13T13:12:51Z</time>
      </trkpt>
      <trkpt lat="43.94112" lon="7.11145">
        <ele>528.8</ele>
        <time>2012-10-13T13:12:56Z</time>
      </trkpt>
      <trkpt lat="43.9411" lon="7.11125">
        <ele>526.7</ele>
        <time>2012-10-13T13:13:00Z</time>
      </trkpt>
      <trkpt lat="43.94092" lon="7.11168">
        <ele>525.4</ele>
        <time>2012-10-13T13:13:08Z</time>
      </trkpt>
      <trkpt lat="43.94088" lon="7.11165">
        <ele>525</ele>
        <time>2012-10-13T13:13:11Z</time>
      </trkpt>
      <trkpt lat="43.94077" lon="7.11084">
        <ele>516.3</ele>
        <time>2012-10-13T13:13:23Z</time>
      </trkpt>
      <trkpt lat="43.9407" lon="7.11103">
        <ele>511.6</ele>
        <time>2012-10-13T13:13:27Z</time>
      </trkpt>
      <trkpt lat="43.94064" lon="7.11117">
        <ele>509.7</ele>
        <time>2012-10-13T13:13:30Z</time>
      </trkpt>
      <trkpt lat="43.94058" lon="7.111">
        <ele>509.9</ele>
        <time>2012-10-13T13:13:34Z</time>
      </trkpt>
      <trkpt lat="43.94052" lon="7.11066">
        <ele>505.6</ele>
        <time>2012-10-13T13:13:39Z</time>
      </trkpt>
      <trkpt lat="43.94047" lon="7.11062">
        <ele>504.4</ele>
        <time>2012-10-13T13:13:42Z</time>
      </trkpt>
      <trkpt lat="43.94037" lon="7.11086">
        <ele>502.8</ele>
        <time>2012-10-13T13:13:46Z</time>
      </trkpt>
      <trkpt lat="43.94032" lon="7.11083">
        <ele>501.6</ele>
        <time>2012-10-13T13:13:49Z</time>
      </trkpt>
      <trkpt lat="43.94008" lon="7.11006">
        <ele>500.2</ele>
        <time>2012-10-13T13:13:59Z</time>
      </trkpt>
      <trkpt lat="43.94005" lon="7.11005">
        <ele>498.2</ele>
        <time>2012-10-13T13:14:02Z</time>
      </trkpt>
      <trkpt lat="43.93999" lon="7.11033">
        <ele>494</ele>
        <time>2012-10-13T13:14:07Z</time>
      </trkpt>
      <trkpt lat="43.93994" lon="7.11046">
        <ele>493.8</ele>
        <time>2012-10-13T13:14:10Z</time>
      </trkpt>
      <trkpt lat="43.93986" lon="7.11034">
        <ele>495.1</ele>
        <time>2012-10-13T13:14:14Z</time>
      </trkpt>
      <trkpt lat="43.93978" lon="7.1103">
        <ele>492.8</ele>
        <time>2012-10-13T13:14:18Z</time>
      </trkpt>
      <trkpt lat="43.93971" lon="7.11046">
        <ele>488.4</ele>
        <time>2012-10-13T13:14:21Z</time>
      </trkpt>
      <trkpt lat="43.93967" lon="7.11046">
        <ele>486.2</ele>
        <time>2012-10-13T13:14:24Z</time>
      </trkpt>
      <trkpt lat="43.93961" lon="7.11034">
        <ele>486</ele>
        <time>2012-10-13T13:14:26Z</time>
      </trkpt>
      <trkpt lat="43.93958" lon="7.11023">
        <ele>484</ele>
        <time>2012-10-13T13:14:28Z</time>
      </trkpt>
      <trkpt lat="43.93951" lon="7.11028">
        <ele>481.2</ele>
        <time>2012-10-13T13:14:32Z</time>
      </trkpt>
      <trkpt lat="43.93949" lon="7.11034">
        <ele>480.7</ele>
        <time>2012-10-13T13:14:33Z</time>
      </trkpt>
      <trkpt lat="43.9394" lon="7.11047">
        <ele>477.9</ele>
        <time>2012-10-13T13:14:36Z</time>
      </trkpt>
      <trkpt lat="43.93942" lon="7.11058">
        <ele>475.5</ele>
        <time>2012-10-13T13:14:40Z</time>
      </trkpt>
      <trkpt lat="43.93945" lon="7.11067">
        <ele>473</ele>
        <time>2012-10-13T13:14:43Z</time>
      </trkpt>
      <trkpt lat="43.93947" lon="7.11069">
        <ele>471.6</ele>
        <time>2012-10-13T13:14:47Z</time>
      </trkpt>
      <trkpt lat="43.93947" lon="7.1107">
        <ele>469.6</ele>
        <time>2012-10-13T13:14:51Z</time>
      </trkpt>
      <trkpt lat="43.93938" lon="7.11072">
        <ele>467.3</ele>
        <time>2012-10-13T13:14:59Z</time>
      </trkpt>
      <trkpt lat="43.93937" lon="7.11075">
        <ele>467.4</ele>
        <time>2012-10-13T13:15:03Z</time>
      </trkpt>
      <trkpt lat="43.93942" lon="7.11078">
        <ele>467.1</ele>
        <time>2012-10-13T13:15:07Z</time>
      </trkpt>
      <trkpt lat="43.93932" lon="7.1108">
        <ele>465.1</ele>
        <time>2012-10-13T13:15:12Z</time>
      </trkpt>
      <trkpt lat="43.93931" lon="7.11082">
        <ele>465.7</ele>
        <time>2012-10-13T13:15:14Z</time>
      </trkpt>
      <trkpt lat="43.93939" lon="7.11083">
        <ele>464.3</ele>
        <time>2012-10-13T13:15:20Z</time>
      </trkpt>
      <trkpt lat="43.9394" lon="7.11086">
        <ele>464.4</ele>
        <time>2012-10-13T13:15:25Z</time>
      </trkpt>
      <trkpt lat="43.93933" lon="7.11086">
        <ele>465.1</ele>
        <time>2012-10-13T13:15:30Z</time>
      </trkpt>
      <trkpt lat="43.93929" lon="7.11087">
        <ele>463.7</ele>
        <time>2012-10-13T13:15:34Z</time>
      </trkpt>
      <trkpt lat="43.9393" lon="7.11088">
        <ele>463.1</ele>
        <time>2012-10-13T13:15:36Z</time>
      </trkpt>
      <trkpt lat="43.93935" lon="7.1109">
        <ele>461.9</ele>
        <time>2012-10-13T13:15:39Z</time>
      </trkpt>
      <trkpt lat="43.93934" lon="7.11094">
        <ele>459.9</ele>
        <time>2012-10-13T13:15:43Z</time>
      </trkpt>
      <trkpt lat="43.93928" lon="7.11096">
        <ele>452.1</ele>
        <time>2012-10-13T13:16:49Z</time>
      </trkpt>
      <trkpt lat="43.93926" lon="7.11094">
        <ele>452.4</ele>
        <time>2012-10-13T13:17:21Z</time>
      </trkpt>
      <trkpt lat="43.9392" lon="7.11089">
        <ele>455.8</ele>
        <time>2012-10-13T13:17:28Z</time>
      </trkpt>
      <trkpt lat="43.93912" lon="7.11075">
        <ele>458.1</ele>
        <time>2012-10-13T13:17:35Z</time>
      </trkpt>
      <trkpt lat="43.93903" lon="7.11007">
        <ele>460.8</ele>
        <time>2012-10-13T13:17:53Z</time>
      </trkpt>
      <trkpt lat="43.93931" lon="7.10965">
        <ele>460.2</ele>
        <time>2012-10-13T13:18:02Z</time>
      </trkpt>
      <trkpt lat="43.93947" lon="7.10931">
        <ele>460.1</ele>
        <time>2012-10-13T13:18:08Z</time>
      </trkpt>
      <trkpt lat="43.93972" lon="7.10902">
        <ele>457.4</ele>
        <time>2012-10-13T13:18:17Z</time>
      </trkpt>
      <trkpt lat="43.93983" lon="7.10899">
        <ele>452.9</ele>
        <time>2012-10-13T13:18:21Z</time>
      </trkpt>
      <trkpt lat="43.94019" lon="7.10893">
        <ele>442.1</ele>
        <time>2012-10-13T13:18:32Z</time>
      </trkpt>
      <trkpt lat="43.94028" lon="7.1089">
        <ele>440.3</ele>
        <time>2012-10-13T13:18:35Z</time>
      </trkpt>
      <trkpt lat="43.94038" lon="7.10895">
        <ele>437.8</ele>
        <time>2012-10-13T13:18:41Z</time>
      </trkpt>
      <trkpt lat="43.9404" lon="7.10894">
        <ele>436.6</ele>
        <time>2012-10-13T13:18:46Z</time>
      </trkpt>
      <trkpt lat="43.94041" lon="7.10893">
        <ele>437</ele>
        <time>2012-10-13T13:18:49Z</time>
      </trkpt>
      <trkpt lat="43.9404" lon="7.1089">
        <ele>437.5</ele>
        <time>2012-10-13T13:18:52Z</time>
      </trkpt>
      <trkpt lat="43.94038" lon="7.10887">
        <ele>439.3</ele>
        <time>2012-10-13T13:19:00Z</time>
      </trkpt>
      <trkpt lat="43.94035" lon="7.10879">
        <ele>442.6</ele>
        <time>2012-10-13T13:19:09Z</time>
      </trkpt>
      <trkpt lat="43.94041" lon="7.10819">
        <ele>448.1</ele>
        <time>2012-10-13T13:19:46Z</time>
      </trkpt>
      <trkpt lat="43.94043" lon="7.1081">
        <ele>448.6</ele>
        <time>2012-10-13T13:19:49Z</time>
      </trkpt>
      <trkpt lat="43.94052" lon="7.10797">
        <ele>452</ele>
        <time>2012-10-13T13:19:57Z</time>
      </trkpt>
      <trkpt lat="43.94056" lon="7.10786">
        <ele>451.4</ele>
        <time>2012-10-13T13:20:03Z</time>
      </trkpt>
      <trkpt lat="43.94056" lon="7.10775">
        <ele>451.2</ele>
        <time>2012-10-13T13:20:09Z</time>
      </trkpt>
      <trkpt lat="43.94056" lon="7.10773">
        <ele>450</ele>
        <time>2012-10-13T13:20:13Z</time>
      </trkpt>
      <trkpt lat="43.94063" lon="7.1077">
        <ele>451.9</ele>
        <time>2012-10-13T13:20:21Z</time>
      </trkpt>
      <trkpt lat="43.94063" lon="7.10768">
        <ele>451.8</ele>
        <time>2012-10-13T13:20:27Z</time>
      </trkpt>
      <trkpt lat="43.94066" lon="7.10767">
        <ele>452</ele>
        <time>2012-10-13T13:20:33Z</time>
      </trkpt>
      <trkpt lat="43.94069" lon="7.10765">
        <ele>447.3</ele>
        <time>2012-10-13T13:21:19Z</time>
      </trkpt>
      <trkpt lat="43.94078" lon="7.10762">
        <ele>448.7</ele>
        <time>2012-10-13T13:21:25Z</time>
      </trkpt>
      <trkpt lat="43.94089" lon="7.10731">
        <ele>448.9</ele>
        <time>2012-10-13T13:21:36Z</time>
      </trkpt>
      <trkpt lat="43.94108" lon="7.10724">
        <ele>449.5</ele>
        <time>2012-10-13T13:21:43Z</time>
      </trkpt>
      <trkpt lat="43.94116" lon="7.10723">
        <ele>449.6</ele>
        <time>2012-10-13T13:21:45Z</time>
      </trkpt>
      <trkpt lat="43.94135" lon="7.1071">
        <ele>450</ele>
        <time>2012-10-13T13:21:50Z</time>
      </trkpt>
      <trkpt lat="43.94151" lon="7.10704">
        <ele>450.7</ele>
        <time>2012-10-13T13:21:55Z</time>
      </trkpt>
      <trkpt lat="43.94151" lon="7.10703">
        <ele>450.5</ele>
        <time>2012-10-13T13:22:01Z</time>
      </trkpt>
      <trkpt lat="43.94151" lon="7.10703">
        <ele>450.8</ele>
        <time>2012-10-13T13:22:05Z</time>
      </trkpt>
      <trkpt lat="43.94148" lon="7.10702">
        <ele>451.5</ele>
        <time>2012-10-13T13:22:11Z</time>
      </trkpt>
      <trkpt lat="43.94145" lon="7.10703">
        <ele>453.9</ele>
        <time>2012-10-13T13:22:18Z</time>
      </trkpt>
      <trkpt lat="43.94144" lon="7.10706">
        <ele>454</ele>
        <time>2012-10-13T13:22:27Z</time>
      </trkpt>
      <trkpt lat="43.94143" lon="7.10707">
        <ele>454</ele>
        <time>2012-10-13T13:22:34Z</time>
      </trkpt>
      <trkpt lat="43.94143" lon="7.10708">
        <ele>453.9</ele>
        <time>2012-10-13T13:22:35Z</time>
      </trkpt>
      <trkpt lat="43.94139" lon="7.1071">
        <ele>454.5</ele>
        <time>2012-10-13T13:22:39Z</time>
      </trkpt>
      <trkpt lat="43.94132" lon="7.10717">
        <ele>455</ele>
        <time>2012-10-13T13:22:47Z</time>
      </trkpt>
      <trkpt lat="43.94121" lon="7.10723">
        <ele>454</ele>
        <time>2012-10-13T13:22:53Z</time>
      </trkpt>
      <trkpt lat="43.94105" lon="7.10726">
        <ele>452.1</ele>
        <time>2012-10-13T13:23:00Z</time>
      </trkpt>
      <trkpt lat="43.94097" lon="7.10726">
        <ele>452.3</ele>
        <time>2012-10-13T13:23:06Z</time>
      </trkpt>
      <trkpt lat="43.94094" lon="7.10724">
        <ele>452.7</ele>
        <time>2012-10-13T13:23:11Z</time>
      </trkpt>
      <trkpt lat="43.94094" lon="7.10715">
        <ele>451.8</ele>
        <time>2012-10-13T13:23:17Z</time>
      </trkpt>
      <trkpt lat="43.94093" lon="7.10711">
        <ele>450</ele>
        <time>2012-10-13T13:23:22Z</time>
      </trkpt>
      <trkpt lat="43.94087" lon="7.10705">
        <ele>442.4</ele>
        <time>2012-10-13T13:24:03Z</time>
      </trkpt>
      <trkpt lat="43.94085" lon="7.10691">
        <ele>448</ele>
        <time>2012-10-13T13:24:09Z</time>
      </trkpt>
      <trkpt lat="43.94084" lon="7.10687">
        <ele>449.6</ele>
        <time>2012-10-13T13:24:11Z</time>
      </trkpt>
      <trkpt lat="43.94078" lon="7.10682">
        <ele>451.3</ele>
        <time>2012-10-13T13:24:15Z</time>
      </trkpt>
      <trkpt lat="43.94076" lon="7.10659">
        <ele>454</ele>
        <time>2012-10-13T13:24:22Z</time>
      </trkpt>
      <trkpt lat="43.94062" lon="7.10647">
        <ele>456.9</ele>
        <time>2012-10-13T13:24:31Z</time>
      </trkpt>
      <trkpt lat="43.94055" lon="7.10637">
        <ele>457.1</ele>
        <time>2012-10-13T13:24:36Z</time>
      </trkpt>
      <trkpt lat="43.94049" lon="7.10633">
        <ele>459.4</ele>
        <time>2012-10-13T13:24:40Z</time>
      </trkpt>
      <trkpt lat="43.94053" lon="7.10611">
        <ele>461.2</ele>
        <time>2012-10-13T13:24:46Z</time>
      </trkpt>
      <trkpt lat="43.94052" lon="7.10596">
        <ele>460.8</ele>
        <time>2012-10-13T13:24:50Z</time>
      </trkpt>
      <trkpt lat="43.94045" lon="7.10584">
        <ele>461.3</ele>
        <time>2012-10-13T13:24:55Z</time>
      </trkpt>
      <trkpt lat="43.94045" lon="7.10581">
        <ele>461.2</ele>
        <time>2012-10-13T13:24:56Z</time>
      </trkpt>
      <trkpt lat="43.9404" lon="7.10565">
        <ele>461</ele>
        <time>2012-10-13T13:25:02Z</time>
      </trkpt>
      <trkpt lat="43.94036" lon="7.10558">
        <ele>461.5</ele>
        <time>2012-10-13T13:25:05Z</time>
      </trkpt>
      <trkpt lat="43.94026" lon="7.10558">
        <ele>462.6</ele>
        <time>2012-10-13T13:25:11Z</time>
      </trkpt>
      <trkpt lat="43.94012" lon="7.10557">
        <ele>463.1</ele>
        <time>2012-10-13T13:25:18Z</time>
      </trkpt>
      <trkpt lat="43.94001" lon="7.10559">
        <ele>463.4</ele>
        <time>2012-10-13T13:25:24Z</time>
      </trkpt>
      <trkpt lat="43.93982" lon="7.10555">
        <ele>464</ele>
        <time>2012-10-13T13:25:34Z</time>
      </trkpt>
      <trkpt lat="43.93972" lon="7.10548">
        <ele>464.3</ele>
        <time>2012-10-13T13:25:39Z</time>
      </trkpt>
      <trkpt lat="43.9396" lon="7.10547">
        <ele>463.8</ele>
        <time>2012-10-13T13:25:44Z</time>
      </trkpt>
      <trkpt lat="43.93957" lon="7.10545">
        <ele>463.9</ele>
        <time>2012-10-13T13:25:45Z</time>
      </trkpt>
      <trkpt lat="43.93944" lon="7.10537">
        <ele>463.2</ele>
        <time>2012-10-13T13:25:51Z</time>
      </trkpt>
      <trkpt lat="43.93934" lon="7.1053">
        <ele>465.6</ele>
        <time>2012-10-13T13:25:56Z</time>
      </trkpt>
      <trkpt lat="43.93922" lon="7.10512">
        <ele>470.9</ele>
        <time>2012-10-13T13:26:02Z</time>
      </trkpt>
      <trkpt lat="43.93908" lon="7.10476">
        <ele>482.7</ele>
        <time>2012-10-13T13:26:14Z</time>
      </trkpt>
      <trkpt lat="43.93904" lon="7.10468">
        <ele>485.5</ele>
        <time>2012-10-13T13:26:18Z</time>
      </trkpt>
      <trkpt lat="43.93902" lon="7.10466">
        <ele>484.2</ele>
        <time>2012-10-13T13:26:20Z</time>
      </trkpt>
      <trkpt lat="43.93895" lon="7.10467">
        <ele>480.4</ele>
        <time>2012-10-13T13:26:25Z</time>
      </trkpt>
      <trkpt lat="43.93887" lon="7.10455">
        <ele>481</ele>
        <time>2012-10-13T13:26:31Z</time>
      </trkpt>
      <trkpt lat="43.93875" lon="7.10455">
        <ele>476.7</ele>
        <time>2012-10-13T13:26:39Z</time>
      </trkpt>
      <trkpt lat="43.93863" lon="7.10444">
        <ele>473.7</ele>
        <time>2012-10-13T13:26:46Z</time>
      </trkpt>
      <trkpt lat="43.93849" lon="7.10437">
        <ele>472.4</ele>
        <time>2012-10-13T13:26:54Z</time>
      </trkpt>
      <trkpt lat="43.93839" lon="7.10435">
        <ele>472.9</ele>
        <time>2012-10-13T13:27:00Z</time>
      </trkpt>
      <trkpt lat="43.93828" lon="7.10428">
        <ele>475.4</ele>
        <time>2012-10-13T13:27:07Z</time>
      </trkpt>
      <trkpt lat="43.93827" lon="7.10427">
        <ele>476.4</ele>
        <time>2012-10-13T13:27:08Z</time>
      </trkpt>
      <trkpt lat="43.93821" lon="7.10428">
        <ele>477.5</ele>
        <time>2012-10-13T13:27:12Z</time>
      </trkpt>
      <trkpt lat="43.93791" lon="7.10417">
        <ele>477.3</ele>
        <time>2012-10-13T13:27:23Z</time>
      </trkpt>
      <trkpt lat="43.93769" lon="7.1039">
        <ele>474.7</ele>
        <time>2012-10-13T13:27:32Z</time>
      </trkpt>
      <trkpt lat="43.93763" lon="7.10387">
        <ele>474.5</ele>
        <time>2012-10-13T13:27:34Z</time>
      </trkpt>
      <trkpt lat="43.93752" lon="7.10398">
        <ele>473.2</ele>
        <time>2012-10-13T13:27:39Z</time>
      </trkpt>
      <trkpt lat="43.9375" lon="7.10403">
        <ele>472.5</ele>
        <time>2012-10-13T13:27:40Z</time>
      </trkpt>
      <trkpt lat="43.93743" lon="7.10427">
        <ele>471.9</ele>
        <time>2012-10-13T13:27:46Z</time>
      </trkpt>
      <trkpt lat="43.93741" lon="7.10431">
        <ele>471.5</ele>
        <time>2012-10-13T13:27:47Z</time>
      </trkpt>
      <trkpt lat="43.93731" lon="7.10447">
        <ele>469.9</ele>
        <time>2012-10-13T13:27:50Z</time>
      </trkpt>
      <trkpt lat="43.93714" lon="7.10462">
        <ele>467.4</ele>
        <time>2012-10-13T13:27:54Z</time>
      </trkpt>
      <trkpt lat="43.93695" lon="7.10472">
        <ele>467.1</ele>
        <time>2012-10-13T13:27:59Z</time>
      </trkpt>
      <trkpt lat="43.93683" lon="7.10471">
        <ele>465.6</ele>
        <time>2012-10-13T13:28:02Z</time>
      </trkpt>
      <trkpt lat="43.93661" lon="7.10486">
        <ele>461.1</ele>
        <time>2012-10-13T13:28:07Z</time>
      </trkpt>
      <trkpt lat="43.93647" lon="7.10486">
        <ele>458.2</ele>
        <time>2012-10-13T13:28:10Z</time>
      </trkpt>
      <trkpt lat="43.93622" lon="7.10479">
        <ele>456</ele>
        <time>2012-10-13T13:28:15Z</time>
      </trkpt>
      <trkpt lat="43.93606" lon="7.10477">
        <ele>452.2</ele>
        <time>2012-10-13T13:28:19Z</time>
      </trkpt>
      <trkpt lat="43.9359" lon="7.10484">
        <ele>446.8</ele>
        <time>2012-10-13T13:28:25Z</time>
      </trkpt>
      <trkpt lat="43.93572" lon="7.10493">
        <ele>443</ele>
        <time>2012-10-13T13:28:30Z</time>
      </trkpt>
      <trkpt lat="43.93563" lon="7.10497">
        <ele>441.4</ele>
        <time>2012-10-13T13:28:32Z</time>
      </trkpt>
      <trkpt lat="43.93546" lon="7.10497">
        <ele>438</ele>
        <time>2012-10-13T13:28:36Z</time>
      </trkpt>
      <trkpt lat="43.93545" lon="7.10493">
        <ele>436.1</ele>
        <time>2012-10-13T13:28:40Z</time>
      </trkpt>
      <trkpt lat="43.93559" lon="7.10488">
        <ele>435.7</ele>
        <time>2012-10-13T13:28:44Z</time>
      </trkpt>
      <trkpt lat="43.9357" lon="7.10479">
        <ele>436.3</ele>
        <time>2012-10-13T13:28:47Z</time>
      </trkpt>
      <trkpt lat="43.93577" lon="7.10475">
        <ele>436.2</ele>
        <time>2012-10-13T13:28:49Z</time>
      </trkpt>
      <trkpt lat="43.9359" lon="7.10459">
        <ele>435.9</ele>
        <time>2012-10-13T13:28:53Z</time>
      </trkpt>
      <trkpt lat="43.93601" lon="7.10451">
        <ele>435.6</ele>
        <time>2012-10-13T13:28:56Z</time>
      </trkpt>
      <trkpt lat="43.93596" lon="7.10429">
        <ele>433.9</ele>
        <time>2012-10-13T13:29:00Z</time>
      </trkpt>
      <trkpt lat="43.93587" lon="7.10414">
        <ele>433.7</ele>
        <time>2012-10-13T13:29:02Z</time>
      </trkpt>
      <trkpt lat="43.93581" lon="7.10402">
        <ele>433.1</ele>
        <time>2012-10-13T13:29:06Z</time>
      </trkpt>
      <trkpt lat="43.93582" lon="7.10402">
        <ele>433</ele>
        <time>2012-10-13T13:29:07Z</time>
      </trkpt>
      <trkpt lat="43.93593" lon="7.10415">
        <ele>429.8</ele>
        <time>2012-10-13T13:29:12Z</time>
      </trkpt>
      <trkpt lat="43.93601" lon="7.1042">
        <ele>432.4</ele>
        <time>2012-10-13T13:29:15Z</time>
      </trkpt>
      <trkpt lat="43.93614" lon="7.10425">
        <ele>434.1</ele>
        <time>2012-10-13T13:29:20Z</time>
      </trkpt>
      <trkpt lat="43.9364" lon="7.10413">
        <ele>428.4</ele>
        <time>2012-10-13T13:29:28Z</time>
      </trkpt>
      <trkpt lat="43.93651" lon="7.10403">
        <ele>425.2</ele>
        <time>2012-10-13T13:29:31Z</time>
      </trkpt>
      <trkpt lat="43.93662" lon="7.10388">
        <ele>422.9</ele>
        <time>2012-10-13T13:29:35Z</time>
      </trkpt>
      <trkpt lat="43.93677" lon="7.10375">
        <ele>421.6</ele>
        <time>2012-10-13T13:29:39Z</time>
      </trkpt>
      <trkpt lat="43.93677" lon="7.10352">
        <ele>420</ele>
        <time>2012-10-13T13:29:43Z</time>
      </trkpt>
      <trkpt lat="43.93679" lon="7.10329">
        <ele>414.7</ele>
        <time>2012-10-13T13:29:48Z</time>
      </trkpt>
      <trkpt lat="43.93674" lon="7.1034">
        <ele>408.7</ele>
        <time>2012-10-13T13:29:58Z</time>
      </trkpt>
      <trkpt lat="43.93675" lon="7.10345">
        <ele>406</ele>
        <time>2012-10-13T13:30:06Z</time>
      </trkpt>
      <trkpt lat="43.93674" lon="7.10345">
        <ele>402.1</ele>
        <time>2012-10-13T13:31:14Z</time>
      </trkpt>
      <trkpt lat="43.93666" lon="7.10359">
        <ele>407.5</ele>
        <time>2012-10-13T13:31:27Z</time>
      </trkpt>
      <trkpt lat="43.93657" lon="7.10369">
        <ele>407.5</ele>
        <time>2012-10-13T13:31:31Z</time>
      </trkpt>
      <trkpt lat="43.93648" lon="7.10367">
        <ele>405.3</ele>
        <time>2012-10-13T13:31:34Z</time>
      </trkpt>
      <trkpt lat="43.93638" lon="7.10376">
        <ele>405.6</ele>
        <time>2012-10-13T13:31:37Z</time>
      </trkpt>
      <trkpt lat="43.93623" lon="7.10377">
        <ele>404.7</ele>
        <time>2012-10-13T13:31:40Z</time>
      </trkpt>
      <trkpt lat="43.93607" lon="7.10359">
        <ele>400.2</ele>
        <time>2012-10-13T13:31:44Z</time>
      </trkpt>
      <trkpt lat="43.93604" lon="7.10353">
        <ele>399.3</ele>
        <time>2012-10-13T13:31:45Z</time>
      </trkpt>
      <trkpt lat="43.936" lon="7.10341">
        <ele>395.7</ele>
        <time>2012-10-13T13:31:49Z</time>
      </trkpt>
      <trkpt lat="43.93613" lon="7.1034">
        <ele>393.3</ele>
        <time>2012-10-13T13:31:54Z</time>
      </trkpt>
      <trkpt lat="43.93619" lon="7.10338">
        <ele>390.3</ele>
        <time>2012-10-13T13:31:57Z</time>
      </trkpt>
      <trkpt lat="43.93601" lon="7.10316">
        <ele>383.6</ele>
        <time>2012-10-13T13:32:03Z</time>
      </trkpt>
      <trkpt lat="43.93597" lon="7.10308">
        <ele>381.7</ele>
        <time>2012-10-13T13:32:06Z</time>
      </trkpt>
      <trkpt lat="43.93625" lon="7.10315">
        <ele>372.5</ele>
        <time>2012-10-13T13:32:12Z</time>
      </trkpt>
      <trkpt lat="43.93655" lon="7.10274">
        <ele>370.7</ele>
        <time>2012-10-13T13:32:21Z</time>
      </trkpt>
      <trkpt lat="43.93651" lon="7.10256">
        <ele>369.6</ele>
        <time>2012-10-13T13:32:25Z</time>
      </trkpt>
      <trkpt lat="43.93665" lon="7.10235">
        <ele>365.2</ele>
        <time>2012-10-13T13:32:30Z</time>
      </trkpt>
      <trkpt lat="43.93674" lon="7.10231">
        <ele>364.7</ele>
        <time>2012-10-13T13:32:32Z</time>
      </trkpt>
      <trkpt lat="43.93689" lon="7.10222">
        <ele>364.1</ele>
        <time>2012-10-13T13:32:36Z</time>
      </trkpt>
      <trkpt lat="43.93698" lon="7.10213">
        <ele>362.7</ele>
        <time>2012-10-13T13:32:39Z</time>
      </trkpt>
      <trkpt lat="43.93711" lon="7.10212">
        <ele>362.2</ele>
        <time>2012-10-13T13:32:43Z</time>
      </trkpt>
      <trkpt lat="43.93728" lon="7.10194">
        <ele>359.9</ele>
        <time>2012-10-13T13:32:50Z</time>
      </trkpt>
      <trkpt lat="43.9375" lon="7.10177">
        <ele>357.3</ele>
        <time>2012-10-13T13:32:56Z</time>
      </trkpt>
      <trkpt lat="43.9376" lon="7.10167">
        <ele>358.5</ele>
        <time>2012-10-13T13:33:00Z</time>
      </trkpt>
      <trkpt lat="43.93775" lon="7.10167">
        <ele>354</ele>
        <time>2012-10-13T13:33:05Z</time>
      </trkpt>
      <trkpt lat="43.93789" lon="7.10162">
        <ele>349</ele>
        <time>2012-10-13T13:33:09Z</time>
      </trkpt>
      <trkpt lat="43.93821" lon="7.10133">
        <ele>345.1</ele>
        <time>2012-10-13T13:33:19Z</time>
      </trkpt>
      <trkpt lat="43.93825" lon="7.10129">
        <ele>344.1</ele>
        <time>2012-10-13T13:33:21Z</time>
      </trkpt>
      <trkpt lat="43.93825" lon="7.10117">
        <ele>345.5</ele>
        <time>2012-10-13T13:33:27Z</time>
      </trkpt>
      <trkpt lat="43.93828" lon="7.1011">
        <ele>341.8</ele>
        <time>2012-10-13T13:33:31Z</time>
      </trkpt>
      <trkpt lat="43.9383" lon="7.10108">
        <ele>335.9</ele>
        <time>2012-10-13T13:33:43Z</time>
      </trkpt>
      <trkpt lat="43.93825" lon="7.10106">
        <ele>342.9</ele>
        <time>2012-10-13T13:34:16Z</time>
      </trkpt>
      <trkpt lat="43.93824" lon="7.10106">
        <ele>338.6</ele>
        <time>2012-10-13T13:34:22Z</time>
      </trkpt>
      <trkpt lat="43.93822" lon="7.101">
        <ele>336.2</ele>
        <time>2012-10-13T13:34:28Z</time>
      </trkpt>
      <trkpt lat="43.93817" lon="7.10093">
        <ele>338.5</ele>
        <time>2012-10-13T13:34:37Z</time>
      </trkpt>
      <trkpt lat="43.93812" lon="7.10081">
        <ele>337.9</ele>
        <time>2012-10-13T13:34:48Z</time>
      </trkpt>
      <trkpt lat="43.93811" lon="7.10073">
        <ele>337.3</ele>
        <time>2012-10-13T13:34:59Z</time>
      </trkpt>
      <trkpt lat="43.9382" lon="7.10008">
        <ele>337</ele>
        <time>2012-10-13T13:35:23Z</time>
      </trkpt>
      <trkpt lat="43.93813" lon="7.09982">
        <ele>336.4</ele>
        <time>2012-10-13T13:35:28Z</time>
      </trkpt>
      <trkpt lat="43.93812" lon="7.0997">
        <ele>336.6</ele>
        <time>2012-10-13T13:35:32Z</time>
      </trkpt>
      <trkpt lat="43.93811" lon="7.09969">
        <ele>337.5</ele>
        <time>2012-10-13T13:35:33Z</time>
      </trkpt>
      <trkpt lat="43.9381" lon="7.09962">
        <ele>338.7</ele>
        <time>2012-10-13T13:35:37Z</time>
      </trkpt>
      <trkpt lat="43.93805" lon="7.09961">
        <ele>339.7</ele>
        <time>2012-10-13T13:35:41Z</time>
      </trkpt>
      <trkpt lat="43.93803" lon="7.09962">
        <ele>337.6</ele>
        <time>2012-10-13T13:35:46Z</time>
      </trkpt>
      <trkpt lat="43.93804" lon="7.09963">
        <ele>332.3</ele>
        <time>2012-10-13T13:36:02Z</time>
      </trkpt>
      <trkpt lat="43.93809" lon="7.09963">
        <ele>332</ele>
        <time>2012-10-13T13:36:07Z</time>
      </trkpt>
      <trkpt lat="43.9381" lon="7.09962">
        <ele>332.1</ele>
        <time>2012-10-13T13:36:08Z</time>
      </trkpt>
      <trkpt lat="43.93814" lon="7.09957">
        <ele>332.3</ele>
        <time>2012-10-13T13:36:15Z</time>
      </trkpt>
      <trkpt lat="43.93813" lon="7.09956">
        <ele>331.7</ele>
        <time>2012-10-13T13:36:26Z</time>
      </trkpt>
      <trkpt lat="43.93807" lon="7.0995">
        <ele>335.9</ele>
        <time>2012-10-13T13:36:34Z</time>
      </trkpt>
      <trkpt lat="43.93801" lon="7.09944">
        <ele>339.9</ele>
        <time>2012-10-13T13:36:43Z</time>
      </trkpt>
      <trkpt lat="43.93791" lon="7.09931">
        <ele>346.1</ele>
        <time>2012-10-13T13:37:02Z</time>
      </trkpt>
      <trkpt lat="43.93786" lon="7.09927">
        <ele>346.5</ele>
        <time>2012-10-13T13:37:11Z</time>
      </trkpt>
      <trkpt lat="43.93781" lon="7.09924">
        <ele>345.4</ele>
        <time>2012-10-13T13:37:18Z</time>
      </trkpt>
      <trkpt lat="43.93777" lon="7.09921">
        <ele>346.7</ele>
        <time>2012-10-13T13:37:24Z</time>
      </trkpt>
      <trkpt lat="43.93769" lon="7.09919">
        <ele>345.2</ele>
        <time>2012-10-13T13:37:34Z</time>
      </trkpt>
      <trkpt lat="43.93764" lon="7.09916">
        <ele>346.3</ele>
        <time>2012-10-13T13:37:42Z</time>
      </trkpt>
      <trkpt lat="43.93762" lon="7.09915">
        <ele>346.9</ele>
        <time>2012-10-13T13:37:45Z</time>
      </trkpt>
      <trkpt lat="43.93756" lon="7.09914">
        <ele>352.3</ele>
        <time>2012-10-13T13:37:55Z</time>
      </trkpt>
      <trkpt lat="43.93752" lon="7.09914">
        <ele>354.8</ele>
        <time>2012-10-13T13:38:01Z</time>
      </trkpt>
      <trkpt lat="43.93741" lon="7.09916">
        <ele>356.9</ele>
        <time>2012-10-13T13:38:17Z</time>
      </trkpt>
      <trkpt lat="43.93736" lon="7.09918">
        <ele>358.5</ele>
        <time>2012-10-13T13:38:25Z</time>
      </trkpt>
      <trkpt lat="43.93731" lon="7.09921">
        <ele>360.4</ele>
        <time>2012-10-13T13:38:33Z</time>
      </trkpt>
      <trkpt lat="43.93725" lon="7.09923">
        <ele>361.7</ele>
        <time>2012-10-13T13:38:41Z</time>
      </trkpt>
      <trkpt lat="43.93723" lon="7.09924">
        <ele>362.5</ele>
        <time>2012-10-13T13:38:44Z</time>
      </trkpt>
      <trkpt lat="43.93721" lon="7.09924">
        <ele>362.8</ele>
        <time>2012-10-13T13:38:47Z</time>
      </trkpt>
      <trkpt lat="43.93714" lon="7.09918">
        <ele>364</ele>
        <time>2012-10-13T13:38:57Z</time>
      </trkpt>
      <trkpt lat="43.93701" lon="7.09893">
        <ele>368.3</ele>
        <time>2012-10-13T13:39:29Z</time>
      </trkpt>
      <trkpt lat="43.93696" lon="7.09888">
        <ele>369.7</ele>
        <time>2012-10-13T13:39:38Z</time>
      </trkpt>
      <trkpt lat="43.9369" lon="7.09886">
        <ele>370.5</ele>
        <time>2012-10-13T13:39:46Z</time>
      </trkpt>
      <trkpt lat="43.93684" lon="7.09882">
        <ele>371.3</ele>
        <time>2012-10-13T13:39:54Z</time>
      </trkpt>
      <trkpt lat="43.9368" lon="7.09881">
        <ele>373.1</ele>
        <time>2012-10-13T13:40:01Z</time>
      </trkpt>
      <trkpt lat="43.93676" lon="7.09884">
        <ele>377.8</ele>
        <time>2012-10-13T13:40:08Z</time>
      </trkpt>
      <trkpt lat="43.93669" lon="7.09893">
        <ele>380.4</ele>
        <time>2012-10-13T13:40:18Z</time>
      </trkpt>
      <trkpt lat="43.93667" lon="7.09895">
        <ele>380.9</ele>
        <time>2012-10-13T13:40:21Z</time>
      </trkpt>
      <trkpt lat="43.93661" lon="7.09898">
        <ele>381.7</ele>
        <time>2012-10-13T13:40:29Z</time>
      </trkpt>
      <trkpt lat="43.93657" lon="7.09898">
        <ele>381.9</ele>
        <time>2012-10-13T13:40:33Z</time>
      </trkpt>
      <trkpt lat="43.93654" lon="7.09891">
        <ele>382.8</ele>
        <time>2012-10-13T13:40:41Z</time>
      </trkpt>
      <trkpt lat="43.93661" lon="7.09872">
        <ele>386</ele>
        <time>2012-10-13T13:41:04Z</time>
      </trkpt>
      <trkpt lat="43.93661" lon="7.09871">
        <ele>385.9</ele>
        <time>2012-10-13T13:41:05Z</time>
      </trkpt>
      <trkpt lat="43.93664" lon="7.09864">
        <ele>387.8</ele>
        <time>2012-10-13T13:41:13Z</time>
      </trkpt>
      <trkpt lat="43.93667" lon="7.09847">
        <ele>388.8</ele>
        <time>2012-10-13T13:41:30Z</time>
      </trkpt>
      <trkpt lat="43.93673" lon="7.09833">
        <ele>391.7</ele>
        <time>2012-10-13T13:41:48Z</time>
      </trkpt>
      <trkpt lat="43.93678" lon="7.09826">
        <ele>393.4</ele>
        <time>2012-10-13T13:41:57Z</time>
      </trkpt>
      <trkpt lat="43.93683" lon="7.09821">
        <ele>398.1</ele>
        <time>2012-10-13T13:42:05Z</time>
      </trkpt>
      <trkpt lat="43.93685" lon="7.09814">
        <ele>399.3</ele>
        <time>2012-10-13T13:42:12Z</time>
      </trkpt>
      <trkpt lat="43.93687" lon="7.09817">
        <ele>405</ele>
        <time>2012-10-13T13:42:19Z</time>
      </trkpt>
      <trkpt lat="43.93686" lon="7.09816">
        <ele>417.9</ele>
        <time>2012-10-13T13:42:37Z</time>
      </trkpt>
      <trkpt lat="43.93684" lon="7.09812">
        <ele>417.5</ele>
        <time>2012-10-13T13:42:45Z</time>
      </trkpt>
      <trkpt lat="43.93686" lon="7.09816">
        <ele>416.3</ele>
        <time>2012-10-13T13:42:50Z</time>
      </trkpt>
      <trkpt lat="43.93687" lon="7.09819">
        <ele>414.1</ele>
        <time>2012-10-13T13:42:54Z</time>
      </trkpt>
      <trkpt lat="43.93689" lon="7.0982">
        <ele>409.1</ele>
        <time>2012-10-13T13:43:01Z</time>
      </trkpt>
      <trkpt lat="43.93688" lon="7.09815">
        <ele>408.1</ele>
        <time>2012-10-13T13:43:05Z</time>
      </trkpt>
      <trkpt lat="43.93686" lon="7.09813">
        <ele>407.9</ele>
        <time>2012-10-13T13:43:07Z</time>
      </trkpt>
      <trkpt lat="43.9368" lon="7.09812">
        <ele>410</ele>
        <time>2012-10-13T13:43:14Z</time>
      </trkpt>
      <trkpt lat="43.93676" lon="7.09811">
        <ele>407.1</ele>
        <time>2012-10-13T13:43:22Z</time>
      </trkpt>
      <trkpt lat="43.93675" lon="7.09811">
        <ele>409.3</ele>
        <time>2012-10-13T13:43:27Z</time>
      </trkpt>
      <trkpt lat="43.93679" lon="7.09808">
        <ele>406.1</ele>
        <time>2012-10-13T13:44:25Z</time>
      </trkpt>
      <trkpt lat="43.93677" lon="7.09804">
        <ele>408.6</ele>
        <time>2012-10-13T13:44:31Z</time>
      </trkpt>
      <trkpt lat="43.9367" lon="7.09772">
        <ele>412.4</ele>
        <time>2012-10-13T13:44:43Z</time>
      </trkpt>
      <trkpt lat="43.93663" lon="7.09756">
        <ele>413.1</ele>
        <time>2012-10-13T13:44:49Z</time>
      </trkpt>
      <trkpt lat="43.93656" lon="7.09747">
        <ele>414.4</ele>
        <time>2012-10-13T13:44:53Z</time>
      </trkpt>
      <trkpt lat="43.93657" lon="7.09741">
        <ele>414.7</ele>
        <time>2012-10-13T13:44:57Z</time>
      </trkpt>
      <trkpt lat="43.93656" lon="7.09733">
        <ele>414.7</ele>
        <time>2012-10-13T13:45:00Z</time>
      </trkpt>
      <trkpt lat="43.93653" lon="7.09727">
        <ele>415.5</ele>
        <time>2012-10-13T13:45:06Z</time>
      </trkpt>
      <trkpt lat="43.93648" lon="7.09727">
        <ele>424.2</ele>
        <time>2012-10-13T13:45:34Z</time>
      </trkpt>
    </trkseg>
  </trk>
</gpx>